Date StartTime U_cm/s V_cm/s W_cm/s Ustd_cm/s Vstd_cm/s Wstd_cm/s Uvar_(cm/s)^2 Vvar_(cm/s)^2 Wvar_(cm/s)^2 KE_(m/s)^2 TurbulentKE_(m/s)^2 HorizWindSpeed_cm/s FrictionSpeec_cm/s DragCoef SpeedOfSound_m/s SonicTemperature_C Pressure_mb 
01/15/2015  00:00:00      -46.171      -14.024       -5.211        7.456       11.509        6.105       55.595      132.461       37.268        0.129        0.011       48.254        5.703        0.014      331.769       -0.005      869.325
01/15/2015  00:01:00      -53.845      -20.366       -7.019        7.741       11.732        5.850       59.928      137.636       34.227        0.180        0.012       57.567        3.120        0.003      331.771        0.002      869.306
01/15/2015  00:02:00      -51.396      -23.946       -7.392        9.184       11.206        5.778       84.352      125.575       33.390        0.176        0.012       56.700        4.528        0.006      331.792        0.034      869.288
01/15/2015  00:03:00      -66.210      -27.625       -4.975       10.160       10.273        6.695      103.224      105.538       44.827        0.271        0.013       71.742        3.468        0.002      331.779        0.014      869.281
01/15/2015  00:04:00      -64.344      -33.803       -4.715       18.888       11.747        9.352      356.750      137.985       87.462        0.294        0.029       72.683        7.138        0.010      331.773        0.003      869.266
01/15/2015  00:05:00      -61.424      -29.638       -2.489       24.405       13.339       11.133      595.606      177.932      123.936        0.278        0.045       68.200        5.425        0.006      331.613       -0.259      869.260
01/15/2015  00:06:00      -70.515      -37.561       -5.518       17.515       15.576        9.960      306.787      242.621       99.195        0.353        0.032       79.895        7.025        0.008      331.597       -0.285      869.266
01/15/2015  00:07:00     -101.498      -36.732       -7.587       13.582       18.767       10.099      184.468      352.197      101.989        0.617        0.032      107.940        6.668        0.004      331.637       -0.218      869.262
01/15/2015  00:08:00     -109.957      -36.636       -4.747       13.978       20.783       14.872      195.397      431.950      221.185        0.715        0.042      115.900       10.075        0.008      331.618       -0.249      869.245
01/15/2015  00:09:00     -114.152      -46.264       -4.530       26.356       28.970       18.483      694.647      839.242      341.612        0.853        0.094      123.171       17.142        0.019      331.662       -0.179      869.227
01/15/2015  00:10:00     -119.761      -45.559        2.740       22.423       19.276       17.037      502.777      371.559      290.258        0.880        0.058      128.134       15.828        0.015      331.638       -0.217      869.212
01/15/2015  00:11:00      -86.016      -46.001        4.431       30.915       23.806       17.954      955.758      566.703      322.349        0.569        0.092       97.544       12.382        0.016      331.640       -0.216      869.204
01/15/2015  00:12:00      -72.046      -18.882        1.893       25.083       21.753       18.498      629.169      473.198      342.164        0.350        0.072       74.479       14.516        0.038      331.669       -0.166      869.186
01/15/2015  00:13:00      -73.076      -21.215       -0.218       23.337       21.801       14.551      544.621      475.299      211.740        0.351        0.062       76.093       13.161        0.030      331.700       -0.115      869.164
01/15/2015  00:14:00      -98.427      -22.185       -3.932       21.655       17.269       14.518      468.954      298.204      210.772        0.559        0.049      100.896       11.992        0.014      331.697       -0.120      869.156
01/15/2015  00:15:00     -113.999      -35.020       -2.527       15.542       21.992       12.802      241.553      483.650      163.893        0.756        0.044      119.257        8.812        0.005      331.716       -0.089      869.146
01/15/2015  00:16:00     -120.061      -34.074       -0.600       22.721       19.322       13.487      516.237      373.341      181.894        0.832        0.054      124.803       12.276        0.010      331.688       -0.136      869.136
01/15/2015  00:17:00     -127.280      -40.412       -4.330       18.324       18.201       12.972      335.766      331.273      168.284        0.934        0.042      133.542        7.569        0.003      331.658       -0.185      869.136
01/15/2015  00:18:00     -109.457      -34.924       -8.883       19.853       20.500       16.605      394.144      420.260      275.715        0.718        0.055      114.894       10.151        0.008      331.630       -0.232      869.143
01/15/2015  00:19:00     -108.403       -8.048      -10.358       37.837       27.447       16.363     1431.667      753.345      267.753        0.719        0.123      108.701       14.012        0.017      331.521       -0.411      869.139
01/15/2015  00:20:00      -68.674       -7.723       -8.631       39.081       26.156       16.271     1527.344      684.132      264.743        0.366        0.124       69.107       12.848        0.035      331.554       -0.358      869.131
01/15/2015  00:21:00      -71.343        3.276      -11.318       36.187       26.125       17.211     1309.466      682.531      296.214        0.376        0.114       71.418       17.397        0.059      331.566       -0.338      869.126
01/15/2015  00:22:00      -76.479       -2.770       -6.142       37.499       36.722       24.835     1406.159     1348.530      616.761        0.463        0.169       76.529       17.282        0.051      331.517       -0.419      869.122
01/15/2015  00:23:00      -78.244      -17.839       -2.758       43.339       23.491       15.658     1878.239      551.817      245.177        0.456        0.134       80.251       11.539        0.021      331.484       -0.471      869.130
01/15/2015  00:24:00      -73.626      -24.589       -0.219       24.159       25.773       17.136      583.670      664.238      293.627        0.378        0.077       77.623       13.402        0.030      331.467       -0.500      869.135
01/15/2015  00:25:00      -69.335      -10.187        0.527       32.296       24.258       14.747     1043.063      588.462      217.488        0.338        0.092       70.079        6.814        0.009      331.517       -0.416      869.136
01/15/2015  00:26:00      -45.321       -6.833        3.457       22.130       33.486       17.115      489.719     1121.294      292.920        0.201        0.095       45.833        9.033        0.039      331.548       -0.366      869.135
01/15/2015  00:27:00      -53.601        3.712       -3.400       25.563       27.409       16.573      653.482      751.270      274.677        0.229        0.084       53.729       11.858        0.049      331.692       -0.129      869.132
01/15/2015  00:28:00      -76.457        3.613       -3.222       34.928       23.870       17.584     1219.943      569.767      309.201        0.398        0.105       76.543       11.908        0.024      331.673       -0.160      869.147
01/15/2015  00:29:00      -43.604        7.802       -1.483       41.846       28.203       24.046     1751.111      795.405      578.229        0.254        0.156       44.296       23.102        0.272      331.694       -0.124      869.169
01/15/2015  00:30:00      -60.957       -0.075       -0.009       51.840       31.086       22.083     2687.374      966.368      487.675        0.393        0.207       60.957       17.294        0.080      331.634       -0.224      869.181
01/15/2015  00:31:00     -147.480       35.853      -11.582       39.315       32.480       19.731     1545.650     1054.965      389.318        1.308        0.149      151.776       13.104        0.007      331.749       -0.036      869.192
01/15/2015  00:32:00     -129.285       34.869       -5.161       34.286       26.868       20.077     1175.525      721.888      403.092        1.013        0.115      133.905       16.621        0.015      331.695       -0.124      869.209
01/15/2015  00:33:00     -178.423       31.257      -14.805       42.572       38.526       21.026     1812.403     1484.240      442.091        1.838        0.187      181.141       18.191        0.010      331.643       -0.210      869.237
01/15/2015  00:34:00     -124.703       -5.710       -9.858       46.372       30.375       22.235     2150.359      922.671      494.411        0.962        0.178      124.834       23.302        0.035      331.556       -0.354      869.264
01/15/2015  00:35:00     -178.976       21.878      -17.674       38.602       31.549       21.092     1490.137      995.340      444.885        1.788        0.147      180.308       18.787        0.011      331.592       -0.294      869.269
01/15/2015  00:36:00     -188.444       26.286      -15.278       37.557       36.746       17.824     1410.503     1350.246      317.703        1.976        0.154      190.268       15.623        0.007      331.583       -0.310      869.272
01/15/2015  00:37:00     -209.167       27.143      -24.728       32.452       25.960       19.288     1053.129      673.946      372.011        2.360        0.105      210.921       14.360        0.005      331.578       -0.319      869.280
01/15/2015  00:38:00     -163.555        5.243      -18.772       39.291       29.847       25.030     1543.810      890.854      626.476        1.510        0.153      163.639       24.782        0.023      331.524       -0.406      869.302
01/15/2015  00:39:00      -93.113      -24.505       -0.521       35.614       33.902       23.596     1268.342     1149.366      556.790        0.612        0.149       96.283       21.788        0.051      331.519       -0.413      869.321
01/15/2015  00:40:00     -155.720       -6.440      -16.561       22.035       20.108       17.391      485.529      404.324      302.435        1.288        0.060      155.853       11.423        0.005      331.545       -0.371      869.330
01/15/2015  00:41:00      -84.099      -13.186       -1.651       37.889       25.938       24.261     1435.613      672.763      588.607        0.497        0.135       85.127       22.850        0.072      331.582       -0.310      869.343
01/15/2015  00:42:00     -122.119       -4.310       -4.719       36.564       23.036       19.763     1336.922      530.678      390.589        0.861        0.113      122.195       20.930        0.029      331.593       -0.292      869.352
01/15/2015  00:43:00     -106.568      -11.533       -7.154       30.150       20.403       17.758      909.040      416.264      315.364        0.659        0.082      107.190       17.879        0.028      331.569       -0.332      869.358
01/15/2015  00:44:00      -78.840      -17.121       -3.663       30.941       17.193       15.897      957.334      295.591      252.722        0.401        0.075       80.678       17.937        0.049      331.539       -0.380      869.356
01/15/2015  00:45:00      -79.080       -8.290       -3.003       34.438       21.916       15.159     1185.968      480.299      229.804        0.411        0.095       79.514       15.096        0.036      331.608       -0.266      869.353
01/15/2015  00:46:00      -88.801        3.492       -8.789       22.597       15.494       14.765      510.645      240.059      217.996        0.447        0.048       88.870       13.983        0.025      331.601       -0.278      869.348
01/15/2015  00:47:00      -74.585       -2.283       -7.434       21.197       18.523       12.637      449.307      343.090      159.689        0.329        0.048       74.620       10.289        0.019      331.660       -0.180      869.343
01/15/2015  00:48:00      -50.111       -1.974       -5.619       23.767       18.491        9.714      564.867      341.899       94.360        0.177        0.050       50.150        8.093        0.026      331.713       -0.097      869.342
01/15/2015  00:49:00      -62.816      -41.301      -11.255       17.258       23.967       12.531      297.845      574.429      157.024        0.340        0.051       75.177       11.527        0.024      331.679       -0.148      869.338
01/15/2015  00:50:00      -82.001      -21.348       -7.362       26.897       24.130       16.768      723.450      582.247      281.159        0.441        0.079       84.735       12.530        0.022      331.731       -0.064      869.325
01/15/2015  00:51:00      -81.436      -14.028       -6.740       34.781       27.378       18.561     1209.727      749.563      344.496        0.459        0.115       82.636       15.633        0.036      331.730       -0.068      869.304
01/15/2015  00:52:00     -121.162       -6.309      -11.783       39.661       23.977       16.699     1572.986      574.914      278.852        0.864        0.121      121.326       18.998        0.025      331.709       -0.099      869.289
01/15/2015  00:53:00     -157.959        4.059      -20.889       37.348       25.426       17.521     1394.855      646.458      306.988        1.388        0.117      158.011       18.530        0.014      331.752       -0.031      869.301
01/15/2015  00:54:00     -118.669       -5.244       -7.341       51.647       25.436       23.172     2667.424      647.014      536.949        0.901        0.193      118.785       26.858        0.051      331.651       -0.195      869.314
01/15/2015  00:55:00     -100.607       -4.249       -2.757       43.890       23.690       20.940     1926.322      561.206      438.480        0.654        0.146      100.697       23.376        0.054      331.577       -0.318      869.328
01/15/2015  00:56:00     -142.314       16.407      -11.394       40.143       25.392       17.094     1611.492      644.772      292.200        1.160        0.127      143.257       14.965        0.011      331.684       -0.143      869.326
01/15/2015  00:57:00     -150.500       26.615      -10.818       26.320       29.326       17.553      692.719      860.013      308.111        1.267        0.093      152.835       15.367        0.010      331.786        0.025      869.323
01/15/2015  00:58:00     -146.555        6.423      -12.661       27.250       26.179       14.936      742.539      685.335      223.086        1.167        0.083      146.695       12.192        0.007      331.760       -0.017      869.333
01/15/2015  00:59:00      -86.291       -6.809       -3.190       44.417       33.825       21.656     1972.888     1144.131      468.993        0.554        0.179       86.560       24.874        0.083      331.739       -0.051      869.354
01/15/2015  01:00:00      -79.079      -43.608       -4.721       22.824       20.184       17.517      520.915      407.375      306.863        0.471        0.062       90.306       14.633        0.026      331.663       -0.177      869.361
01/15/2015  01:01:00      -78.492      -33.051       -1.020       20.907       18.728       13.681      437.119      350.728      187.161        0.411        0.049       85.166       12.946        0.023      331.657       -0.186      869.364
01/15/2015  01:02:00      -71.887      -50.728       -1.649       18.968       17.736       13.576      359.775      314.554      184.315        0.430        0.043       87.983        8.799        0.010      331.759       -0.018      869.355
01/15/2015  01:03:00      -90.561      -60.606       -9.118       32.102       23.372       18.048     1030.558      546.265      325.729        0.693        0.095      108.969       12.731        0.014      331.801        0.050      869.354
01/15/2015  01:04:00      -98.667      -54.121       -0.678       29.733       16.476       14.607      884.044      271.447      213.377        0.702        0.068      112.536        9.107        0.007      331.738       -0.052      869.335
01/15/2015  01:05:00      -97.276      -51.922       -5.340       32.658       25.472       16.638     1066.539      648.805      276.834        0.709        0.100      110.265        9.349        0.007      331.724       -0.075      869.330
01/15/2015  01:06:00      -77.453      -46.245       -1.851       46.895       25.498       18.383     2199.186      650.139      337.936        0.566        0.159       90.208       12.620        0.020      331.717       -0.088      869.325
01/15/2015  01:07:00      -61.762      -37.706       -1.944       30.719       19.585       16.989      943.669      383.579      288.614        0.343        0.081       72.362       11.199        0.024      331.725       -0.074      869.313
01/15/2015  01:08:00      -65.715      -40.394       -8.647       30.080       18.123       15.071      904.817      328.432      227.140        0.374        0.073       77.137       12.965        0.028      331.793        0.039      869.292
01/15/2015  01:09:00      -62.697      -43.918       -3.020       28.025       22.985       20.136      785.404      528.304      405.473        0.379        0.086       76.549       18.485        0.058      331.800        0.046      869.287
01/15/2015  01:10:00      -54.721      -42.611        1.847       42.961       29.007       22.830     1845.662      841.429      521.200        0.401        0.160       69.355       27.397        0.156      331.761       -0.015      869.283
01/15/2015  01:11:00      -70.455      -44.499       -1.339       30.168       24.586       20.677      910.098      604.455      427.552        0.444        0.097       83.331       16.585        0.040      331.655       -0.189      869.294
01/15/2015  01:12:00      -95.861      -71.320        0.443       34.066       25.648       17.878     1160.471      657.822      319.633        0.821        0.107      119.482       12.840        0.012      331.703       -0.112      869.293
01/15/2015  01:13:00      -86.241      -60.362        5.138       38.634       35.534       21.357     1492.623     1262.662      456.104        0.716        0.161      105.267       20.517        0.038      331.756       -0.024      869.299
01/15/2015  01:14:00     -101.386      -58.360        6.185       44.864       39.243       27.215     2012.785     1540.049      740.649        0.901        0.215      116.983       26.746        0.052      331.618       -0.250      869.328
01/15/2015  01:15:00     -112.025      -83.876        3.583       51.525       36.430       28.840     2654.801     1327.159      831.735        1.220        0.241      139.946       31.541        0.051      331.567       -0.334      869.358
01/15/2015  01:16:00     -105.291      -41.124       -6.740       36.901       28.220       24.718     1361.719      796.346      610.993        0.780        0.138      113.037       19.179        0.029      331.554       -0.356      869.365
01/15/2015  01:17:00      -68.080      -27.397       -6.124       19.787       17.892       10.809      391.532      320.120      116.834        0.313        0.041       73.386        6.704        0.008      331.575       -0.323      869.347
01/15/2015  01:18:00      -53.267      -21.767       -2.848        9.288        9.856        6.597       86.274       97.137       43.514        0.177        0.011       57.543        4.728        0.007      331.700       -0.115      869.316
01/15/2015  01:19:00      -70.722      -19.572      -10.070       12.187        8.887        9.006      148.516       78.973       81.101        0.290        0.015       73.380        2.262        0.001      331.804        0.055      869.320
01/15/2015  01:20:00      -87.389      -25.271       -7.767       11.697        8.290        8.523      136.830       68.719       72.640        0.431        0.014       90.970        2.936        0.001      331.798        0.046      869.333
01/15/2015  01:21:00      -93.505      -42.243       -9.391       14.277       14.834       10.918      203.838      220.052      119.213        0.558        0.027      102.604        6.563        0.004      331.760       -0.019      869.353
01/15/2015  01:22:00      -91.197      -46.748       -8.193        9.760       15.352       10.640       95.263      235.693      113.216        0.551        0.022      102.481        5.599        0.003      331.699       -0.117      869.380
01/15/2015  01:23:00      -73.094      -42.059       -1.821       18.944       17.417       18.168      358.868      303.356      330.077        0.405        0.050       84.331       13.556        0.026      331.660       -0.181      869.391
01/15/2015  01:24:00      -80.082      -19.312       -3.997        7.500       11.704        5.936       56.246      136.994       35.240        0.352        0.011       82.377        3.625        0.002      331.720       -0.082      869.396
01/15/2015  01:25:00      -57.097      -37.723       -2.039       12.494       13.276        9.556      156.100      176.259       91.315        0.256        0.021       68.433        5.318        0.006      331.785        0.025      869.408
01/15/2015  01:26:00      -39.828       -7.521       -4.231       15.550       16.709        7.122      241.792      279.204       50.726        0.112        0.029       40.532        4.990        0.015      331.811        0.068      869.415
01/15/2015  01:27:00       -2.139        5.878        6.345        4.440        5.960        5.172       19.714       35.517       26.754        0.008        0.004        6.255        0.482        0.006      331.732       -0.065      869.393
01/15/2015  01:28:00        3.087       11.545        9.690        6.805        6.110        4.419       46.305       37.328       19.525        0.017        0.005       11.951        3.038        0.065      331.763       -0.011      869.365
01/15/2015  01:29:00        8.922       17.074        0.694        7.590        8.542        4.911       57.607       72.972       24.121        0.026        0.008       19.265        5.415        0.079      331.747       -0.037      869.374
01/15/2015  01:30:00       23.418       30.837       -7.781       12.645       13.642        6.707      159.886      186.111       44.984        0.098        0.020       38.721        5.617        0.021      331.598       -0.284      869.401
01/15/2015  01:31:00       42.242       30.382        1.251       23.084       15.796       16.710      532.853      249.498      279.225        0.189        0.053       52.033       11.756        0.051      331.525       -0.403      869.430
01/15/2015  01:32:00       78.062       40.353        3.589       30.499       27.011       25.177      930.183      729.608      633.897        0.501        0.115       87.875       21.466        0.060      331.417       -0.581      869.452
01/15/2015  01:33:00      105.027       55.098       14.672       32.879       26.398       22.887     1081.028      696.830      523.800        0.829        0.115      118.603       13.938        0.014      331.339       -0.711      869.442
01/15/2015  01:34:00       90.247       58.598       13.990       36.663       23.661       21.082     1344.149      559.861      444.469        0.706        0.117      107.602       21.356        0.039      331.301       -0.769      869.450
01/15/2015  01:35:00       72.348       49.137       25.987       31.179       14.814       21.789      972.101      219.462      474.777        0.499        0.083       87.456       19.648        0.050      331.265       -0.829      869.452
01/15/2015  01:36:00       63.519       26.317       17.617       18.840       19.573       19.622      354.949      383.108      385.028        0.308        0.056       68.755       12.574        0.033      331.284       -0.798      869.467
01/15/2015  01:37:00       50.483        9.482       21.796       29.319       20.915       16.464      859.608      437.449      271.079        0.234        0.078       51.365       16.087        0.098      331.365       -0.668      869.489
01/15/2015  01:38:00       63.202       14.335       30.891       37.453       17.194       21.046     1402.720      295.620      442.937        0.365        0.107       64.808       23.547        0.132      331.467       -0.500      869.498
01/15/2015  01:39:00       52.426       17.004       45.054       34.190       20.467       21.484     1168.952      418.893      461.570        0.356        0.102       55.115       20.177        0.134      331.530       -0.396      869.501
01/15/2015  01:40:00       38.555       32.115       47.837       46.151       40.591       24.572     2129.895     1647.641      603.794        0.459        0.219       50.178       27.646        0.304      331.561       -0.345      869.506
01/15/2015  01:41:00       49.878       34.395       47.781       47.146       33.619       29.501     2222.757     1130.217      870.301        0.509        0.211       60.587       35.373        0.341      331.535       -0.387      869.518
01/15/2015  01:42:00       68.862       24.671       52.051       49.054       33.342       27.739     2406.266     1111.661      769.463        0.617        0.214       73.148       26.650        0.133      331.554       -0.356      869.532
01/15/2015  01:43:00       66.108       49.452       65.850       56.814       42.031       34.765     3227.834     1766.641     1208.582        0.868        0.310       82.557       29.734        0.130      331.535       -0.387      869.528
01/15/2015  01:44:00      100.525       35.486       51.353       69.014       48.257       40.060     4762.888     2328.754     1604.790        1.135        0.435      106.605       38.840        0.133      331.601       -0.279      869.512
01/15/2015  01:45:00       38.145       78.120       94.690       48.351       38.687       21.007     2337.837     1496.685      441.294        1.040        0.214       86.935       20.000        0.053      331.621       -0.246      869.511
01/15/2015  01:46:00       44.122       63.070       78.612       41.687       38.653       21.695     1737.808     1494.058      470.669        0.790        0.185       76.971       19.406        0.064      331.641       -0.212      869.525
01/15/2015  01:47:00       46.826       64.233       67.566       42.761       32.878       25.959     1828.511     1080.967      673.877        0.723        0.179       79.489       22.135        0.078      331.642       -0.211      869.531
01/15/2015  01:48:00       45.875       72.239       75.774       40.061       33.073       28.489     1604.884     1093.821      811.625        0.829        0.176       85.574       25.769        0.091      331.669       -0.167      869.524
01/15/2015  01:49:00       18.553       47.171       47.052       29.375       30.680       22.573      862.872      941.268      509.545        0.355        0.116       50.688        9.042        0.032      331.676       -0.154      869.539
01/15/2015  01:50:00       57.286       34.320       32.864       33.180       24.037       24.425     1100.943      577.773      596.569        0.391        0.114       66.780       22.100        0.110      331.578       -0.316      869.581
01/15/2015  01:51:00       66.234       40.730       33.518       23.917       18.763       24.932      572.013      352.068      621.582        0.436        0.077       77.755       11.677        0.023      331.521       -0.410      869.628
01/15/2015  01:52:00       91.813       45.852       13.309       23.882       21.324       16.549      570.342      454.716      273.865        0.600        0.065      102.625        8.975        0.008      331.525       -0.405      869.644
01/15/2015  01:53:00       95.877       59.663       22.280       19.221       14.649       16.167      369.452      214.601      261.383        0.705        0.042      112.925        6.937        0.004      331.539       -0.382      869.640
01/15/2015  01:54:00       89.755       44.127       16.507       27.246       17.069       22.356      742.366      291.354      499.803        0.590        0.077      100.016       15.171        0.023      331.501       -0.443      869.642
01/15/2015  01:55:00       80.206       63.327       13.838       21.581       18.549       19.173      465.740      344.069      367.592        0.591        0.059      102.193       12.645        0.015      331.471       -0.495      869.659
01/15/2015  01:56:00       85.192       48.258        3.974       28.722       21.802       17.369      824.954      475.306      301.682        0.560        0.080       97.911       11.262        0.013      331.429       -0.563      869.683
01/15/2015  01:57:00       66.562       48.721        9.049       24.189       15.140       16.333      585.130      229.224      266.772        0.398        0.054       82.488        8.470        0.011      331.424       -0.569      869.698
01/15/2015  01:58:00       74.682       50.733        5.645       12.209       12.799       14.628      149.048      163.819      213.976        0.435        0.026       90.284        5.457        0.004      331.440       -0.544      869.702
01/15/2015  01:59:00       36.230       36.398        0.865       15.252       10.771       11.750      232.635      116.008      138.057        0.156        0.024       51.356        7.710        0.023      331.440       -0.544      869.690
01/15/2015  02:00:00       41.443       31.182        4.509       17.784       13.297       12.776      316.273      176.798      163.225        0.168        0.033       51.864        9.106        0.031      331.462       -0.508      869.683
01/15/2015  02:01:00       53.557       21.481        5.213       17.409       17.102       15.208      303.085      292.475      231.285        0.209        0.041       57.705        7.534        0.017      331.485       -0.469      869.671
01/15/2015  02:02:00       71.396       36.734        6.406       23.890       19.597       18.427      570.727      384.054      339.542        0.389        0.065       80.292        9.927        0.015      331.455       -0.520      869.672
01/15/2015  02:03:00       84.621       47.745       -2.580       16.430       19.167       18.844      269.939      367.382      355.096        0.522        0.050       97.161        7.534        0.006      331.445       -0.535      869.675
01/15/2015  02:04:00       63.894       29.098       -0.021       11.446       17.465       11.180      131.014      305.010      124.996        0.274        0.028       70.208        9.184        0.017      331.440       -0.545      869.673
01/15/2015  02:05:00       36.204       23.659        4.095       17.125       11.257       12.499      293.251      126.729      156.216        0.123        0.029       43.249       11.875        0.075      331.424       -0.569      869.670
01/15/2015  02:06:00       17.373       17.338       -8.495       11.650        9.973        7.376      135.717       99.452       54.402        0.048        0.014       24.545        6.284        0.066      331.445       -0.535      869.680
01/15/2015  02:07:00        3.312        6.982       -3.087       10.472       10.416        6.709      109.664      108.489       45.010        0.017        0.013        7.727        2.869        0.138      331.509       -0.429      869.698
01/15/2015  02:08:00        9.169       -3.331        1.856       13.540        7.656       13.431      183.334       58.614      180.385        0.026        0.021        9.755        7.681        0.620      331.539       -0.382      869.717
01/15/2015  02:09:00       -6.126        3.846       -5.031       13.334        8.736        4.663      177.790       76.312       21.741        0.018        0.014        7.233        2.425        0.112      331.583       -0.311      869.723
01/15/2015  02:10:00      -34.964       19.438       -4.722       19.553        6.581        6.138      382.313       43.313       37.676        0.104        0.023       40.004        7.272        0.033      331.554       -0.356      869.717
01/15/2015  02:11:00      -36.309       28.074       -3.089       14.229       21.614       11.072      202.463      467.166      122.594        0.145        0.040       45.896        7.705        0.028      331.561       -0.344      869.712
01/15/2015  02:12:00      -24.758        4.080        6.900        9.095       10.251        7.539       82.715      105.074       56.835        0.046        0.012       25.092        4.252        0.029      331.504       -0.440      869.719
01/15/2015  02:13:00        6.350        6.304       -2.260       12.025        7.548        5.830      144.591       56.966       33.989        0.016        0.012        8.947        4.760        0.283      331.561       -0.345      869.740
01/15/2015  02:14:00        2.639        8.500       -6.492        6.437       10.715        5.723       41.432      114.807       32.752        0.016        0.009        8.900        4.770        0.287      331.626       -0.236      869.748
01/15/2015  02:15:00      -36.671       -6.785       -4.052       24.116        7.921        7.540      581.569       62.738       56.848        0.105        0.035       37.293       10.250        0.076      331.687       -0.137      869.727
01/15/2015  02:16:00      -39.154      -18.622       -3.068       13.736       13.525        8.736      188.672      182.913       76.316        0.117        0.022       43.357        7.630        0.031      331.694       -0.124      869.714
01/15/2015  02:17:00       -1.020      -33.054       -0.374       11.589       14.905       11.731      134.301      222.151      137.605        0.079        0.025       33.070        9.233        0.078      331.791        0.035      869.719
01/15/2015  02:18:00      -28.776      -11.490       -7.700       14.877       10.225       10.186      221.335      104.553      103.746        0.072        0.021       30.985        6.859        0.049      331.728       -0.070      869.727
01/15/2015  02:19:00      -43.504       -6.451       -4.553        8.185       10.721        9.223       66.990      114.947       85.056        0.111        0.013       43.979        5.777        0.017      331.695       -0.123      869.715
01/15/2015  02:20:00      -57.669       -0.762       -7.834        7.496        6.810        6.543       56.184       46.379       42.810        0.177        0.007       57.674        3.965        0.005      331.690       -0.132      869.707
01/15/2015  02:21:00      -46.733        2.093       -5.731       22.445       16.279       18.522      503.779      265.012      343.073        0.167        0.056       46.780       17.539        0.141      331.735       -0.060      869.695
01/15/2015  02:22:00      -21.350       -4.512        2.990       18.603       10.254       11.923      346.058      105.137      142.168        0.054        0.030       21.822       12.723        0.340      331.723       -0.079      869.696
01/15/2015  02:23:00       -2.777        7.060        3.257        5.123        8.614        6.198       26.244       74.209       38.409        0.010        0.007        7.587        4.950        0.426      331.698       -0.119      869.710
01/15/2015  02:24:00       -4.220       12.153        4.757        8.548        7.584        9.491       73.064       57.516       90.072        0.020        0.011       12.865        7.020        0.298      331.762       -0.015      869.707
01/15/2015  02:25:00       -7.406       22.137       10.121        9.509        8.731        7.209       90.429       76.238       51.976        0.043        0.011       23.343        5.954        0.065      331.743       -0.045      869.697
01/15/2015  02:26:00       -5.695        2.349       -1.932        6.008        8.079        3.583       36.096       65.272       12.837        0.008        0.006        6.161        3.833        0.387      331.668       -0.167      869.685
01/15/2015  02:27:00        6.915        1.418       -5.663        7.060        7.463        4.555       49.838       55.693       20.747        0.010        0.006        7.059        4.139        0.344      331.702       -0.114      869.674
01/15/2015  02:28:00       18.972        1.676       -5.083       10.328        9.007        6.450      106.665       81.129       41.601        0.031        0.011       19.046        5.566        0.085      331.802        0.051      869.654
01/15/2015  02:29:00      -12.351        5.862        0.178        9.831        6.223        5.772       96.654       38.726       33.318        0.018        0.008       13.671        4.910        0.129      331.764       -0.013      869.624
01/15/2015  02:30:00      -57.137      -17.693       -6.186       20.005       13.986        5.931      400.184      195.600       35.176        0.212        0.032       59.814        8.001        0.018      331.562       -0.344      869.617
01/15/2015  02:31:00      -67.960      -41.527      -10.616       17.884        9.607        8.096      319.842       92.294       65.540        0.347        0.024       79.643        5.011        0.004      331.472       -0.492      869.649
01/15/2015  02:32:00      -64.240      -27.701       -3.260       14.080       21.272       10.010      198.249      452.516      100.206        0.283        0.038       69.957        3.008        0.002      331.424       -0.570      869.671
01/15/2015  02:33:00      -66.924       -3.657       -6.347       14.628        7.135        7.125      213.990       50.911       50.770        0.242        0.016       67.024        7.876        0.014      331.436       -0.551      869.665
01/15/2015  02:34:00      -64.207      -21.894       -9.444        9.423       10.636        9.086       88.793      113.117       82.551        0.249        0.014       67.837        5.895        0.008      331.573       -0.326      869.647
01/15/2015  02:35:00      -92.960      -12.443      -16.389       15.826       14.098        8.049      250.455      198.754       64.790        0.479        0.026       93.789        6.647        0.005      331.513       -0.424      869.640
01/15/2015  02:36:00     -109.771      -16.902      -11.625       13.258       11.984        9.804      175.780      143.626       96.115        0.644        0.021      111.064        4.722        0.002      331.479       -0.480      869.651
01/15/2015  02:37:00      -95.837      -20.224       -6.485       15.579        9.938        7.312      242.702       98.760       53.468        0.502        0.020       97.948        5.817        0.004      331.435       -0.552      869.660
01/15/2015  02:38:00      -74.610      -13.117       -5.268       19.901       10.518       11.502      396.045      110.632      132.289        0.320        0.032       75.754       12.720        0.028      331.410       -0.593      869.672
01/15/2015  02:39:00      -99.410       -9.426       -7.311       21.687       14.391       12.379      470.315      207.100      153.244        0.543        0.042       99.856       10.686        0.011      331.434       -0.554      869.690
01/15/2015  02:40:00      -99.445      -16.464      -10.299       22.362       15.714       13.311      500.080      246.928      177.196        0.560        0.046      100.799       11.615        0.013      331.486       -0.468      869.683
01/15/2015  02:41:00     -120.091       -8.394      -12.946       13.262       12.342       12.881      175.871      152.336      165.926        0.758        0.025      120.384        6.898        0.003      331.409       -0.596      869.663
01/15/2015  02:42:00     -139.756       -5.723      -13.509       25.188       17.098       17.606      634.459      292.351      309.955        1.049        0.062      139.873       13.364        0.009      331.353       -0.687      869.657
01/15/2015  02:43:00     -143.388      -17.104      -11.863       24.338       20.618       14.691      592.361      425.104      215.829        1.111        0.062      144.405       11.583        0.006      331.293       -0.785      869.661
01/15/2015  02:44:00     -111.067       -1.154       -7.278       34.343       25.508       26.299     1179.421      650.662      691.639        0.746        0.126      111.073       22.198        0.040      331.281       -0.805      869.659
01/15/2015  02:45:00     -111.529       -1.954       -9.511       33.613       28.433       19.340     1129.809      808.415      374.021        0.742        0.116      111.546       17.540        0.025      331.319       -0.743      869.661
01/15/2015  02:46:00     -142.020       11.327      -13.322       33.132       23.698       17.612     1097.735      561.610      310.198        1.122        0.098      142.471       14.615        0.011      331.339       -0.711      869.669
01/15/2015  02:47:00     -141.565        6.291      -15.707       26.470       21.746       14.860      700.668      472.891      220.808        1.086        0.070      141.705       12.528        0.008      331.349       -0.695      869.676
01/15/2015  02:48:00     -143.110        3.366      -10.542       32.237       22.284       18.294     1039.200      496.587      334.687        1.124        0.094      143.149       17.767        0.015      331.445       -0.535      869.683
01/15/2015  02:49:00     -154.361       12.876      -10.665       24.120       18.682       13.884      581.763      349.017      192.769        1.262        0.056      154.897        9.129        0.003      331.378       -0.644      869.702
01/15/2015  02:50:00     -161.123        4.603      -14.301       34.036       21.846       13.434     1158.473      477.250      180.485        1.400        0.091      161.189       12.989        0.006      331.346       -0.697      869.723
01/15/2015  02:51:00     -156.624        2.510      -15.842       17.826       16.337       13.053      317.760      266.888      170.386        1.277        0.038      156.644       10.110        0.004      331.266       -0.831      869.727
01/15/2015  02:52:00     -122.154        8.809      -10.060       33.796       26.336       22.202     1142.202      693.573      492.925        0.871        0.116      122.471       14.956        0.015      331.225       -0.898      869.733
01/15/2015  02:53:00     -111.610      -12.456       -9.580       39.212       21.820       19.224     1537.594      476.117      369.571        0.754        0.119      112.302       21.442        0.036      331.217       -0.909      869.739
01/15/2015  02:54:00      -77.712      -17.287        3.851       33.754       19.669       18.703     1139.362      386.872      349.798        0.411        0.094       79.611       19.670        0.061      331.255       -0.847      869.759
01/15/2015  02:55:00     -109.451       -4.308       -5.570       30.303       22.754       13.019      918.282      517.754      169.482        0.682        0.080      109.535       13.671        0.016      331.230       -0.889      869.774
01/15/2015  02:56:00      -81.812      -10.257       -0.601       34.014       21.638       16.668     1156.926      468.206      277.809        0.435        0.095       82.452       15.374        0.035      331.294       -0.782      869.766
01/15/2015  02:57:00     -100.882       -5.577       -9.596       28.694       19.924       16.523      823.367      396.964      273.015        0.590        0.075      101.036       17.985        0.032      331.300       -0.774      869.739
01/15/2015  02:58:00      -89.359       -3.790       -8.961       25.299       20.912       17.782      640.049      437.301      316.215        0.474        0.070       89.440       17.087        0.036      331.303       -0.768      869.723
01/15/2015  02:59:00     -101.815      -12.801       -5.446       29.094       24.489       19.244      846.470      599.726      370.324        0.619        0.091      102.616       17.643        0.030      331.343       -0.702      869.733
01/15/2015  03:00:00      -77.694      -37.721        5.459       25.591       27.528       17.918      654.910      757.783      321.060        0.461        0.087       86.367       14.831        0.029      331.342       -0.704      869.744
01/15/2015  03:01:00     -115.073       -7.210       -8.248       41.541       23.968       22.140     1725.672      574.466      490.190        0.808        0.140      115.299       22.337        0.038      331.315       -0.749      869.745
01/15/2015  03:02:00     -117.256       -8.979      -11.250       36.284       24.792       21.576     1316.508      614.625      465.504        0.818        0.120      117.600       20.296        0.030      331.336       -0.715      869.742
01/15/2015  03:03:00     -128.462       -4.373      -14.525       32.202       27.669       17.171     1036.953      765.581      294.827        0.941        0.105      128.537        8.007        0.004      331.300       -0.772      869.758
01/15/2015  03:04:00     -158.557        4.333      -17.836       50.693       30.188       19.707     2569.785      911.290      388.371        1.467        0.193      158.617       24.860        0.025      331.237       -0.879      869.783
01/15/2015  03:05:00     -165.667       -7.139      -19.753       41.901       29.763       20.351     1755.675      885.831      414.171        1.547        0.153      165.821       19.465        0.014      331.200       -0.939      869.798
01/15/2015  03:06:00     -169.511      -23.495      -12.605       45.782       42.341       31.311     2095.958     1792.734      980.384        1.716        0.243      171.131       28.868        0.028      331.232       -0.886      869.846
01/15/2015  03:07:00     -162.867      -56.970      -18.347       74.657       38.469       29.195     5573.736     1479.835      852.348        1.901        0.395      172.543       31.378        0.033      331.315       -0.751      869.886
01/15/2015  03:08:00      -96.377      -61.065      -22.048       68.721       42.509       32.195     4722.607     1806.985     1036.486        1.053        0.378      114.094       33.989        0.089      331.446       -0.535      869.887
01/15/2015  03:09:00     -114.203      -48.172      -19.539       29.303       39.064       18.705      858.675     1526.011      349.860        0.924        0.137      123.947       14.839        0.014      331.493       -0.454      869.892
01/15/2015  03:10:00      -94.407      -11.316       -5.301       45.992       36.776       22.884     2115.302     1352.498      523.686        0.653        0.200       95.083       22.749        0.057      331.480       -0.479      869.919
01/15/2015  03:11:00     -122.633       -3.920       -9.694       28.122       25.224       21.555      790.874      636.256      464.628        0.852        0.095      122.696       17.821        0.021      331.445       -0.535      869.922
01/15/2015  03:12:00      -76.088      -12.394       -7.206       42.545       26.963       16.184     1810.104      727.006      261.914        0.440        0.140       77.091       19.205        0.062      331.452       -0.524      869.907
01/15/2015  03:13:00      -53.950      -18.074       -5.165       23.956       24.189       17.290      573.913      585.124      298.957        0.236        0.073       56.897       13.560        0.057      331.442       -0.540      869.892
01/15/2015  03:14:00      -77.030       -4.157       -7.035       61.070       33.072       21.290     3729.534     1093.768      453.260        0.564        0.264       77.142       23.368        0.092      331.447       -0.533      869.890
01/15/2015  03:15:00     -129.083      -25.799      -16.738       26.232       24.883       18.223      688.113      619.178      332.066        0.962        0.082      131.636       14.092        0.011      331.339       -0.708      869.879
01/15/2015  03:16:00     -141.026       -7.078      -20.468       22.055       28.037       19.557      486.402      786.073      382.488        1.101        0.083      141.203       14.062        0.010      331.298       -0.776      869.867
01/15/2015  03:17:00     -130.263      -12.641      -17.777       44.367       32.037       20.291     1968.458     1026.363      411.741        1.042        0.170      130.874       17.114        0.017      331.340       -0.708      869.855
01/15/2015  03:18:00     -142.973      -17.396      -15.861       38.381       45.220       23.954     1473.134     2044.849      573.801        1.254        0.205      144.028       24.788        0.030      331.293       -0.785      869.847
01/15/2015  03:19:00     -110.728      -12.352      -10.594       31.889       24.282       16.919     1016.925      589.602      286.238        0.721        0.095      111.415       13.816        0.015      331.382       -0.640      869.827
01/15/2015  03:20:00      -71.879       -5.489       -5.095       42.604       29.497       23.765     1815.093      870.076      564.772        0.424        0.162       72.089       23.984        0.111      331.386       -0.633      869.785
01/15/2015  03:21:00      -73.755       19.590      -14.481       23.699       24.914       13.616      561.623      620.701      185.397        0.370        0.068       76.313       10.561        0.019      331.665       -0.173      869.732
01/15/2015  03:22:00      -57.590       -3.334       -9.668       26.521       19.625       16.760      703.363      385.149      280.895        0.240        0.068       57.687        8.802        0.023      331.664       -0.176      869.677
01/15/2015  03:23:00      -36.504        3.707       -9.326       21.658       22.300       13.536      469.071      497.268      183.212        0.129        0.057       36.692       11.275        0.094      331.654       -0.191      869.645
01/15/2015  03:24:00      -69.565        3.495      -10.260       23.738       29.538       12.527      563.493      872.475      156.932        0.327        0.080       69.653       11.588        0.028      331.698       -0.119      869.640
01/15/2015  03:25:00      -59.048      -23.558       -5.655       21.925       22.306       14.255      480.716      497.547      203.214        0.263        0.059       63.573       11.502        0.033      331.597       -0.284      869.634
01/15/2015  03:26:00      -20.941       -9.326       -0.608       14.264       19.984        9.940      203.467      399.374       98.794        0.061        0.035       22.924        3.686        0.026      331.588       -0.299      869.616
01/15/2015  03:27:00      -24.395      -19.813       -0.744       16.583       13.490        9.285      274.996      181.971       86.218        0.077        0.027       31.427        4.902        0.024      331.517       -0.417      869.589
01/15/2015  03:28:00      -25.307      -17.145        2.483       22.293       10.533       12.179      496.965      110.951      148.339        0.085        0.038       30.568       13.575        0.197      331.576       -0.321      869.586
01/15/2015  03:29:00      -39.323      -26.454       -5.725       19.875       16.230       12.277      394.996      263.429      150.719        0.154        0.040       47.393       13.578        0.082      331.574       -0.323      869.602
01/15/2015  03:30:00      -42.672      -25.536        0.513       22.587       18.186       11.087      510.155      330.717      122.914        0.172        0.048       49.729       12.437        0.063      331.599       -0.282      869.619
01/15/2015  03:31:00      -78.123      -37.344      -12.958        7.830        5.424        6.124       61.309       29.425       37.508        0.390        0.006       86.590        2.349        0.001      331.579       -0.314      869.618
01/15/2015  03:32:00      -79.799      -26.293      -14.189        7.806       11.865        7.851       60.933      140.776       61.636        0.376        0.013       84.019        3.707        0.002      331.646       -0.202      869.600
01/15/2015  03:33:00      -75.701      -19.725       -9.074        6.194        8.656        6.220       38.363       74.925       38.694        0.318        0.008       78.228        2.355        0.001      331.628       -0.235      869.575
01/15/2015  03:34:00      -85.149      -42.712      -14.443       15.031        8.510        6.554      225.916       72.420       42.951        0.481        0.017       95.261        4.497        0.002      331.775        0.008      869.580
01/15/2015  03:35:00      -99.515      -59.359       -8.705       28.968       17.299       13.449      839.164      299.270      180.881        0.741        0.066      115.874        8.536        0.005      331.710       -0.099      869.596
01/15/2015  03:36:00      -69.612      -49.687       -0.551       37.712       24.976       20.874     1422.194      623.790      435.734        0.490        0.124       85.526       19.548        0.052      331.669       -0.166      869.596
01/15/2015  03:37:00      -71.858      -36.554       -0.763       35.625       25.750       16.450     1269.122      663.066      270.594        0.435        0.110       80.621       16.008        0.039      331.713       -0.093      869.579
01/15/2015  03:38:00     -101.140      -25.765       -4.115       21.779       18.858       15.236      474.313      355.625      232.130        0.599        0.053      104.370       14.859        0.020      331.687       -0.137      869.547
01/15/2015  03:39:00      -78.799       -8.363       -1.806       34.055       16.949       14.614     1159.757      287.285      213.558        0.397        0.083       79.241       14.478        0.033      331.548       -0.366      869.519
01/15/2015  03:40:00      -75.362      -25.074        3.764       46.865       17.657       19.343     2196.360      311.772      374.167        0.460        0.144       79.424       22.859        0.083      331.476       -0.485      869.516
01/15/2015  03:41:00      -64.225      -53.844       -0.039       34.591       26.048       19.442     1196.516      678.507      377.994        0.464        0.113       83.810       16.641        0.039      331.536       -0.385      869.520
01/15/2015  03:42:00      -26.369      -29.188        8.487       32.546       27.965       16.048     1059.263      782.025      257.547        0.186        0.105       39.335       17.588        0.200      331.660       -0.181      869.514
01/15/2015  03:43:00      -55.992      -39.395        8.616       42.886       35.457       23.290     1839.209     1257.184      542.409        0.420        0.182       68.463       24.284        0.126      331.728       -0.069      869.521
01/15/2015  03:44:00      -91.092      -85.269        0.991       43.500       42.787       24.638     1892.242     1830.766      607.027        0.995        0.217      124.774       22.315        0.032      331.642       -0.210      869.546
01/15/2015  03:45:00     -105.180      -99.447       -6.218       40.374       35.964       22.286     1630.045     1293.434      496.652        1.221        0.171      144.750       17.921        0.015      331.688       -0.135      869.555
01/15/2015  03:46:00     -110.869     -103.759       -6.806       32.469       35.007       24.975     1054.246     1225.507      623.764        1.300        0.145      151.848       20.484        0.018      331.660       -0.182      869.545
01/15/2015  03:47:00      -87.641      -89.894      -12.362       26.715       19.903       11.889      713.690      396.137      141.351        0.858        0.063      125.546       10.828        0.007      331.643       -0.208      869.499
01/15/2015  03:48:00      -55.741      -51.709       -3.341       33.535       25.865       13.620     1124.600      669.017      185.507        0.389        0.099       76.032       16.616        0.048      331.722       -0.077      869.482
01/15/2015  03:49:00      -21.595      -40.831        5.019       44.160       24.590       15.624     1950.069      604.659      244.118        0.248        0.140       46.190       14.781        0.102      331.756       -0.024      869.528
01/15/2015  03:50:00      -64.084      -53.740        8.521       62.581       36.975       26.353     3916.341     1367.165      694.477        0.652        0.299       83.634       32.776        0.154      331.613       -0.258      869.561
01/15/2015  03:51:00     -116.139      -91.692       -4.178       37.321       40.710       23.175     1392.885     1657.333      537.065        1.275        0.179      147.972       19.519        0.017      331.544       -0.372      869.576
01/15/2015  03:52:00      -62.915      -59.056       10.678       52.440       51.874       29.301     2749.903     2690.895      858.572        0.693        0.315       86.290       30.740        0.127      331.517       -0.418      869.584
01/15/2015  03:53:00     -126.056      -61.913        2.034       34.891       27.431       19.893     1217.410      752.442      395.748        1.105        0.118      140.439       16.179        0.013      331.399       -0.611      869.580
01/15/2015  03:54:00      -96.667      -34.799       -1.728       30.173       29.779       16.601      910.403      886.773      275.582        0.632        0.104      102.740       11.403        0.012      331.443       -0.540      869.573
01/15/2015  03:55:00      -21.806      -39.208        6.065       21.624       28.735       17.079      467.607      825.719      291.683        0.182        0.079       44.864       16.269        0.132      331.486       -0.468      869.573
01/15/2015  03:56:00      -69.619      -18.799       -4.251       26.690       31.445       15.829      712.334      988.765      250.566        0.358        0.098       72.112        9.040        0.016      331.479       -0.480      869.588
01/15/2015  03:57:00      -30.887      -33.796        9.679       30.049       16.263       17.477      902.966      264.488      305.445        0.183        0.074       45.784       18.110        0.156      331.514       -0.421      869.614
01/15/2015  03:58:00        0.219      -25.937       11.457       25.840       20.950       15.272      667.705      438.915      233.229        0.107        0.067       25.938       14.065        0.294      331.646       -0.203      869.618
01/15/2015  03:59:00      -72.962      -32.407        0.939       36.182       19.387       12.418     1309.112      375.875      154.195        0.411        0.092       79.835       12.267        0.024      331.600       -0.279      869.600
01/15/2015  04:00:00      -29.723      -22.557       -2.045       30.081       18.474       13.829      904.841      341.298      191.237        0.142        0.072       37.313       11.118        0.089      331.601       -0.279      869.554
01/15/2015  04:01:00      -27.186      -11.252       -2.943       20.041       14.766       11.782      401.644      218.030      138.804        0.082        0.038       29.422       11.136        0.143      331.505       -0.439      869.501
01/15/2015  04:02:00      -37.409        8.261       -6.449       11.227        8.822        7.607      126.043       77.823       57.869        0.089        0.013       38.310        4.667        0.015      331.459       -0.515      869.484
01/15/2015  04:03:00      -28.510       16.273       -3.355       13.430       12.038        7.131      180.353      144.922       50.853        0.073        0.019       32.828        4.611        0.020      331.478       -0.482      869.491
01/15/2015  04:04:00      -52.081       23.383       -5.216       10.222       10.095        7.933      104.490      101.901       62.938        0.178        0.013       57.089        5.306        0.009      331.464       -0.503      869.492
01/15/2015  04:05:00      -43.487       23.585       -4.552       16.494       11.425        5.650      272.060      130.527       31.921        0.145        0.022       49.471        2.537        0.003      331.533       -0.392      869.470
01/15/2015  04:06:00      -16.958       24.923       -0.169       15.153       12.967        7.938      229.612      168.155       63.007        0.068        0.023       30.145        5.978        0.039      331.508       -0.432      869.453
01/15/2015  04:07:00      -13.599       25.874        1.346       14.102       19.653       12.748      198.870      386.244      162.508        0.080        0.037       29.230        7.571        0.067      331.587       -0.301      869.457
01/15/2015  04:08:00      -11.683       54.338       -5.078       16.426       21.444        9.022      269.800      459.852       81.391        0.196        0.041       55.580        9.696        0.030      331.473       -0.491      869.461
01/15/2015  04:09:00       30.130       57.959       -9.613       20.334       25.422       12.333      413.470      646.303      152.097        0.279        0.061       65.323       13.605        0.043      331.307       -0.762      869.433
01/15/2015  04:10:00       76.917       42.350       -1.522       29.684       18.987       16.234      881.148      360.511      263.546        0.461        0.075       87.805        8.331        0.009      331.296       -0.780      869.409
01/15/2015  04:11:00       94.184       47.719       18.192       29.269       26.283       24.837      856.671      690.818      616.856        0.682        0.108      105.583       17.578        0.028      331.229       -0.890      869.396
01/15/2015  04:12:00       69.121       82.806       53.701       33.644       26.344       33.633     1131.888      694.023     1131.187        0.874        0.148      107.864       24.195        0.050      331.173       -0.983      869.374
01/15/2015  04:13:00       96.734       69.555       61.474       51.313       40.472       39.268     2633.065     1638.008     1541.968        1.189        0.291      119.144       33.452        0.079      331.177       -0.977      869.361
01/15/2015  04:14:00      103.166       56.936       39.465       40.985       37.493       29.184     1679.794     1405.708      851.729        0.969        0.197      117.835       16.493        0.020      331.203       -0.934      869.350
01/15/2015  04:15:00       65.007       50.763       39.666       39.582       22.337       21.006     1566.740      498.923      441.243        0.544        0.125       82.479       16.361        0.039      331.124       -1.063      869.360
01/15/2015  04:16:00      102.979       55.919       16.787       27.937       26.412       24.944      780.481      697.584      622.206        0.806        0.105      117.182       15.930        0.018      331.190       -0.953      869.372
01/15/2015  04:17:00       84.184       38.296       15.588       34.780       29.821       25.718     1209.627      889.294      661.432        0.578        0.138       92.485       21.146        0.052      331.205       -0.930      869.373
01/15/2015  04:18:00       57.730       58.807       46.070       29.058       18.517       23.267      844.393      342.885      541.370        0.532        0.086       82.407       16.981        0.042      331.192       -0.953      869.347
01/15/2015  04:19:00       55.746       37.698       24.946       28.581       22.947       17.959      816.879      526.542      322.512        0.341        0.083       67.296        8.849        0.017      331.138       -1.041      869.336
01/15/2015  04:20:00       83.554       59.704       13.605       20.581       15.109       17.760      423.573      228.292      315.400        0.585        0.048      102.693        9.839        0.009      331.101       -1.102      869.349
01/15/2015  04:21:00       87.296       42.161        5.051       32.242       15.948       16.173     1039.567      254.336      261.551        0.549        0.078       96.944       13.514        0.019      331.083       -1.130      869.361
01/15/2015  04:22:00      106.123       52.186       15.634       31.979       26.440       29.359     1022.662      699.069      861.975        0.841        0.129      118.260       18.099        0.023      331.154       -1.014      869.351
01/15/2015  04:23:00       90.885       77.495       39.306       32.237       26.351       34.017     1039.238      694.355     1157.177        0.935        0.145      119.438       25.081        0.044      331.116       -1.077      869.302
01/15/2015  04:24:00      112.690       42.692       26.589       42.344       29.922       36.004     1793.054      895.339     1296.257        0.961        0.199      120.506       24.365        0.041      331.085       -1.128      869.242
01/15/2015  04:25:00       76.815       58.625       36.043       42.266       29.188       31.543     1786.416      851.920      994.943        0.713        0.182       96.630       26.028        0.073      331.044       -1.196      869.220
01/15/2015  04:26:00       74.105       38.818       27.639       41.089       23.337       19.110     1688.307      544.610      365.202        0.518        0.130       83.657       14.674        0.031      331.035       -1.210      869.233
01/15/2015  04:27:00       68.946       25.050        9.302       37.482       23.047       23.112     1404.871      531.151      534.143        0.397        0.124       73.356       21.687        0.087      331.031       -1.216      869.241
01/15/2015  04:28:00       73.792       51.685       10.569       28.224       18.264       15.830      796.615      333.558      250.584        0.480        0.069       90.092       10.044        0.012      331.022       -1.233      869.224
01/15/2015  04:29:00      100.716       61.735       16.132       22.161       15.458       17.528      491.114      238.962      307.233        0.763        0.052      118.131        7.782        0.004      331.002       -1.264      869.232
01/15/2015  04:30:00       94.979       52.270       26.939       15.629       13.727       20.319      244.254      188.424      412.843        0.666        0.042      108.412        8.141        0.006      331.050       -1.185      869.248
01/15/2015  04:31:00       77.860       50.292       23.996       29.342       20.807       17.022      860.951      432.920      289.755        0.538        0.079       92.690        6.956        0.006      330.988       -1.286      869.242
01/15/2015  04:32:00       98.054       58.718       14.517       17.308       14.798       20.170      299.567      218.975      406.829        0.710        0.046      114.291       13.481        0.014      331.010       -1.251      869.234
01/15/2015  04:33:00       79.431       61.030        7.405       23.562       23.137       13.178      555.156      535.332      173.668        0.568        0.063      100.169        6.750        0.005      330.997       -1.273      869.223
01/15/2015  04:34:00       92.116       41.910       -2.646       24.756       19.323       12.475      612.880      373.365      155.636        0.570        0.057      101.202        8.488        0.007      331.021       -1.234      869.218
01/15/2015  04:35:00       91.207       37.432        2.590       22.870       23.802       14.682      523.031      566.532      215.566        0.552        0.065       98.589       10.190        0.011      331.057       -1.174      869.239
01/15/2015  04:36:00       56.973       46.801        0.512       23.061       15.458       12.715      531.811      238.952      161.679        0.318        0.047       73.731        9.851        0.018      331.074       -1.145      869.268
01/15/2015  04:37:00       19.799       45.722       -2.142       14.457       16.130       13.763      208.998      260.167      189.420        0.157        0.033       49.824        9.058        0.033      331.053       -1.179      869.289
01/15/2015  04:38:00       15.299       79.101      -10.615       12.314       14.727        9.095      151.635      216.878       82.722        0.353        0.023       80.567        6.162        0.006      331.079       -1.136      869.292
01/15/2015  04:39:00       18.739       74.791       -7.707       14.656       24.597       14.730      214.791      605.026      216.984        0.352        0.052       77.103       15.928        0.043      331.072       -1.149      869.283
01/15/2015  04:40:00       22.734       78.066      -12.311       10.989       11.638        9.231      120.750      135.432       85.212        0.355        0.017       81.309        7.391        0.008      331.090       -1.119      869.266
01/15/2015  04:41:00       20.236       69.235       -9.790       11.415       14.409       10.490      130.298      207.615      110.050        0.287        0.022       72.132        5.184        0.005      331.119       -1.071      869.245
01/15/2015  04:42:00       52.035       44.689       -3.896       14.511       14.545       15.204      210.558      211.543      231.168        0.269        0.033       68.591        9.648        0.020      331.086       -1.126      869.226
01/15/2015  04:43:00       27.989       33.325       -1.456       12.609       11.095        9.774      158.995      123.095       95.528        0.114        0.019       43.520        7.709        0.031      331.076       -1.143      869.227
01/15/2015  04:44:00        6.035       41.933       -9.464       12.136       13.603        5.810      147.284      185.050       33.751        0.113        0.018       42.365        7.314        0.030      331.161       -1.002      869.243
01/15/2015  04:45:00      -37.257       40.845       -9.726       24.261       22.647        9.224      588.611      512.867       85.090        0.217        0.059       55.285        9.419        0.029      331.173       -0.984      869.256
01/15/2015  04:46:00      -77.236       39.923      -16.965       13.415       14.809       11.682      179.954      219.293      136.468        0.419        0.027       86.944        8.148        0.009      331.174       -0.980      869.271
01/15/2015  04:47:00      -75.069       38.713      -14.602       21.011       28.091       16.295      441.445      789.105      265.537        0.442        0.075       84.463       13.987        0.027      331.185       -0.964      869.259
01/15/2015  04:48:00     -114.899       20.257      -11.811       31.835       28.525       15.837     1013.445      813.668      250.805        0.791        0.104      116.671       15.160        0.017      331.185       -0.964      869.233
01/15/2015  04:49:00     -120.426       -1.399      -12.239       33.789       26.793       17.854     1141.671      717.853      318.771        0.842        0.109      120.434       17.412        0.021      331.115       -1.078      869.199
01/15/2015  04:50:00     -120.738        4.124      -13.958       21.391       25.078       14.110      457.595      628.916      199.078        0.804        0.064      120.808       10.490        0.008      331.065       -1.160      869.179
01/15/2015  04:51:00     -154.382       -3.134      -20.442       26.382       18.220       13.873      695.995      331.980      192.456        1.274        0.061      154.414       11.237        0.005      331.052       -1.182      869.182
01/15/2015  04:52:00     -120.224       -1.464      -11.260       36.827       24.333       19.889     1356.204      592.095      395.591        0.846        0.117      120.233       19.126        0.025      331.022       -1.231      869.179
01/15/2015  04:53:00     -108.438       -7.419      -15.813       28.628       33.651       18.636      819.547     1132.357      347.290        0.718        0.115      108.692       13.700        0.016      331.036       -1.209      869.179
01/15/2015  04:54:00      -51.307      -35.009       -3.397       43.169       22.363       19.840     1863.580      500.098      393.640        0.331        0.138       62.113       16.805        0.073      330.977       -1.304      869.164
01/15/2015  04:55:00      -91.939      -55.403      -12.814       50.272       27.166       29.666     2527.265      737.993      880.074        0.792        0.207      107.342       30.705        0.082      330.966       -1.322      869.150
01/15/2015  04:56:00      -82.902      -36.370       -5.842       50.299       41.171       31.191     2529.981     1695.078      972.890        0.671        0.260       90.530       30.989        0.117      330.928       -1.385      869.148
01/15/2015  04:57:00     -114.229      -46.363      -12.517       31.424       32.920       17.490      987.475     1083.704      305.912        0.887        0.119      123.279        7.505        0.004      330.979       -1.302      869.163
01/15/2015  04:58:00     -112.982      -57.890      -12.136       27.487       30.356       17.513      755.510      921.487      306.719        0.912        0.099      126.949        8.947        0.005      330.923       -1.393      869.186
01/15/2015  04:59:00     -107.221      -22.520      -11.056       34.330       41.610       25.219     1178.531     1731.357      635.983        0.784        0.177      109.560        9.911        0.008      330.946       -1.355      869.204
01/15/2015  05:00:00      -63.465      -32.167        7.448       62.005       39.150       24.420     3844.575     1532.739      596.325        0.554        0.299       71.151       26.606        0.140      330.934       -1.376      869.203
01/15/2015  05:01:00     -101.328      -40.433      -10.814       45.784       21.990       17.245     2096.159      483.575      297.397        0.745        0.144      109.097       11.640        0.011      330.924       -1.390      869.170
01/15/2015  05:02:00      -64.693      -33.706       -0.537       23.619       22.422       15.909      557.843      502.754      253.083        0.332        0.066       72.947        9.950        0.019      330.976       -1.306      869.125
01/15/2015  05:03:00      -70.753      -29.952       -3.203       34.057       20.347       14.100     1159.875      413.994      198.806        0.384        0.089       76.831       15.763        0.042      331.016       -1.243      869.102
01/15/2015  05:04:00      -76.651      -50.593        1.017       32.522       30.112       16.036     1057.703      906.724      257.164        0.533        0.111       91.842       15.054        0.027      331.122       -1.067      869.094
01/15/2015  05:05:00     -116.109      -35.098      -12.673       25.733       22.243       14.876      662.202      494.741      221.304        0.813        0.069      121.298        9.771        0.006      331.014       -1.245      869.110
01/15/2015  05:06:00     -136.623      -46.294      -10.759       29.005       21.897       16.077      841.271      479.484      258.485        1.125        0.079      144.253       13.649        0.009      331.002       -1.263      869.119
01/15/2015  05:07:00     -119.176      -27.844       -8.247       44.947       33.267       25.228     2020.244     1106.695      636.445        0.940        0.188      122.386       29.594        0.058      330.910       -1.414      869.128
01/15/2015  05:08:00     -177.558        9.724      -15.688       32.357       22.193       14.392     1046.994      492.533      207.132        1.681        0.087      177.824        9.818        0.003      330.909       -1.415      869.152
01/15/2015  05:09:00     -184.004       -7.697      -17.788       22.510       26.862       16.925      506.713      721.577      286.461        1.787        0.076      184.165        8.541        0.002      330.921       -1.395      869.163
01/15/2015  05:10:00     -142.333      -21.592      -26.344       26.751       33.432       17.064      715.604     1117.711      291.189        1.177        0.106      143.961       11.963        0.007      330.909       -1.415      869.162
01/15/2015  05:11:00     -124.881      -10.795      -15.758       40.894       34.790       20.978     1672.320     1210.349      440.065        0.964        0.166      125.347       22.338        0.032      330.853       -1.508      869.173
01/15/2015  05:12:00     -101.984      -22.831        0.079       49.752       42.489       35.257     2475.264     1805.294     1243.060        0.822        0.276      104.508       31.876        0.093      330.863       -1.492      869.196
01/15/2015  05:13:00     -168.831      -34.650      -18.957       40.948       31.655       21.501     1676.737     1002.045      462.293        1.660        0.157      172.350       17.356        0.010      330.810       -1.580      869.231
01/15/2015  05:14:00      -84.449      -26.989       -6.191       60.109       47.293       23.389     3613.137     2236.613      547.027        0.715        0.320       88.656       29.299        0.109      330.755       -1.670      869.241
01/15/2015  05:15:00      -61.097      -17.383      -17.126       18.725       26.623       13.980      350.641      708.760      195.433        0.279        0.063       63.522        8.406        0.018      330.731       -1.709      869.235
01/15/2015  05:16:00      -37.476       -2.093       -0.828       23.107       23.764       16.557      533.922      564.742      274.119        0.139        0.069       37.534       19.067        0.258      330.795       -1.603      869.241
01/15/2015  05:17:00      -66.144      -40.227      -13.512       21.546       21.476       15.054      464.246      461.217      226.625        0.366        0.058       77.416       11.839        0.023      330.959       -1.336      869.262
01/15/2015  05:18:00     -115.541      -42.409      -14.847       27.326       25.901       19.447      746.712      670.876      378.171        0.858        0.090      123.078       11.603        0.009      330.955       -1.340      869.291
01/15/2015  05:19:00     -136.105      -30.733      -22.747       27.246       26.484       17.024      742.328      701.386      289.802        1.086        0.087      139.532        8.986        0.004      330.945       -1.356      869.325
01/15/2015  05:20:00     -107.808      -21.278       -8.181       32.697       32.463       17.270     1069.125     1053.823      298.248        0.728        0.121      109.887       14.368        0.017      330.927       -1.386      869.345
01/15/2015  05:21:00     -136.077       15.734      -20.015       28.590       30.973       20.738      817.387      959.357      430.066        1.069        0.110      136.984       15.710        0.013      330.892       -1.444      869.358
01/15/2015  05:22:00     -109.917      -14.123       -6.192       23.156       25.856       21.720      536.215      668.523      471.775        0.700        0.084      110.821       15.525        0.020      330.860       -1.495      869.369
01/15/2015  05:23:00      -77.651      -21.844       -6.063       23.748       34.699       19.178      563.987     1204.017      367.779        0.434        0.107       80.665       11.487        0.020      330.937       -1.370      869.366
01/15/2015  05:24:00      -80.569      -38.688        1.818       33.047       19.295       15.274     1092.135      372.301      233.301        0.484        0.085       89.376       12.582        0.020      330.897       -1.434      869.364
01/15/2015  05:25:00      -95.375      -38.217       -3.438       17.257       29.111       15.487      297.803      847.467      239.855        0.598        0.069      102.747       10.827        0.011      330.980       -1.300      869.357
01/15/2015  05:26:00      -55.181      -16.396        3.744       27.397       21.937       11.847      750.574      481.249      140.351        0.235        0.069       57.565       10.937        0.036      331.021       -1.233      869.365
01/15/2015  05:27:00      -23.598      -19.003        7.773       30.263       18.490       13.157      915.856      341.877      173.099        0.120        0.072       30.298       14.006        0.214      331.069       -1.156      869.374
01/15/2015  05:28:00        6.960       -9.103       15.934       10.164        9.308        9.976      103.313       86.637       99.527        0.034        0.014       11.459        8.776        0.586      331.141       -1.037      869.379
01/15/2015  05:29:00      -26.212       -9.748        0.313       17.436       14.447       10.814      304.009      208.721      116.940        0.071        0.031       27.966        7.172        0.066      331.165       -0.996      869.385
01/15/2015  05:30:00      -30.497       -9.207        1.904       15.284       18.152        9.634      233.613      329.491       92.817        0.084        0.033       31.856        7.726        0.059      331.156       -1.012      869.405
01/15/2015  05:31:00      -64.396       -2.294       -5.507       30.679       16.651       10.171      941.230      277.264      103.447        0.275        0.066       64.437        8.828        0.019      331.144       -1.030      869.441
01/15/2015  05:32:00      -92.725       -5.179       -2.279       21.569       18.045       14.812      465.232      325.638      219.409        0.482        0.051       92.870       10.770        0.013      331.019       -1.238      869.472
01/15/2015  05:33:00      -49.294       -3.208       -4.285       20.352       16.084       12.952      414.203      258.706      167.742        0.165        0.042       49.398       10.420        0.044      331.021       -1.234      869.469
01/15/2015  05:34:00       -6.055       12.670        1.419       13.280       12.112        8.275      176.347      146.711       68.482        0.030        0.020       14.042        5.221        0.138      330.983       -1.295      869.440
01/15/2015  05:35:00       12.020        0.975        4.973        8.777        9.074        7.828       77.028       82.344       61.277        0.020        0.011       12.059        3.932        0.106      330.992       -1.281      869.428
01/15/2015  05:36:00       -4.405       13.172        3.627       10.255        7.262        6.416      105.164       52.737       41.161        0.020        0.010       13.889        5.374        0.150      330.931       -1.381      869.448
01/15/2015  05:37:00      -42.489      -15.120       -1.590       21.387       12.372        8.842      457.383      153.065       78.183        0.136        0.034       45.099        2.699        0.004      331.058       -1.171      869.479
01/15/2015  05:38:00      -40.492      -13.743       -4.566       21.026       14.168        8.811      442.077      200.722       77.642        0.128        0.036       42.761        3.197        0.006      330.980       -1.299      869.481
01/15/2015  05:39:00       -9.336       -1.127       -3.704        6.672        3.891        5.335       44.521       15.143       28.459        0.010        0.004        9.404        5.222        0.308      331.000       -1.266      869.472
01/15/2015  05:40:00       -3.049       16.391        3.983        6.968       13.723        4.363       48.550      188.332       19.040        0.027        0.013       16.672        3.297        0.039      331.056       -1.177      869.465
01/15/2015  05:41:00      -11.860       10.817       -4.650        7.182        8.962        7.455       51.586       80.313       55.581        0.023        0.009       16.052        3.885        0.059      330.990       -1.283      869.477
01/15/2015  05:42:00      -13.577        2.863        0.883        8.138        5.110        6.779       66.223       26.115       45.949        0.017        0.007       13.875        5.848        0.178      331.000       -1.269      869.478
01/15/2015  05:43:00      -45.575       -1.223       -4.438       16.014       13.758        7.622      256.437      189.283       58.097        0.130        0.025       45.591        7.311        0.026      330.946       -1.357      869.465
01/15/2015  05:44:00      -71.896       -1.551       -4.314       15.819       12.186       10.011      250.238      148.509      100.213        0.284        0.025       71.912        9.612        0.018      330.927       -1.386      869.455
01/15/2015  05:45:00      -65.739       -6.619       -1.002       18.199       12.946       10.636      331.199      167.605      113.133        0.249        0.031       66.072        6.603        0.010      330.975       -1.309      869.456
01/15/2015  05:46:00      -92.076       -9.393       -5.971       30.262       15.814       11.739      915.789      250.083      137.799        0.495        0.065       92.554       15.735        0.029      330.962       -1.330      869.451
01/15/2015  05:47:00      -82.691      -10.410       -5.634       30.561       23.200       17.669      933.995      538.261      312.200        0.438        0.089       83.344       17.216        0.043      330.886       -1.454      869.464
01/15/2015  05:48:00      -82.619      -10.805        5.140       43.885       33.237       23.229     1925.904     1104.714      539.572        0.527        0.179       83.323       24.814        0.089      330.799       -1.596      869.472
01/15/2015  05:49:00     -142.230      -18.760       -5.893       28.347       31.679       21.027      803.544     1003.575      442.151        1.143        0.112      143.462       13.920        0.009      330.784       -1.621      869.468
01/15/2015  05:50:00     -120.478      -43.957       -0.941       37.774       19.366       14.767     1426.905      375.060      218.058        0.923        0.101      128.246       12.728        0.010      330.825       -1.554      869.457
01/15/2015  05:51:00      -83.718      -25.060        2.699       31.536       21.087       15.843      994.506      444.682      251.004        0.467        0.085       87.388        8.934        0.010      330.868       -1.483      869.464
01/15/2015  05:52:00      -49.631      -54.436        2.130       25.602       19.941       12.366      655.469      397.656      152.920        0.332        0.060       73.665        9.486        0.017      331.046       -1.192      869.459
01/15/2015  05:53:00      -61.867      -23.349       -0.679       18.435       23.865        9.165      339.867      569.519       84.002        0.268        0.050       66.127        9.670        0.021      331.052       -1.182      869.454
01/15/2015  05:54:00      -37.095      -10.628        5.454       17.446       17.165       11.293      304.369      294.643      127.522        0.112        0.036       38.588       12.915        0.112      331.054       -1.178      869.449
01/15/2015  05:55:00      -20.878      -16.302       -1.120       19.372       15.262        8.082      375.281      232.933       65.323        0.069        0.034       26.489        5.567        0.044      331.068       -1.156      869.460
01/15/2015  05:56:00      -73.931        2.116       -6.954       26.564       11.612        7.788      705.652      134.842       60.658        0.321        0.045       73.961       10.569        0.020      330.992       -1.281      869.479
01/15/2015  05:57:00      -87.707       -2.211      -10.508       22.481       12.687       11.380      505.404      160.968      129.511        0.430        0.040       87.735        9.885        0.013      330.932       -1.376      869.506
01/15/2015  05:58:00      -91.610        7.296       -6.599       13.750       15.089       10.163      189.066      227.689      103.294        0.450        0.026       91.900        6.035        0.004      330.972       -1.312      869.530
01/15/2015  05:59:00     -111.226      -13.307      -11.168       21.535       16.604       11.618      463.735      275.691      134.985        0.677        0.044      112.019        8.915        0.006      330.989       -1.284      869.524
01/15/2015  06:00:00      -91.471        5.538       -6.800       29.164       31.022       17.290      850.538      962.340      298.939        0.528        0.106       91.638       16.063        0.031      330.896       -1.435      869.517
01/15/2015  06:01:00      -85.332      -16.691       -2.476       34.233       38.976       25.460     1171.900     1519.108      648.188        0.545        0.167       86.949       24.712        0.081      330.853       -1.507      869.528
01/15/2015  06:02:00     -117.593      -37.188       -8.195       31.801       27.488       16.546     1011.275      755.615      273.758        0.866        0.102      123.333       12.091        0.010      330.777       -1.632      869.562
01/15/2015  06:03:00     -120.657       -7.885      -11.873       49.126       29.419       18.312     2413.383      865.464      335.322        0.919        0.181      120.914       19.504        0.026      330.775       -1.637      869.598
01/15/2015  06:04:00     -143.325       -4.831      -12.179       33.354       29.464       17.768     1112.488      868.104      315.710        1.150        0.115      143.407       15.323        0.011      330.758       -1.666      869.627
01/15/2015  06:05:00     -138.445       31.572      -14.190       40.055       30.424       21.550     1604.442      925.628      464.419        1.168        0.150      141.999       20.420        0.021      330.791       -1.611      869.626
01/15/2015  06:06:00      -81.946       36.637       -4.099       26.522       20.446       20.301      703.428      418.047      412.147        0.480        0.077       89.763       15.897        0.031      330.883       -1.458      869.601
01/15/2015  06:07:00      -86.308       35.676      -10.349       27.676       28.468       15.585      765.944      810.428      242.878        0.532        0.091       93.391       16.653        0.032      330.967       -1.321      869.560
01/15/2015  06:08:00      -25.121        6.066       -7.110       13.985       16.445        9.871      195.571      270.427       97.428        0.064        0.028       25.843        9.280        0.129      330.977       -1.305      869.528
01/15/2015  06:09:00      -55.970      -26.957       -6.021       24.979       15.250       14.046      623.937      232.560      197.293        0.247        0.053       62.124       13.859        0.050      331.024       -1.228      869.526
01/15/2015  06:10:00      -98.490      -35.065       -9.585       16.590       22.669       13.839      275.233      513.862      191.509        0.600        0.049      104.546        8.802        0.007      330.882       -1.461      869.550
01/15/2015  06:11:00      -70.362       19.547       -5.473       47.121       29.469       21.209     2220.435      868.429      449.809        0.445        0.177       73.027       19.730        0.073      330.737       -1.699      869.567
01/15/2015  06:12:00      -47.164       41.816      -10.771       17.209       19.678        9.492      296.161      387.214       90.107        0.243        0.039       63.032        4.764        0.006      331.027       -1.222      869.570
01/15/2015  06:13:00       25.077       24.535        5.319       16.114       19.953       16.443      259.674      398.112      270.380        0.109        0.046       35.083       13.194        0.141      331.089       -1.120      869.575
01/15/2015  06:14:00       30.839       25.465       -6.304       16.734       12.831        7.645      280.011      164.641       58.440        0.107        0.025       39.994        7.380        0.034      330.916       -1.404      869.596
01/15/2015  06:15:00       18.127       14.541       -8.225        7.267       15.476        7.592       52.811      239.519       57.638        0.048        0.017       23.239        7.448        0.103      330.915       -1.406      869.626
01/15/2015  06:16:00       16.586       21.088       -2.545        8.821       16.673        5.411       77.813      277.984       29.284        0.056        0.019       26.829        4.706        0.031      330.975       -1.308      869.644
01/15/2015  06:17:00       18.633       29.030       -4.604        7.570       13.672        6.372       57.301      186.917       40.600        0.075        0.014       34.496        3.470        0.010      331.000       -1.267      869.638
01/15/2015  06:18:00       18.348       34.099       -6.374       10.101       14.615        7.821      102.040      213.606       61.161        0.096        0.019       38.721        8.690        0.050      331.052       -1.182      869.632
01/15/2015  06:19:00       15.649        7.887       -2.936        6.750       14.339        8.731       45.560      205.605       76.228        0.032        0.016       17.525        7.126        0.165      331.014       -1.247      869.637
01/15/2015  06:20:00       31.576       12.733       -2.834        9.716        8.904        4.292       94.410       79.284       18.418        0.068        0.010       34.047        2.696        0.006      330.992       -1.280      869.639
01/15/2015  06:21:00       52.495       25.669        3.597        8.666        7.968        5.879       75.102       63.481       34.559        0.180        0.009       58.435        3.112        0.003      331.039       -1.202      869.640
01/15/2015  06:22:00       60.758       37.801        6.364       13.010       12.080        9.251      169.259      145.919       85.573        0.278        0.020       71.558        6.885        0.009      331.040       -1.202      869.656
01/15/2015  06:23:00       45.162       41.965        5.461       20.663       15.560       13.037      426.951      242.127      169.957        0.233        0.042       61.650        9.835        0.025      331.075       -1.144      869.691
01/15/2015  06:24:00       33.222       32.084       -7.116       22.937       22.794       11.671      526.121      519.565      136.221        0.168        0.059       46.185       10.301        0.050      331.189       -0.957      869.732
01/15/2015  06:25:00       23.086       47.524       -6.891       11.327       17.969        8.431      128.303      322.897       71.078        0.168        0.026       52.835        6.987        0.017      331.262       -0.837      869.775
01/15/2015  06:26:00       26.295       33.383        1.894       10.559       13.071       12.561      111.483      170.841      157.774        0.112        0.022       42.495       11.255        0.070      331.305       -0.764      869.812
01/15/2015  06:27:00       25.642       28.337       -0.268       16.115       11.003       10.426      259.688      121.075      108.693        0.097        0.024       38.217        8.554        0.050      331.325       -0.732      869.823
01/15/2015  06:28:00       16.901       24.078       -1.833       20.920       10.798        7.061      437.648      116.599       49.855        0.074        0.030       29.417        8.973        0.093      331.391       -0.625      869.824
01/15/2015  06:29:00       11.889       27.322       -2.515        7.348       12.664        7.652       53.997      160.376       58.553        0.058        0.014       29.797        8.053        0.073      331.365       -0.665      869.836
01/15/2015  06:30:00        8.180       34.835       -3.142        6.608       11.545        3.732       43.663      133.291       13.924        0.074        0.010       35.783        2.226        0.004      331.381       -0.637      869.850
01/15/2015  06:31:00       16.518       66.172       -9.026        8.641       13.309        5.437       74.674      177.121       29.564        0.251        0.014       68.202        5.267        0.006      331.355       -0.682      869.867
01/15/2015  06:32:00       22.000       87.552      -17.155       12.416       14.135        9.707      154.160      199.804       94.232        0.445        0.022       90.273        7.584        0.007      331.343       -0.705      869.872
01/15/2015  06:33:00       26.654      119.722      -22.532        9.679       12.786       10.909       93.675      163.493      118.997        0.796        0.019      122.653        5.546        0.002      331.298       -0.776      869.862
01/15/2015  06:34:00       27.496       79.126      -11.489       21.634       33.284       17.096      468.034     1107.794      292.269        0.451        0.093       83.767       16.662        0.040      331.098       -1.105      869.863
01/15/2015  06:35:00       13.789       24.720        5.028       21.765       25.072       18.635      473.699      628.604      347.281        0.114        0.072       28.305       17.312        0.374      330.986       -1.290      869.876
01/15/2015  06:36:00       40.422       38.008       -0.613       26.967       23.773       21.169      727.245      565.152      448.137        0.241        0.087       55.485       17.464        0.099      330.977       -1.306      869.891
01/15/2015  06:37:00       46.939       35.086        3.639       23.474       18.251       13.372      551.034      333.095      178.812        0.226        0.053       58.603        9.427        0.026      330.926       -1.388      869.902
01/15/2015  06:38:00       52.726       44.764        0.893       25.097       16.213       12.917      629.855      262.856      166.854        0.292        0.053       69.165       11.437        0.027      330.922       -1.394      869.909
01/15/2015  06:39:00       40.427       53.745       -0.710       19.112       27.368       22.284      365.259      749.007      496.574        0.307        0.081       67.252       15.093        0.050      330.881       -1.462      869.907
01/15/2015  06:40:00       24.842       48.050       -3.299       20.839       27.300       16.300      434.272      745.266      265.699        0.219        0.072       54.092       14.611        0.073      330.863       -1.492      869.894
01/15/2015  06:41:00       31.164       36.763       -2.972       26.116       26.882       18.830      682.031      722.639      354.566        0.205        0.088       48.194       16.393        0.116      330.901       -1.429      869.885
01/15/2015  06:42:00       47.463       26.811        6.214       17.420       11.864       13.019      303.449      140.743      169.487        0.181        0.031       54.513        7.952        0.021      330.924       -1.393      869.870
01/15/2015  06:43:00       51.635       17.898        8.548       15.521       11.494       11.776      240.903      132.109      138.673        0.179        0.026       54.649        7.887        0.021      330.935       -1.373      869.858
01/15/2015  06:44:00       50.205       23.706       12.901       16.895       15.798       16.668      285.431      249.564      277.816        0.203        0.041       55.521        9.672        0.030      330.946       -1.356      869.849
01/15/2015  06:45:00       51.217       12.920        4.423        9.556       11.084        9.652       91.314      122.855       93.153        0.156        0.015       52.822        5.183        0.010      330.968       -1.319      869.846
01/15/2015  06:46:00       54.142       -0.316        3.592       14.253       10.841        9.722      203.148      117.518       94.519        0.168        0.021       54.143        8.632        0.025      331.038       -1.205      869.848
01/15/2015  06:47:00       25.642       12.622       15.670       20.754       15.402       16.818      430.723      237.207      282.846        0.101        0.048       28.581       13.830        0.234      331.008       -1.252      869.848
01/15/2015  06:48:00       -0.743        3.116       26.256       18.499       20.715       10.453      342.231      429.109      109.260        0.079        0.044        3.203       10.952       11.692      330.983       -1.295      869.855
01/15/2015  06:49:00      -11.947       -3.930       23.141       13.078       27.394       16.287      171.041      750.408      265.268        0.094        0.059       12.577       11.401        0.822      331.086       -1.128      869.859
01/15/2015  06:50:00      -26.154      -12.344       -4.449       23.465       15.034       13.242      550.586      226.013      175.359        0.090        0.048       28.921        7.872        0.074      330.948       -1.353      869.863
01/15/2015  06:51:00      -46.099      -11.480        0.141       32.401       13.088       11.668     1049.854      171.293      136.132        0.181        0.068       47.507       13.683        0.083      330.798       -1.598      869.862
01/15/2015  06:52:00      -65.042       -0.520       -3.550       22.046       12.448       10.543      486.044      154.959      111.164        0.250        0.038       65.044       12.300        0.036      330.820       -1.562      869.865
01/15/2015  06:53:00      -45.445       -6.690       -3.728       16.173       10.733        5.956      261.574      115.195       35.478        0.127        0.021       45.935        3.742        0.007      330.886       -1.454      869.866
01/15/2015  06:54:00      -68.151      -24.698       -5.059       19.528       16.999       12.634      381.345      288.978      159.626        0.305        0.041       72.489       10.960        0.023      330.793       -1.607      869.872
01/15/2015  06:55:00      -85.749      -12.535       -6.845       23.959       17.098       10.900      574.052      292.330      118.817        0.427        0.049       86.660       12.457        0.021      330.754       -1.672      869.885
01/15/2015  06:56:00      -65.930      -13.599       -1.196       27.839       18.827       13.890      774.987      354.462      192.930        0.293        0.066       67.318       10.815        0.026      330.786       -1.619      869.896
01/15/2015  06:57:00      -34.749      -16.616        5.716       18.966       18.545       13.886      359.704      343.907      192.833        0.121        0.045       38.517        7.970        0.043      330.727       -1.715      869.910
01/15/2015  06:58:00      -19.135      -27.036       -1.242       27.937       13.602       14.983      780.488      185.007      224.497        0.114        0.059       33.123       11.912        0.129      330.851       -1.512      869.906
01/15/2015  06:59:00      -14.566       -9.151        3.128       19.060       11.897       13.219      363.269      141.527      174.745        0.049        0.034       17.202        3.240        0.035      330.833       -1.542      869.913
01/15/2015  07:00:00      -19.416       -7.986        8.269       20.831       22.260       20.205      433.929      495.522      408.240        0.092        0.067       20.994       15.017        0.512      330.875       -1.471      869.920
01/15/2015  07:01:00       -4.116      -11.948        7.277       26.138       30.936       18.696      683.213      957.025      349.555        0.110        0.099       12.638       18.886        2.233      330.931       -1.378      869.927
01/15/2015  07:02:00      -35.431      -22.634       -3.742       36.290       30.955       28.161     1316.976      958.223      793.018        0.242        0.153       42.043       14.264        0.115      330.967       -1.322      869.943
01/15/2015  07:03:00      -19.304        5.197        3.599       24.447       27.090       17.636      597.645      733.870      311.018        0.103        0.082       19.991       15.953        0.637      330.951       -1.347      869.955
01/15/2015  07:04:00      -11.193        1.840        9.794       33.111       11.466       17.738     1096.358      131.474      314.626        0.088        0.077       11.343       11.708        1.065      330.935       -1.373      869.968
01/15/2015  07:05:00      -19.184      -15.684        5.127       25.900       25.212       16.360      670.789      635.639      267.664        0.111        0.079       24.780       14.736        0.354      331.032       -1.214      869.963
01/15/2015  07:06:00        5.179       -6.311        5.604       19.493       16.020       16.817      379.966      256.641      282.806        0.051        0.046        8.164        9.208        1.272      331.032       -1.214      869.965
01/15/2015  07:07:00       12.627        0.330       16.212       21.836       31.062       20.626      476.821      964.837      425.423        0.114        0.093       12.631       17.452        1.909      331.046       -1.191      869.990
01/15/2015  07:08:00      -27.745      -21.475       11.530       55.028       29.334       23.095     3028.061      860.468      533.385        0.289        0.221       35.085       23.783        0.459      330.955       -1.340      870.022
01/15/2015  07:09:00       -2.435       13.861        4.460       21.693       22.086       16.401      470.598      487.778      268.981        0.072        0.061       14.073        6.087        0.187      330.952       -1.346      870.034
01/15/2015  07:10:00       25.246       43.241       -0.014       27.465       33.383       30.268      754.340     1114.396      916.170        0.265        0.139       50.072       23.435        0.219      330.977       -1.306      870.023
01/15/2015  07:11:00       -5.460       26.393       53.845       16.213       20.948       19.590      262.854      438.827      383.758        0.236        0.054       26.951       15.148        0.316      330.945       -1.357      870.002
01/15/2015  07:12:00      -10.148      -30.619       24.562       25.217       31.361       22.016      635.892      983.505      484.693        0.187        0.105       32.257       20.103        0.388      331.156       -1.011      869.983
01/15/2015  07:13:00       25.323      -35.990       13.911       24.104       53.985       25.950      581.009     2914.433      673.422        0.315        0.208       44.006       26.736        0.369      331.163       -0.999      869.978
01/15/2015  07:14:00       -5.628       12.307       41.289       13.793       31.884       15.963      190.258     1016.576      254.817        0.167        0.073       13.533       17.725        1.716      331.027       -1.222      869.984
01/15/2015  07:15:00      -24.501       -4.011        5.353       17.394       15.795       16.072      302.560      249.473      258.317        0.073        0.041       24.827        4.219        0.029      331.022       -1.233      869.986
01/15/2015  07:16:00      -37.838        5.294      -14.530       14.065       20.110       11.126      197.816      404.413      123.788        0.120        0.036       38.207        8.103        0.045      330.912       -1.410      869.981
01/15/2015  07:17:00      -18.605      -14.346       -2.462       22.325       30.036       14.554      498.398      902.189      211.807        0.108        0.081       23.494       12.606        0.288      330.932       -1.377      869.980
01/15/2015  07:18:00      -27.890        1.435        5.423       27.229       30.549       21.902      741.409      933.240      479.714        0.148        0.108       27.927        8.683        0.097      331.008       -1.257      869.980
01/15/2015  07:19:00      -58.311      -35.931        5.793       37.416       28.794       18.533     1399.935      829.109      343.490        0.365        0.129       68.492       12.308        0.032      331.033       -1.213      869.998
01/15/2015  07:20:00       -6.024       -4.374       10.364       41.326       27.094       24.660     1707.830      734.062      608.120        0.161        0.153        7.445       18.119        5.923      331.001       -1.267      870.010
01/15/2015  07:21:00      -55.986      -27.818      -12.910       41.494       28.038       21.325     1721.778      786.132      454.755        0.352        0.148       62.516       16.779        0.072      330.978       -1.304      869.996
01/15/2015  07:22:00       -6.081       19.183        6.486       21.148       18.746       15.779      447.248      351.424      248.968        0.075        0.052       20.124        7.508        0.139      330.977       -1.304      869.978
01/15/2015  07:23:00      -36.157        0.069        1.593       26.893       19.109       14.344      723.254      365.161      205.740        0.130        0.065       36.157        8.416        0.054      330.937       -1.371      869.973
01/15/2015  07:24:00      -22.911       16.802        4.202       18.496       15.801       13.174      342.104      249.676      173.556        0.079        0.038       28.412       10.919        0.148      330.863       -1.490      869.966
01/15/2015  07:25:00      -18.812        8.199        0.716       22.750       22.627       14.250      517.568      511.994      203.050        0.083        0.062       20.521        7.764        0.143      330.775       -1.637      869.970
01/15/2015  07:26:00      -45.745      -24.412        0.509       27.812       29.025       13.872      773.488      842.459      192.420        0.225        0.090       51.851       11.945        0.053      330.681       -1.790      869.969
01/15/2015  07:27:00      -61.786      -21.175       -0.069       29.443       21.573       13.888      866.863      465.398      192.875        0.290        0.076       65.314       13.839        0.045      330.620       -1.890      869.972
01/15/2015  07:28:00      -76.806      -25.967       -0.940       21.783       29.951       12.793      474.493      897.086      163.659        0.405        0.077       81.077       10.497        0.017      330.700       -1.761      869.960
01/15/2015  07:29:00     -105.996       14.523       -9.275       18.024       12.719       10.885      324.851      161.761      118.487        0.607        0.030      106.986        8.470        0.006      330.739       -1.696      869.928
01/15/2015  07:30:00      -90.423        6.204       -7.478       22.031       16.592       12.914      485.361      275.307      166.783        0.460        0.046       90.635        6.625        0.005      330.721       -1.724      869.907
01/15/2015  07:31:00      -72.167      -15.207       -9.421       25.649       19.774       18.448      657.885      391.017      340.334        0.346        0.069       73.752       16.269        0.049      330.714       -1.737      869.905
01/15/2015  07:32:00      -99.168      -22.022       -6.702       28.354       22.106       17.494      803.923      488.667      306.026        0.598        0.080      101.583       13.929        0.019      330.702       -1.757      869.922
01/15/2015  07:33:00     -124.806      -35.808      -12.704       24.376       20.356       16.779      594.194      414.350      281.522        0.915        0.065      129.842       14.799        0.013      330.656       -1.832      869.925
01/15/2015  07:34:00     -100.596      -40.231       -3.019       39.034       16.428       17.569     1523.623      269.882      308.668        0.692        0.105      108.342       17.574        0.026      330.699       -1.760      869.923
01/15/2015  07:35:00      -65.649      -39.870        9.374       37.596       29.444       21.384     1413.463      866.961      457.281        0.436        0.137       76.807       22.510        0.086      330.716       -1.732      869.914
01/15/2015  07:36:00      -56.404      -37.244        4.836       45.555       30.703       16.961     2075.291      942.683      287.659        0.395        0.165       67.590       20.223        0.090      330.775       -1.635      869.898
01/15/2015  07:37:00      -52.152      -26.726        4.985       18.595       23.998       12.535      345.769      575.910      157.133        0.227        0.054       58.601        9.037        0.024      330.873       -1.474      869.870
01/15/2015  07:38:00      -63.926      -22.933        1.698       21.642       19.345       13.261      468.380      374.216      175.862        0.282        0.051       67.915        9.592        0.020      330.877       -1.469      869.826
01/15/2015  07:39:00      -48.640      -22.887        2.092       20.953       21.910       13.945      439.034      480.045      194.472        0.200        0.056       53.756        9.269        0.030      330.867       -1.486      869.789
01/15/2015  07:40:00      -48.792      -39.880        0.903       29.892       23.073       15.542      893.512      532.380      241.540        0.282        0.083       63.017        5.070        0.006      330.884       -1.458      869.774
01/15/2015  07:41:00      -38.282      -33.322        4.343       42.460       27.266       18.676     1802.857      743.454      348.799        0.274        0.145       50.753       20.709        0.166      330.925       -1.391      869.762
01/15/2015  07:42:00      -65.585      -37.659       10.028       48.820       25.278       19.796     2383.421      638.991      391.894        0.462        0.171       75.628       19.472        0.066      330.881       -1.462      869.750
01/15/2015  07:43:00      -43.449      -22.168        6.325       39.353       25.840       17.026     1548.650      667.703      289.886        0.246        0.125       48.777       15.589        0.102      330.920       -1.398      869.743
01/15/2015  07:44:00      -50.845      -41.334        5.168       30.996       21.567       16.345      960.779      465.148      267.164        0.301        0.085       65.527       13.872        0.045      330.935       -1.373      869.731
01/15/2015  07:45:00      -96.652      -40.432       -0.423       25.936       19.299       13.896      672.671      372.463      193.093        0.611        0.062      104.768       12.102        0.013      330.972       -1.314      869.705
01/15/2015  07:46:00      -74.165      -55.826       -9.306       25.696       17.414       17.989      660.304      303.233      323.617        0.500        0.064       92.828       17.155        0.034      331.007       -1.255      869.681
01/15/2015  07:47:00      -79.600       -7.959       -2.419       24.947       21.199       13.970      622.367      449.392      195.151        0.384        0.063       79.997        9.532        0.014      330.868       -1.484      869.664
01/15/2015  07:48:00      -81.613      -13.063        2.277       32.889       31.901       20.112     1081.675     1017.680      404.480        0.467        0.125       82.652       18.828        0.052      330.800       -1.595      869.662
01/15/2015  07:49:00      -89.539      -22.215       -0.360       28.254       26.814       19.229      798.274      718.985      369.736        0.520        0.094       92.254       13.037        0.020      330.730       -1.711      869.647
01/15/2015  07:50:00      -90.227      -25.581        3.479       50.518       26.149       21.472     2552.021      683.795      461.049        0.625        0.185       93.783       24.353        0.067      330.695       -1.768      869.661
01/15/2015  07:51:00     -118.957      -12.509       -2.878       47.802       36.219       22.232     2285.000     1311.828      494.282        0.920        0.205      119.612       22.177        0.034      330.598       -1.928      869.689
01/15/2015  07:52:00     -117.432        3.585       -0.845       50.410       32.342       26.300     2541.199     1046.015      691.708        0.904        0.214      117.487       29.155        0.062      330.593       -1.937      869.708
01/15/2015  07:53:00     -153.554       22.425       -5.780       50.991       32.323       22.431     2600.038     1044.763      503.134        1.413        0.207      155.183       23.527        0.023      330.559       -1.991      869.723
01/15/2015  07:54:00     -128.196       36.645      -10.828       48.015       26.462       17.357     2305.399      700.241      301.258        1.060        0.165      133.330       15.160        0.013      330.588       -1.943      869.731
01/15/2015  07:55:00     -141.695       15.095      -13.049       41.030       39.806       19.538     1683.471     1584.483      381.714        1.206        0.182      142.496       16.615        0.014      330.597       -1.929      869.723
01/15/2015  07:56:00     -142.351        4.932      -12.250       38.174       25.332       28.887     1457.223      641.711      834.443        1.169        0.147      142.437       19.280        0.018      330.653       -1.837      869.731
01/15/2015  07:57:00      -95.160       13.345       -8.607       51.585       24.942       21.670     2660.973      622.116      469.610        0.653        0.188       96.091       18.004        0.035      330.777       -1.634      869.727
01/15/2015  07:58:00     -154.469       20.009      -21.487       34.906       26.310       22.032     1218.457      692.216      485.392        1.356        0.120      155.759       16.221        0.011      330.867       -1.485      869.747
01/15/2015  07:59:00     -123.758       -8.621      -11.211       41.112       31.964       20.956     1690.220     1021.703      439.146        0.933        0.158      124.058       19.373        0.024      330.830       -1.547      869.760
01/15/2015  08:00:00     -137.089      -46.533      -13.133       30.149       27.036       17.858      908.988      730.948      318.912        1.154        0.098      144.771       17.595        0.015      330.831       -1.544      869.796
01/15/2015  08:01:00     -128.932      -40.268      -18.791       27.932       30.565       17.163      780.185      934.236      294.577        1.030        0.100      135.074       13.593        0.010      330.782       -1.625      869.815
01/15/2015  08:02:00      -61.139      -11.825       -2.456       50.405       24.829       19.526     2540.641      616.484      381.248        0.371        0.177       62.272       21.374        0.118      330.874       -1.473      869.836
01/15/2015  08:03:00     -118.266      -25.140       -3.744       39.221       27.688       22.014     1538.324      766.643      484.625        0.871        0.139      120.909       22.354        0.034      330.840       -1.531      869.843
01/15/2015  08:04:00      -87.325      -28.215       -4.254       24.385       24.285       17.785      594.607      589.763      316.313        0.497        0.075       91.770       14.070        0.024      330.877       -1.469      869.854
01/15/2015  08:05:00      -96.386       -3.201       -9.106       23.976       22.237       17.190      574.828      494.501      295.493        0.537        0.068       96.439       15.170        0.025      330.903       -1.426      869.847
01/15/2015  08:06:00      -97.576       11.944      -13.378       19.581       23.661       14.632      383.398      559.836      214.089        0.550        0.058       98.304       11.224        0.013      331.000       -1.268      869.855
01/15/2015  08:07:00      -95.598       10.034      -10.885       21.207       18.717       10.510      449.717      350.334      110.463        0.513        0.046       96.123        8.200        0.007      331.041       -1.201      869.853
01/15/2015  08:08:00      -94.429        3.116       -9.590       15.999       16.692       10.840      255.960      278.611      117.500        0.484        0.033       94.480        7.178        0.006      331.128       -1.057      869.835
01/15/2015  08:09:00      -70.442        4.404       -9.286       24.987       23.416       10.405      624.373      548.320      108.259        0.317        0.064       70.580        8.072        0.013      331.176       -0.977      869.803
01/15/2015  08:10:00      -69.497       11.397       -9.602       23.023       14.400        9.626      530.045      207.368       92.653        0.294        0.042       70.425       10.359        0.022      331.232       -0.885      869.773
01/15/2015  08:11:00      -79.246       22.360       -5.692       17.118       12.733       11.667      293.035      162.142      136.119        0.370        0.030       82.340        9.027        0.012      331.280       -0.806      869.761
01/15/2015  08:12:00      -85.338       12.388       -9.961       21.247       23.509       11.628      451.434      552.669      135.208        0.434        0.057       86.233        9.780        0.013      331.275       -0.814      869.776
01/15/2015  08:13:00     -140.519      -14.550      -12.668       31.326       20.775       14.950      981.318      431.590      223.512        1.088        0.082      141.270       12.117        0.007      331.235       -0.879      869.799
01/15/2015  08:14:00     -110.082      -39.959       -7.234       38.259       40.789       20.113     1463.752     1663.745      404.522        0.865        0.177      117.110       14.001        0.014      331.291       -0.787      869.823
01/15/2015  08:15:00      -95.946      -29.026       -7.154       39.489       26.073       19.015     1559.349      679.819      361.553        0.635        0.130      100.241       22.026        0.048      331.334       -0.719      869.825
01/15/2015  08:16:00      -54.747      -40.830        3.689       38.903       24.169       18.080     1513.416      584.158      326.897        0.355        0.121       68.296       19.876        0.085      331.441       -0.543      869.810
01/15/2015  08:17:00      -71.941      -37.238       -7.404       21.936       24.294       13.550      481.191      590.196      183.603        0.394        0.063       81.008       14.112        0.030      331.359       -0.675      869.793
01/15/2015  08:18:00      -31.739      -23.599       -2.693       25.362       14.269       12.954      643.226      203.608      167.797        0.129        0.051       39.551       14.156        0.128      331.481       -0.477      869.785
01/15/2015  08:19:00      -44.251        8.649       -9.350       17.069       30.378       11.990      291.355      922.840      143.761        0.174        0.068       45.089       12.217        0.073      331.449       -0.528      869.795
01/15/2015  08:20:00      -63.001       45.754       -7.244       19.345       23.881       11.462      374.243      570.309      131.367        0.360        0.054       77.862        3.324        0.002      331.472       -0.491      869.786
01/15/2015  08:21:00      -82.409       62.065      -18.027       13.165       24.781       12.934      173.308      614.075      167.278        0.596        0.048      103.167       10.814        0.011      331.481       -0.477      869.771
01/15/2015  08:22:00      -80.987       52.219      -15.879       14.310       22.618       12.376      204.763      511.586      153.154        0.520        0.043       96.362       11.344        0.014      331.474       -0.487      869.757
01/15/2015  08:23:00      -49.852        9.290       -8.623       13.898       11.730       10.310      193.157      137.591      106.304        0.154        0.022       50.710        8.333        0.027      331.543       -0.374      869.756
01/15/2015  08:24:00      -37.074       11.890        2.096       11.659       12.410       12.725      135.922      154.003      161.917        0.099        0.023       38.934        9.087        0.054      331.641       -0.211      869.740
01/15/2015  08:25:00       -2.771       31.268        0.235       13.860       38.828       12.543      192.101     1507.606      157.338        0.142        0.093       31.390       16.276        0.269      331.954        0.303      869.719
01/15/2015  08:26:00       -3.931       24.557       11.729       12.498       26.606       15.673      156.188      707.900      245.639        0.093        0.055       24.870       10.853        0.190      332.143        0.614      869.717
01/15/2015  08:27:00        1.444       13.432        7.439       17.620       18.692       20.238      310.462      349.386      409.569        0.065        0.053       13.510       17.280        1.636      332.088        0.523      869.719
01/15/2015  08:28:00       -8.218        6.201        8.154       11.498       17.587       13.038      132.213      309.298      169.998        0.039        0.031       10.295       11.229        1.190      332.227        0.753      869.723
01/15/2015  08:29:00       -4.968       22.761        0.122       15.624       20.957       13.524      244.107      439.213      182.901        0.070        0.043       23.297       11.934        0.262      332.038        0.440      869.724
01/15/2015  08:30:00      -13.272       24.128       -6.526       15.215       18.794       16.093      231.510      353.215      258.986        0.082        0.042       27.537       12.459        0.205      332.045        0.453      869.732
01/15/2015  08:31:00      -16.450      -16.502        9.699       17.249       16.712       12.801      297.530      279.303      163.854        0.069        0.037       23.301       10.414        0.200      332.154        0.633      869.740
01/15/2015  08:32:00       34.007       22.697       16.968       18.684       12.963       21.525      349.101      168.028      463.329        0.147        0.049       40.885        8.442        0.043      331.979        0.344      869.756
01/15/2015  08:33:00       29.996       24.829        2.754       21.415       16.320       15.370      458.598      266.326      236.241        0.124        0.048       38.939        4.163        0.011      332.014        0.401      869.777
01/15/2015  08:34:00       48.434       -5.034        0.164       17.984       27.944       18.235      323.433      780.849      332.507        0.190        0.072       48.695       15.695        0.104      332.019        0.409      869.789
01/15/2015  08:35:00       14.541       12.587       39.624       22.541       34.371       23.544      508.118     1181.374      554.335        0.209        0.112       19.232       24.883        1.674      332.398        1.034      869.774
01/15/2015  08:36:00       37.162       52.997       19.258       38.302       23.802       34.782     1467.029      566.542     1209.821        0.390        0.162       64.728       28.364        0.192      332.140        0.610      869.747
01/15/2015  08:37:00       57.187       47.968        0.905       25.911       19.405       23.699      671.385      376.547      561.628        0.359        0.080       74.641       15.245        0.042      332.147        0.620      869.727
01/15/2015  08:38:00       68.913       58.591       25.639       22.746       28.025       28.228      517.373      785.375      796.833        0.547        0.105       90.453       14.595        0.026      332.151        0.628      869.716
01/15/2015  08:39:00       35.608       91.415       88.347       45.463       34.736       30.259     2066.861     1206.602      915.610        1.081        0.209       98.105       30.317        0.095      332.155        0.634      869.708
01/15/2015  08:40:00       15.961       68.788       76.980       36.044       36.189       30.204     1299.155     1309.640      912.308        0.722        0.176       70.616       26.529        0.141      332.263        0.813      869.707
01/15/2015  08:41:00       68.905       69.999       58.239       37.147       30.856       33.802     1379.897      952.087     1142.583        0.826        0.174       98.223       27.141        0.076      332.058        0.475      869.703
01/15/2015  08:42:00       75.432       53.281       21.030       21.702       17.556       21.527      470.995      308.196      463.414        0.511        0.062       92.352        8.744        0.009      331.988        0.358      869.689
01/15/2015  08:43:00       49.964       57.237       48.175       38.196       32.774       24.090     1458.938     1074.153      580.306        0.560        0.156       75.977       19.782        0.068      332.137        0.603      869.668
01/15/2015  08:44:00       21.487       34.363       43.090       43.555       34.181       36.209     1897.038     1168.327     1311.106        0.394        0.219       40.527       32.880        0.658      332.292        0.860      869.673
01/15/2015  08:45:00        1.143       42.965       72.144       18.877       34.267       19.924      356.337     1174.242      396.973        0.449        0.096       42.980       18.203        0.179      332.444        1.110      869.670
01/15/2015  08:46:00       34.314       30.694       55.569       50.186       39.453       35.191     2518.679     1556.506     1238.433        0.526        0.266       46.039       40.133        0.760      332.354        0.962      869.668
01/15/2015  08:47:00       70.862       64.228       25.135       26.305       23.935       29.660      691.963      572.864      879.723        0.596        0.107       95.638       14.211        0.022      332.143        0.614      869.672
01/15/2015  08:48:00       56.352       62.087       70.615       32.560       28.018       18.465     1060.138      785.003      340.939        0.710        0.109       83.848       15.999        0.036      332.264        0.813      869.690
01/15/2015  08:49:00       13.366       51.574       58.953       30.296       32.241       24.802      917.863     1039.496      615.149        0.444        0.129       53.278       26.262        0.243      332.337        0.935      869.748
01/15/2015  08:50:00       19.785       14.174        1.998       29.794       24.165       30.634      887.689      583.935      938.440        0.150        0.121       24.338       22.683        0.869      332.264        0.813      869.794
01/15/2015  08:51:00       30.113        9.628       -0.762       10.390       13.481       15.145      107.948      181.743      229.371        0.076        0.026       31.614        4.118        0.017      332.094        0.534      869.802
01/15/2015  08:52:00       67.636       51.198       13.805       31.462       27.214       23.340      989.875      740.589      544.735        0.483        0.114       84.829       18.741        0.049      332.212        0.727      869.779
01/15/2015  08:53:00       46.842       57.984       37.861       38.324       30.774       35.745     1468.708      947.038     1277.670        0.534        0.185       74.540       21.826        0.086      332.431        1.090      869.755
01/15/2015  08:54:00       20.438       51.284       60.588       34.694       26.944       28.314     1203.679      725.960      801.657        0.472        0.137       55.207       21.581        0.153      332.528        1.249      869.752
01/15/2015  08:55:00       45.189       47.916       29.099       31.672       15.199       23.611     1003.108      231.022      557.463        0.349        0.090       65.863       12.915        0.038      332.362        0.974      869.763
01/15/2015  08:56:00       17.092       45.101       51.836       29.770       23.897       18.480      886.241      571.044      341.502        0.341        0.090       48.231       13.991        0.084      332.624        1.406      869.775
01/15/2015  08:57:00       37.998       28.962       -0.258       27.305       19.543       20.489      745.546      381.921      419.783        0.191        0.077       47.777       15.720        0.108      332.364        0.980      869.760
01/15/2015  08:58:00        0.123       39.306        1.658       21.956       30.223       23.542      482.047      913.425      554.237        0.175        0.097       39.306        9.646        0.060      332.621        1.403      869.741
01/15/2015  08:59:00       -0.822       -1.527       29.561       15.775       20.633       13.485      248.859      425.719      181.839        0.087        0.043        1.734       10.173       34.409      333.129        2.241      869.734
01/15/2015  09:00:00        4.391       18.198       51.824       29.131       30.048       14.837      848.608      902.881      220.134        0.250        0.099       18.720       14.782        0.624      333.048        2.108      869.761
01/15/2015  09:01:00       24.109       23.708       36.322       22.885       24.376       22.099      523.742      594.187      488.365        0.203        0.080       33.813       14.595        0.186      332.697        1.528      869.813
01/15/2015  09:02:00        9.472        9.290        8.058       15.179       21.649       19.374      230.407      468.659      375.364        0.066        0.054       13.267       17.830        1.806      332.730        1.584      869.853
01/15/2015  09:03:00       43.646       39.689        8.064       17.365       22.305       31.413      301.532      497.523      986.759        0.267        0.089       58.993       17.815        0.091      332.579        1.332      869.843
01/15/2015  09:04:00       45.276       23.359       -2.443       15.622       21.222       17.892      244.041      450.381      320.117        0.181        0.051       50.946       12.040        0.056      332.387        1.016      869.833
01/15/2015  09:05:00       44.594       37.342        3.446       16.200       15.976       21.897      262.451      255.232      479.485        0.220        0.050       58.164       10.913        0.035      332.421        1.073      869.850
01/15/2015  09:06:00        2.191        6.576       29.679       14.970       14.574        9.067      224.103      212.399       82.211        0.072        0.026        6.931        6.931        1.000      333.194        2.350      869.878
01/15/2015  09:07:00        9.591      -13.558        4.971       21.442       15.117       16.576      459.762      228.520      274.751        0.063        0.048       16.608        9.440        0.323      332.786        1.675      869.896
01/15/2015  09:08:00      -36.877       -1.961       -2.786       18.824        7.654       10.366      354.333       58.591      107.461        0.095        0.026       36.929        7.518        0.041      332.510        1.219      869.914
01/15/2015  09:09:00      -18.620        7.497       19.512       14.309       17.286       18.186      204.734      298.801      330.747        0.081        0.042       20.073       14.418        0.516      333.024        2.069      869.935
01/15/2015  09:10:00       -6.020        3.581       22.442        6.856       20.039       11.367       47.000      401.562      129.216        0.057        0.029        7.005       10.746        2.353      333.321        2.560      869.955
01/15/2015  09:11:00      -12.131       17.251       15.492       13.783       12.394       14.638      189.985      153.604      214.286        0.062        0.028       21.089        8.161        0.150      333.031        2.080      869.960
01/15/2015  09:12:00       37.189       51.560       43.219       47.358       33.993       35.148     2242.735     1155.537     1235.349        0.527        0.232       63.573       33.705        0.281      333.054        2.119      869.943
01/15/2015  09:13:00       40.546       49.975       50.858       48.693       27.825       20.185     2371.014      774.240      407.452        0.514        0.178       64.355       17.016        0.070      332.991        2.014      869.931
01/15/2015  09:14:00       26.201      -33.232       16.773       50.021       52.882       41.561     2502.057     2796.544     1727.328        0.455        0.351       42.319       43.672        1.065      332.970        1.980      869.935
01/15/2015  09:15:00       19.764      -22.233       13.747       27.513       34.541       22.982      756.962     1193.090      528.154        0.178        0.124       29.748       19.858        0.446      333.029        2.077      869.927
01/15/2015  09:16:00        5.648       21.779       53.725       26.057       51.646       25.842      678.955     2667.290      667.788        0.370        0.201       22.500       21.984        0.955      333.310        2.542      869.926
01/15/2015  09:17:00       19.163      -21.090       27.596       39.010       73.809       37.544     1521.814     5447.752     1409.566        0.497        0.419       28.496       50.113        3.093      333.010        2.046      869.927
01/15/2015  09:18:00       23.895        1.721       38.649       31.414       61.436       29.731      986.855     3774.349      883.938        0.386        0.282       23.956       35.014        2.136      333.089        2.175      869.911
01/15/2015  09:19:00       71.009       55.620       23.843       45.368       24.538       35.772     2058.265      602.112     1279.648        0.632        0.197       90.199       25.098        0.077      332.779        1.665      869.924
01/15/2015  09:20:00       54.598       60.659        8.608       34.976       23.730       30.749     1223.332      563.134      945.530        0.473        0.137       81.611       15.058        0.034      333.033        2.084      869.944
01/15/2015  09:21:00       58.313       59.594       51.580       44.589       28.911       26.179     1988.159      835.838      685.340        0.656        0.175       83.378       21.916        0.069      332.812        1.717      869.951
01/15/2015  09:22:00       38.668       54.861       36.479       48.519       40.991       48.430     2354.075     1680.303     2345.459        0.611        0.319       67.119       34.547        0.265      332.933        1.919      869.945
01/15/2015  09:23:00       86.082       72.249       55.340       25.471       28.775       29.981      648.787      827.972      898.875        0.903        0.119      112.384       14.907        0.018      332.709        1.547      869.957
01/15/2015  09:24:00       57.680       20.308       26.285       35.198       48.495       31.841     1238.903     2351.744     1013.870        0.452        0.230       61.151       22.696        0.138      332.766        1.642      869.989
01/15/2015  09:25:00        1.269       33.921       50.374       13.958       22.786       15.573      194.824      519.200      242.529        0.232        0.048       33.945        9.273        0.075      333.079        2.160      870.019
01/15/2015  09:26:00        1.074       15.576       34.489       20.044       30.864       29.611      401.773      952.593      876.810        0.183        0.112       15.613       28.726        3.385      333.055        2.119      870.041
01/15/2015  09:27:00      -17.565        4.242       23.014       11.555       15.581       17.886      133.509      242.776      319.912        0.078        0.035       18.070       14.367        0.632      333.174        2.314      870.059
01/15/2015  09:28:00       -3.489        5.623       23.182       18.399       14.841       15.338      338.538      220.258      235.256        0.069        0.040        6.617       14.232        4.626      333.361        2.625      870.066
01/15/2015  09:29:00       -0.479       -3.474        7.662       17.728       14.127       18.166      314.292      199.565      330.002        0.046        0.042        3.507       12.848       13.418      333.184        2.334      870.073
01/15/2015  09:30:00       10.503       21.526       31.445       14.364       14.226       12.734      206.329      202.383      162.167        0.107        0.029       23.951        8.497        0.126      333.269        2.473      870.083
01/15/2015  09:31:00       17.808       30.819       37.899       25.115       15.221       12.954      630.769      231.678      167.796        0.187        0.052       35.594       12.880        0.131      333.148        2.274      870.089
01/15/2015  09:32:00       35.851       35.709        5.565       14.987       14.484       21.306      224.620      209.777      453.928        0.174        0.044       50.601        8.718        0.030      333.012        2.050      870.083
01/15/2015  09:33:00       21.330       43.440       34.898       24.798       17.748       18.245      614.962      314.987      332.874        0.241        0.063       48.394       13.949        0.083      333.303        2.529      870.083
01/15/2015  09:34:00       13.899       53.265       54.695       26.332       29.802       26.336      693.387      888.167      693.595        0.415        0.114       55.048       19.862        0.130      333.410        2.705      870.094
01/15/2015  09:35:00       28.584       60.981       65.177       29.337       37.310       25.249      860.651     1392.008      637.537        0.584        0.145       67.347       24.514        0.132      333.258        2.456      870.119
01/15/2015  09:36:00        0.323       21.929       44.366       22.784       42.623       22.099      519.110     1816.712      488.355        0.264        0.141       21.932       17.686        0.650      333.428        2.737      870.166
01/15/2015  09:37:00       32.548      -61.096       25.050       24.979       63.399       26.648      623.970     4019.372      710.124        0.539        0.268       69.225       30.834        0.198      333.244        2.432      870.187
01/15/2015  09:38:00       12.923       12.729       36.543       28.658       36.064       30.587      821.271     1300.630      935.553        0.236        0.153       18.139       20.426        1.268      333.396        2.684      870.197
01/15/2015  09:39:00       57.474       53.573       -4.337       48.101       27.999       26.963     2313.735      783.958      727.027        0.501        0.191       78.571        8.503        0.012      333.114        2.216      870.204
01/15/2015  09:40:00       70.986       65.063       -4.812       37.205       38.310       29.809     1384.188     1467.635      888.580        0.652        0.187       96.293       12.508        0.017      333.063        2.131      870.224
01/15/2015  09:41:00       38.042       45.278        5.059       36.859       27.139       24.222     1358.576      736.532      586.726        0.310        0.134       59.138       12.243        0.043      333.055        2.120      870.254
01/15/2015  09:42:00       50.236       47.687       11.185       45.703       30.840       19.709     2088.748      951.135      388.432        0.417        0.171       69.265       22.190        0.103      333.093        2.183      870.255
01/15/2015  09:43:00       75.756       67.987        8.926       54.092       32.774       28.403     2925.993     1074.143      806.728        0.762        0.240      101.790       18.819        0.034      332.999        2.028      870.256
01/15/2015  09:44:00        2.856       26.315        8.621       26.313       26.651       19.755      692.356      710.275      390.270        0.128        0.090       26.469       17.838        0.454      333.301        2.527      870.239
01/15/2015  09:45:00       49.979       77.598       -7.880       27.180       37.015       29.069      738.755     1370.104      845.015        0.577        0.148       92.300       28.628        0.096      333.099        2.192      870.242
01/15/2015  09:46:00       63.644       46.058       -0.786       31.342       25.642       22.639      982.301      657.534      512.520        0.416        0.108       78.561       14.702        0.035      333.080        2.161      870.235
01/15/2015  09:47:00       27.550       20.027        8.482       25.333       28.776       18.113      641.767      828.040      328.063        0.151        0.090       34.060        7.970        0.055      333.348        2.605      870.236
01/15/2015  09:48:00       51.297       78.465       -8.660       25.383       27.260       24.158      644.297      743.125      583.591        0.542        0.099       93.745       19.578        0.044      333.153        2.283      870.224
01/15/2015  09:49:00        6.176       38.625        3.262       23.038       15.351       21.430      530.745      235.667      459.257        0.138        0.061       39.116       19.839        0.257      333.363        2.628      870.201
01/15/2015  09:50:00        6.458        1.892       12.796       19.977       10.417       13.772      399.099      108.513      189.660        0.045        0.035        6.730        3.888        0.334      333.603        3.025      870.213
01/15/2015  09:51:00      -12.216       26.554        7.248       12.354       14.499       17.235      152.613      210.224      297.049        0.078        0.033       29.230       10.874        0.138      333.433        2.742      870.226
01/15/2015  09:52:00       27.864       31.436       -0.216       33.662       23.817       18.535     1133.133      567.257      343.533        0.190        0.102       42.007       14.503        0.119      333.492        2.841      870.226
01/15/2015  09:53:00       92.884       65.979       14.454       24.814       18.687       24.638      615.742      349.219      607.040        0.738        0.079      113.932       13.686        0.014      333.191        2.345      870.218
01/15/2015  09:54:00      104.557       63.572       -0.554       20.468       24.887       23.880      418.942      619.373      570.278        0.829        0.080      122.367       15.105        0.015      333.106        2.204      870.209
01/15/2015  09:55:00       86.655       49.362        1.512       27.150       21.822       18.704      737.142      476.185      349.849        0.576        0.078       99.728        8.751        0.008      333.195        2.351      870.227
01/15/2015  09:56:00       66.888       43.688       20.282       43.629       23.246       29.429     1903.498      540.360      866.045        0.505        0.165       79.892       27.061        0.115      333.282        2.494      870.241
01/15/2015  09:57:00       59.138       38.023       32.047       37.618       33.135       28.759     1415.080     1097.952      827.059        0.465        0.167       70.307       22.104        0.099      333.400        2.689      870.254
01/15/2015  09:58:00       58.483       60.007       56.489       48.032       34.183       30.611     2307.069     1168.506      937.047        0.731        0.221       83.792       28.183        0.113      333.415        2.715      870.260
01/15/2015  09:59:00       91.686       81.548       45.741       35.826       23.975       33.578     1283.525      574.801     1127.511        1.007        0.149      122.704       22.461        0.034      333.198        2.356      870.251
01/15/2015  10:00:00       33.557       30.718       32.970       37.088       37.939       27.982     1375.485     1439.368      782.999        0.338        0.180       45.493       24.337        0.286      333.408        2.703      870.259
01/15/2015  10:01:00       41.974       19.436       -0.959       31.659       23.361       19.028     1002.309      545.724      362.062        0.202        0.096       46.255       14.314        0.096      333.379        2.654      870.283
01/15/2015  10:02:00       19.125        3.514        7.833       24.720       16.200       16.862      611.080      262.443      284.338        0.080        0.058       19.445       10.176        0.274      333.386        2.666      870.288
01/15/2015  10:03:00        3.816      -23.907       15.709       17.535       30.925       28.909      307.470      956.386      835.713        0.147        0.105       24.209        5.921        0.060      333.561        2.956      870.282
01/15/2015  10:04:00       14.410       53.009       62.017       28.462       28.676       15.481      810.105      822.302      239.671        0.437        0.094       54.933       12.997        0.056      333.563        2.959      870.297
01/15/2015  10:05:00       42.720       34.132       35.332       37.639       28.364       30.562     1416.724      804.501      934.012        0.370        0.158       54.681       26.082        0.228      333.315        2.549      870.306
01/15/2015  10:06:00       32.359       26.148       20.912       20.947       14.140       14.932      438.793      199.931      222.967        0.151        0.043       41.603        9.766        0.055      333.301        2.524      870.299
01/15/2015  10:07:00       49.837       25.993       10.511       25.199       19.348       23.062      635.006      374.345      531.853        0.241        0.077       56.208       10.561        0.035      333.393        2.677      870.286
01/15/2015  10:08:00       33.165       15.512        1.276       26.341       26.040       17.618      693.866      678.101      310.405        0.151        0.084       36.614       12.973        0.126      333.591        3.007      870.289
01/15/2015  10:09:00       28.652       22.252        7.375       21.840       17.050       24.106      476.992      290.692      581.117        0.136        0.067       36.278       14.782        0.166      333.670        3.137      870.294
01/15/2015  10:10:00       74.721       31.120       11.161       43.311       26.097       25.455     1875.885      681.076      647.977        0.494        0.160       80.943       20.491        0.064      333.547        2.933      870.297
01/15/2015  10:11:00       81.929       52.818       -0.184       47.572       28.860       25.097     2263.059      832.884      629.868        0.661        0.186       97.479       18.234        0.035      333.448        2.768      870.311
01/15/2015  10:12:00       88.421       37.117       21.216       46.112       33.666       35.515     2126.296     1133.367     1261.295        0.708        0.226       95.896       21.766        0.052      333.529        2.903      870.328
01/15/2015  10:13:00      101.940       66.964       -1.526       21.223       23.438       19.813      450.436      549.324      392.559        0.814        0.070      121.967       10.569        0.008      333.368        2.637      870.342
01/15/2015  10:14:00      102.965       98.686        5.595       18.835       31.088       27.168      354.768      966.491      738.124        1.122        0.103      142.621       19.681        0.019      333.324        2.563      870.334
01/15/2015  10:15:00       91.832       84.111       -8.215       26.868       29.026       26.965      721.869      842.501      727.087        0.893        0.115      124.530       22.487        0.033      333.386        2.666      870.331
01/15/2015  10:16:00       57.303       40.837       15.767       28.805       15.596       22.969      829.721      243.227      527.571        0.340        0.080       70.365       19.277        0.075      333.497        2.849      870.336
01/15/2015  10:17:00       43.555       53.722      -12.743       17.429       13.201       15.574      303.753      174.271      242.542        0.283        0.036       69.160       10.424        0.023      333.482        2.826      870.335
01/15/2015  10:18:00       29.858       53.916      -10.990       15.392       20.390       18.123      236.917      415.752      328.447        0.245        0.049       61.632       13.716        0.050      333.529        2.903      870.327
01/15/2015  10:19:00       21.272       33.936       -2.065       17.611       24.149       21.097      310.145      583.190      445.087        0.147        0.067       40.052       11.578        0.084      333.680        3.152      870.329
01/15/2015  10:20:00       46.186       24.880       -8.305       15.704       25.408       17.284      246.608      645.579      298.750        0.201        0.060       52.461       15.062        0.082      333.545        2.930      870.335
01/15/2015  10:21:00       47.585       17.526       10.789       17.667       14.495       14.993      312.131      210.108      224.786        0.172        0.037       50.710        8.372        0.027      333.683        3.159      870.336
01/15/2015  10:22:00       12.511       69.796       -7.603       21.292       42.079       32.025      453.354     1770.616     1025.601        0.417        0.162       70.909       26.672        0.141      333.807        3.364      870.313
01/15/2015  10:23:00        2.889       76.343        5.457       25.579       56.139       29.214      654.279     3151.558      853.441        0.526        0.233       76.397       30.408        0.158      334.041        3.751      870.277
01/15/2015  10:24:00       18.535       39.805       13.546       25.192       28.795       31.148      634.642      829.146      970.205        0.227        0.122       43.909       16.046        0.134      334.226        4.061      870.251
01/15/2015  10:25:00       42.442       29.684        8.558       34.192       24.710       22.243     1169.099      610.608      494.751        0.251        0.114       51.792       17.476        0.114      334.383        4.321      870.229
01/15/2015  10:26:00       56.755       68.219        6.876       43.622       29.248       29.207     1902.899      855.441      853.067        0.577        0.181       88.741       23.825        0.072      334.116        3.877      870.213
01/15/2015  10:27:00       56.375       76.787       13.378       52.800       54.334       43.346     2787.789     2952.220     1878.898        0.843        0.381       95.260       28.139        0.087      334.341        4.250      870.177
01/15/2015  10:28:00       71.517      110.066       29.472       70.245       38.148       60.483     4934.424     1455.237     3658.170        1.407        0.502      131.261       17.975        0.019      334.106        3.858      870.143
01/15/2015  10:29:00       48.324       77.328       22.021       33.077       41.164       31.178     1094.121     1694.451      972.092        0.628        0.188       91.186       16.015        0.031      334.391        4.333      870.127
01/15/2015  10:30:00       41.482       43.765       -1.875       27.151       43.694       25.546      737.171     1909.135      652.580        0.347        0.165       60.300       22.491        0.139      334.278        4.146      870.143
01/15/2015  10:31:00        5.954       22.990       27.265       26.306       24.632       22.271      691.982      606.716      495.979        0.155        0.090       23.748       16.233        0.467      334.600        4.680      870.134
01/15/2015  10:32:00       28.035       51.613       60.383       47.310       33.881       33.848     2238.253     1147.916     1145.665        0.581        0.227       58.735       31.427        0.286      334.486        4.490      870.136
01/15/2015  10:33:00       15.263       34.294       39.336       26.231       31.866       22.166      688.090     1015.426      491.315        0.258        0.110       37.537       10.828        0.083      334.784        4.986      870.128
01/15/2015  10:34:00       33.171       18.086       14.096       27.718       41.514       26.729      768.304     1723.380      714.434        0.242        0.160       37.782       18.855        0.249      334.615        4.705      870.121
01/15/2015  10:35:00       13.115       66.203       75.657       37.820       46.116       41.718     1430.366     2126.666     1740.373        0.779        0.265       67.490       30.619        0.206      334.613        4.700      870.103
01/15/2015  10:36:00       35.495      131.702      125.988       65.641       64.708       42.190     4308.700     4187.103     1780.019        2.238        0.514      136.402       41.900        0.094      334.200        4.012      870.069
01/15/2015  10:37:00      104.068       86.004       40.085       61.617       47.572       55.818     3796.711     2263.118     3115.644        1.450        0.459      135.007       49.395        0.134      334.026        3.727      870.052
01/15/2015  10:38:00       21.767       85.491       96.365       43.586       37.841       42.968     1899.770     1431.964     1846.231        1.112        0.259       88.219       34.959        0.157      334.339        4.247      870.053
01/15/2015  10:39:00      113.513       59.895       30.077       65.780       52.426       55.127     4326.943     2748.494     3039.018        1.374        0.506      128.346       42.009        0.107      334.337        4.243      870.068
01/15/2015  10:40:00      122.025        9.861       22.349       81.766       47.104       40.196     6685.750     2218.782     1615.709        1.300        0.526      122.423       33.529        0.075      334.362        4.283      870.086
01/15/2015  10:41:00       68.693       45.756       12.074       69.599       47.158       35.476     4844.055     2223.839     1258.518        0.764        0.416       82.536       27.790        0.113      334.548        4.594      870.089
01/15/2015  10:42:00       92.778       73.250       16.860       34.771       27.456       34.285     1209.038      753.844     1175.465        0.870        0.157      118.209       16.905        0.020      334.408        4.362      870.106
01/15/2015  10:43:00       90.216       63.251        2.259       41.629       27.212       32.655     1733.000      740.467     1066.344        0.784        0.177      110.180       20.369        0.034      334.438        4.411      870.122
01/15/2015  10:44:00       16.006       78.671       -9.884       25.410       41.094       24.558      645.652     1688.709      603.110        0.474        0.147       80.282       23.780        0.088      334.558        4.609      870.115
01/15/2015  10:45:00       54.052       72.016       30.210       47.327       52.205       38.639     2239.844     2725.363     1493.001        0.774        0.323       90.044       22.288        0.061      334.833        5.066      870.078
01/15/2015  10:46:00       78.613      111.373        8.000       62.999       44.996       34.088     3968.889     2024.626     1161.996        1.290        0.358      136.323       19.343        0.020      334.616        4.706      870.035
01/15/2015  10:47:00       28.631       60.419        2.612       39.177       60.778       35.265     1534.851     3694.000     1243.598        0.547        0.324       66.860       31.489        0.222      334.650        4.764      869.993
01/15/2015  10:48:00       54.789       69.936       41.920       49.225       43.265       51.641     2423.126     1871.866     2666.786        0.830        0.348       88.842       27.475        0.096      334.861        5.111      869.942
01/15/2015  10:49:00       85.742       60.564       28.842       47.656       42.171       39.395     2271.096     1778.407     1551.934        0.873        0.280      104.975       18.804        0.032      334.796        5.004      869.895
01/15/2015  10:50:00      130.752       92.985       24.558       56.467       47.999       43.030     3188.568     2303.894     1851.545        1.684        0.367      160.444       26.175        0.027      334.512        4.532      869.860
01/15/2015  10:51:00      125.406      101.261        6.896       38.893       35.064       38.922     1512.627     1229.461     1514.920        1.514        0.213      161.184       23.871        0.022      334.174        3.971      869.833
01/15/2015  10:52:00      101.734       89.148       51.710       52.256       49.072       58.511     2730.660     2408.042     3423.584        1.477        0.428      135.267       41.866        0.096      334.327        4.226      869.826
01/15/2015  10:53:00       67.240      111.136      103.748       59.412       54.631       50.164     3529.799     2984.590     2516.458        1.833        0.452      129.894       46.811        0.130      334.291        4.165      869.850
01/15/2015  10:54:00       50.538      -23.352       34.917       40.087       80.379       49.227     1606.997     6460.753     2423.271        0.740        0.525       55.672       55.199        0.983      334.468        4.461      869.874
01/15/2015  10:55:00       92.813       43.987       51.718       68.038       77.835       51.742     4629.204     6058.259     2677.184        1.329        0.668      102.709       49.754        0.235      334.534        4.568      869.865
01/15/2015  10:56:00      111.332       85.840       37.802       64.013       51.968       49.378     4097.659     2700.629     2438.197        1.521        0.462      140.582       25.837        0.034      334.475        4.471      869.864
01/15/2015  10:57:00       34.140        7.143       56.121       47.918       77.423       58.647     2296.139     5994.351     3439.439        0.805        0.586       34.880       62.828        3.245      334.854        5.100      869.865
01/15/2015  10:58:00       61.059       14.709       65.799       58.377      126.692       69.600     3407.819    16050.746     4844.095        1.628        1.215       62.806       85.068        1.835      334.777        4.974      869.852
01/15/2015  10:59:00      100.168       87.067       76.353       51.904       51.130       47.075     2694.007     2614.269     2216.048        1.548        0.376      132.718       35.924        0.073      334.474        4.470      869.859
01/15/2015  11:00:00      108.828       82.205       61.736       75.294       55.394       50.966     5669.149     3068.463     2597.532        1.687        0.567      136.386       43.417        0.101      334.434        4.402      869.850
01/15/2015  11:01:00      125.969      125.363       89.314       58.535       38.913       50.153     3426.327     1514.239     2515.373        2.351        0.373      177.719       42.172        0.056      334.236        4.074      869.836
01/15/2015  11:02:00       38.822       63.999       71.208       44.496       54.033       37.984     1979.907     2919.542     1442.784        0.851        0.317       74.853       35.847        0.229      334.600        4.681      869.833
01/15/2015  11:03:00       42.184       60.788       74.438       47.649       33.018       26.599     2270.456     1090.173      707.500        0.754        0.203       73.991       22.318        0.091      334.546        4.590      869.844
01/15/2015  11:04:00       56.000       63.672       47.537       34.361       29.473       36.263     1180.667      868.645     1314.993        0.641        0.168       84.795       23.065        0.074      334.666        4.790      869.857
01/15/2015  11:05:00       58.455       78.158       74.847       64.974       49.128       33.989     4221.634     2413.572     1155.264        1.146        0.390       97.599       18.023        0.034      334.715        4.871      869.846
01/15/2015  11:06:00       70.457       90.974        1.333       48.150       28.053       32.236     2318.376      786.956     1039.130        0.869        0.207      115.067       21.707        0.036      334.420        4.382      869.825
01/15/2015  11:07:00       95.208       73.882        5.034       53.621       37.077       43.217     2875.249     1374.738     1867.743        1.033        0.306      120.512       38.635        0.103      334.883        5.149      869.797
01/15/2015  11:08:00       39.430       74.452       79.868       53.297       62.088       44.080     2840.601     3854.908     1943.030        1.106        0.432       84.248       39.623        0.221      335.005        5.351      869.793
01/15/2015  11:09:00       42.588       76.799       97.689       56.837       73.019       38.146     3230.389     5331.814     1455.079        1.363        0.501       87.817       32.596        0.138      335.024        5.384      869.784
01/15/2015  11:10:00       86.436       85.493       59.533       43.132       36.292       37.076     1860.337     1317.123     1374.662        1.144        0.228      121.574       31.184        0.066      334.676        4.806      869.799
01/15/2015  11:11:00       68.504       32.962       35.358       40.548       40.106       32.957     1644.138     1608.517     1086.150        0.568        0.217       76.021       24.252        0.102      334.728        4.892      869.802
01/15/2015  11:12:00       85.951       56.416       38.425       52.719       50.397       36.199     2779.298     2539.864     1310.404        0.934        0.331      102.812        8.841        0.007      334.740        4.912      869.787
01/15/2015  11:13:00       57.755       94.585       77.794       71.781       54.898       45.096     5152.543     3013.825     2033.680        1.427        0.510      110.825       37.536        0.115      334.974        5.300      869.769
01/15/2015  11:14:00       25.435       76.582       79.608       53.791       65.783       57.254     2893.473     4327.370     3278.000        1.167        0.525       80.695       51.493        0.407      334.788        4.993      869.756
01/15/2015  11:15:00       19.235       30.274       35.330       39.625       51.275       36.684     1570.130     2629.096     1345.714        0.404        0.277       35.868       30.315        0.714      334.925        5.219      869.751
01/15/2015  11:16:00        9.585      -53.870        7.494       14.676       40.801       27.264      215.381     1664.756      743.312        0.284        0.131       54.716       28.859        0.278      334.845        5.087      869.729
01/15/2015  11:17:00       65.352       52.052       25.571       48.157       30.209       38.965     2319.078      912.598     1518.296        0.619        0.237       83.548       33.880        0.164      334.913        5.200      869.716
01/15/2015  11:18:00       40.270       42.938       12.451       36.981       29.090       27.070     1367.603      846.211      732.796        0.328        0.147       58.867       19.707        0.112      334.975        5.303      869.715
01/15/2015  11:19:00      -28.763       62.471       -4.737       21.363       34.383       21.959      456.370     1182.211      482.193        0.344        0.106       68.775       17.942        0.068      334.835        5.070      869.714
01/15/2015  11:20:00      -25.618       36.339        1.987       16.669       38.917       19.904      277.871     1514.508      396.150        0.208        0.109       44.461       16.105        0.131      334.991        5.329      869.684
01/15/2015  11:21:00      -18.842       69.159       -1.609       21.898       35.416       22.519      479.542     1254.288      507.124        0.369        0.112       71.680       19.755        0.076      335.073        5.465      869.643
01/15/2015  11:22:00        7.134       26.847       39.702       22.973       37.416       34.101      527.776     1399.966     1162.865        0.272        0.155       27.778       27.271        0.964      335.804        6.682      869.598
01/15/2015  11:23:00       85.443      121.597      104.582       79.276       68.761       62.190     6284.617     4728.074     3867.539        2.395        0.744      148.615       52.963        0.127      335.065        5.450      869.566
01/15/2015  11:24:00      103.047       76.784       43.148       69.831       40.925       32.473     4876.354     1674.862     1054.496        1.299        0.380      128.509       19.391        0.023      334.818        5.040      869.568
01/15/2015  11:25:00       58.437       50.960       31.597       47.590       34.092       36.644     2264.820     1162.288     1342.798        0.589        0.238       77.535       11.797        0.023      335.105        5.518      869.551
01/15/2015  11:26:00       37.169       49.992       42.397       38.183       41.398       39.744     1457.962     1713.764     1579.565        0.521        0.238       62.295       17.419        0.078      335.370        5.958      869.528
01/15/2015  11:27:00       49.344      111.877       96.655       54.871       50.960       42.903     3010.814     2596.908     1840.696        1.587        0.372      122.276       37.851        0.096      335.136        5.570      869.499
01/15/2015  11:28:00       47.222      120.023      109.984       42.135       54.401       31.018     1775.341     2959.475      962.097        1.721        0.285      128.979       32.365        0.063      334.912        5.197      869.480
01/15/2015  11:29:00       72.802       75.518       65.667       37.130       35.046       31.681     1378.631     1228.240     1003.658        0.946        0.181      104.896       19.980        0.036      335.023        5.381      869.463
01/15/2015  11:30:00       70.669       59.250       50.559       55.366       48.539       38.815     3065.349     2356.006     1506.623        0.899        0.346       92.221       22.887        0.062      335.080        5.477      869.466
01/15/2015  11:31:00       30.665       59.863       64.005       44.341       64.848       49.500     1966.093     4205.222     2450.233        0.862        0.431       67.260       47.233        0.493      335.284        5.816      869.465
01/15/2015  11:32:00       40.359        8.847       15.185       48.045       71.964       37.750     2308.370     5178.771     1425.068        0.542        0.446       41.317       27.377        0.439      335.413        6.030      869.460
01/15/2015  11:33:00       35.640       44.712       41.471       53.638       42.864       34.537     2877.071     1837.364     1192.802        0.545        0.295       57.178       21.223        0.138      335.559        6.274      869.431
01/15/2015  11:34:00       75.996       53.791        0.590       72.423       42.797       34.643     5245.148     1831.591     1200.169        0.847        0.414       93.107       32.674        0.123      335.137        5.571      869.403
01/15/2015  11:35:00       32.028       76.273       15.331       44.078       67.417       38.349     1942.830     4545.046     1470.625        0.752        0.398       82.724       34.216        0.171      335.281        5.809      869.376
01/15/2015  11:36:00       46.409       53.640        9.379       49.582       41.357       27.020     2458.372     1710.365      730.077        0.501        0.245       70.930       20.411        0.083      335.371        5.959      869.345
01/15/2015  11:37:00       32.661       45.175       22.661       54.101       44.698       35.566     2926.903     1997.926     1264.956        0.490        0.309       55.745       33.476        0.361      335.804        6.682      869.330
01/15/2015  11:38:00       56.239       65.444       63.414       84.063       59.379       61.487     7066.579     3525.835     3780.660        1.292        0.719       86.289       47.704        0.306      335.625        6.382      869.276
01/15/2015  11:39:00       54.764       85.063       86.427       61.206       60.182       52.716     3746.206     3621.819     2778.985        1.392        0.507      101.167       44.327        0.192      335.408        6.023      869.249
01/15/2015  11:40:00       21.132       54.957       66.148       43.516       48.056       42.910     1893.635     2309.355     1841.252        0.694        0.302       58.880       38.671        0.431      335.542        6.247      869.229
01/15/2015  11:41:00       41.016        4.704       27.171       27.622       38.636       32.655      762.968     1492.747     1066.330        0.288        0.166       41.285       24.934        0.365      335.445        6.084      869.189
01/15/2015  11:42:00       53.807       53.907       36.795       30.231       25.496       27.147      913.891      650.030      736.962        0.473        0.115       76.165       15.003        0.039      335.369        5.958      869.143
01/15/2015  11:43:00       40.821       44.967       53.038       61.918       43.775       30.650     3833.830     1916.240      939.416        0.659        0.334       60.732       22.853        0.142      335.809        6.690      869.121
01/15/2015  11:44:00      152.424       79.240       15.886       46.001       44.018       40.378     2116.077     1937.595     1630.359        1.772        0.284      171.791       21.793        0.016      335.263        5.779      869.091
01/15/2015  11:45:00       82.234       49.639       22.555       53.349       35.445       30.202     2846.080     1256.378      912.185        0.737        0.251       96.054       24.461        0.065      335.343        5.914      869.072
01/15/2015  11:46:00       49.759       14.853       32.144       68.786       75.035       41.173     4731.449     5630.303     1695.220        0.789        0.603       51.928       34.158        0.433      335.615        6.365      869.025
01/15/2015  11:47:00       63.255      -73.579       48.135       71.545       99.236       62.375     5118.628     9847.694     3890.653        1.529        0.943       97.032       51.268        0.279      335.759        6.606      868.987
01/15/2015  11:48:00      129.447       64.888       32.811       70.681       35.810       43.892     4995.837     1282.371     1926.500        1.512        0.410      144.799       32.970        0.052      335.393        5.998      868.954
01/15/2015  11:49:00       41.944       13.423        2.896       40.311       45.801       22.964     1624.973     2097.695      527.359        0.310        0.213       44.039       17.686        0.161      335.555        6.268      868.897
01/15/2015  11:50:00       51.556       32.156       28.442       54.476       45.457       36.496     2967.645     2066.303     1331.932        0.543        0.318       60.762       27.105        0.199      335.905        6.850      868.871
01/15/2015  11:51:00       61.726      137.416      127.055       46.074       56.765       49.020     2122.857     3222.264     2402.945        2.329        0.387      150.643       44.911        0.089      335.448        6.084      868.875
01/15/2015  11:52:00       84.234       71.581       63.000       44.919       40.875       35.883     2017.760     1670.739     1287.590        1.058        0.249      110.541       13.580        0.015      335.513        6.196      868.889
01/15/2015  11:53:00       30.411       45.728       51.209       53.555       54.206       31.071     2868.156     2938.263      965.383        0.620        0.339       54.917       23.344        0.181      335.910        6.859      868.880
01/15/2015  11:54:00       18.085       46.223       52.885       43.370       47.342       28.506     1880.951     2241.284      812.593        0.510        0.247       49.635       23.674        0.227      335.990        6.993      868.846
01/15/2015  11:55:00       60.151     -114.436       12.012       64.368       57.867       43.689     4143.222     3348.573     1908.771        1.313        0.470      129.282       30.262        0.055      335.762        6.613      868.831
01/15/2015  11:56:00       58.714      -30.869       40.497       56.460       60.001       51.926     3187.771     3600.137     2696.267        0.776        0.474       66.335       46.456        0.490      335.737        6.571      868.830
01/15/2015  11:57:00       36.240      -34.663       17.507       27.371       42.629       43.525      749.170     1817.242     1894.392        0.364        0.223       50.148       37.378        0.556      335.366        5.952      868.837
01/15/2015  11:58:00      -52.190       -6.778       -3.065       40.567       24.597       23.878     1645.684      605.018      570.177        0.280        0.141       52.629       23.628        0.202      335.452        6.095      868.805
01/15/2015  11:59:00       42.515        4.931       39.778       54.451       48.797       42.437     2964.904     2381.184     1800.885        0.528        0.357       42.800       50.243        1.378      335.729        6.558      868.763
01/15/2015  12:00:00       50.960      -34.389       15.572       46.664       43.675       38.581     2177.522     1907.508     1488.509        0.480        0.279       61.478       40.194        0.427      335.867        6.786      868.734
01/15/2015  12:01:00       39.883      -32.059       23.365       42.178       37.969       36.431     1778.982     1441.671     1327.236        0.386        0.227       51.170       33.475        0.428      335.969        6.957      868.713
01/15/2015  12:02:00       76.806       82.993       60.210       43.903       25.505       33.958     1927.479      650.496     1153.139        1.007        0.187      113.080       25.338        0.050      335.646        6.418      868.707
01/15/2015  12:03:00       42.797       27.804       62.405       61.709       75.915       49.627     3808.025     5763.143     2462.837        0.926        0.602       51.036       52.149        1.044      335.962        6.946      868.685
01/15/2015  12:04:00      146.168       83.995       30.943       39.269       36.826       39.591     1542.076     1356.140     1567.475        1.692        0.223      168.583       28.743        0.029      335.555        6.266      868.652
01/15/2015  12:05:00       73.372       58.219       30.474       50.447       32.672       48.369     2544.890     1067.459     2339.512        0.783        0.298       93.664       24.839        0.070      335.810        6.690      868.612
01/15/2015  12:06:00       81.485       97.261       73.290       56.678       40.749       41.009     3212.416     1660.518     1681.746        1.401        0.328      126.884       14.278        0.013      335.839        6.739      868.574
01/15/2015  12:07:00       29.764       59.681       80.085       64.391       59.549       39.604     4146.223     3546.072     1568.453        1.006        0.463       66.692       34.801        0.272      335.974        6.965      868.558
01/15/2015  12:08:00      -23.212       33.633       64.015       45.076       61.181       44.764     2031.808     3743.054     2003.792        0.677        0.389       40.865       46.198        1.278      336.395        7.668      868.547
01/15/2015  12:09:00       42.753       58.982       89.024       61.830       58.854       54.090     3822.981     3463.766     2925.709        1.172        0.511       72.847       55.739        0.585      335.962        6.944      868.533
01/15/2015  12:10:00       73.458      -87.639        6.766       69.322       90.248       37.490     4805.605     8144.750     1405.521        1.374        0.718      114.353       43.980        0.148      335.781        6.642      868.511
01/15/2015  12:11:00       77.834     -110.963       17.248       74.173       90.504       51.747     5501.608     8191.054     2677.751        1.752        0.819      135.539       63.722        0.221      336.135        7.232      868.460
01/15/2015  12:12:00       54.425      -46.151       23.843       56.926       63.247       48.444     3240.524     4000.187     2346.783        0.762        0.479       71.358       35.915        0.253      336.104        7.183      868.442
01/15/2015  12:13:00       37.056       16.188       51.066       27.131       28.852       19.720      736.106      832.421      388.872        0.310        0.098       40.437       10.725        0.070      336.171        7.294      868.434
01/15/2015  12:14:00       92.030      -93.857       -2.161       61.376       72.060       44.104     3767.042     5192.634     1945.163        1.409        0.545      131.448       56.548        0.185      335.913        6.865      868.418
01/15/2015  12:15:00       59.834     -116.418      -12.149       29.533       25.904       21.540      872.205      671.026      463.964        0.964        0.100      130.894       17.931        0.019      335.798        6.672      868.415
01/15/2015  12:16:00       51.278       75.023       85.329       57.247       53.169       41.770     3277.208     2826.955     1744.749        1.169        0.392       90.873       33.652        0.137      336.065        7.117      868.394
01/15/2015  12:17:00       92.504       74.615       61.047       43.701       54.891       43.039     1909.791     3013.036     1852.347        1.231        0.339      118.846       23.653        0.040      335.856        6.768      868.382
01/15/2015  12:18:00       81.344       84.776       79.505       48.791       40.423       36.732     2380.522     1634.014     1349.246        1.274        0.268      117.490       32.430        0.076      335.846        6.752      868.364
01/15/2015  12:19:00       96.507       41.363       14.363       64.067       34.032       33.307     4104.600     1158.152     1109.369        0.880        0.319      104.998       29.756        0.080      335.770        6.625      868.322
01/15/2015  12:20:00      109.316       73.761       12.417       38.191       30.096       34.012     1458.546      905.744     1156.791        1.053        0.176      131.874       14.521        0.012      335.784        6.649      868.293
01/15/2015  12:21:00       72.337       71.906       48.316       71.912       44.897       56.614     5171.280     2015.733     3205.184        1.156        0.520      101.996       43.285        0.180      336.194        7.331      868.263
01/15/2015  12:22:00      -10.913       15.022       32.668       40.975       37.481       24.522     1678.950     1404.862      601.335        0.255        0.184       18.568       22.716        1.497      336.643        8.082      868.240
01/15/2015  12:23:00       51.903       58.369       49.118       63.092       54.993       66.617     3980.540     3024.176     4437.798        0.998        0.572       78.108       41.155        0.278      336.177        7.304      868.215
01/15/2015  12:24:00      138.174       98.092       68.199       49.793       73.339       52.576     2479.345     5378.556     2764.184        2.199        0.531      169.452       51.966        0.094      335.763        6.612      868.183
01/15/2015  12:25:00       87.299       70.559       38.476       37.830       34.436       27.139     1431.129     1185.810      736.504        0.872        0.168      112.248       14.293        0.016      335.806        6.687      868.147
01/15/2015  12:26:00       30.719       19.431       81.867       48.697      114.643       66.086     2371.373    13142.918     4367.301        1.395        0.994       36.349       79.006        4.724      336.064        7.116      868.118
01/15/2015  12:27:00       63.573       80.010       75.487       41.908       39.434       37.596     1756.264     1555.018     1413.465        1.043        0.236      102.192       22.857        0.050      335.984        6.984      868.109
01/15/2015  12:28:00       49.548      -52.118      -18.203       51.312       30.203       30.260     2632.876      912.224      915.643        0.498        0.223       71.912       21.940        0.093      335.859        6.773      868.109
01/15/2015  12:29:00      -12.579       -8.377       22.245       45.845       46.338       43.808     2101.807     2147.186     1919.157        0.344        0.308       15.113       35.329        5.465      336.388        7.655      868.071
01/15/2015  12:30:00       55.916       76.290       85.170       37.816       56.556       36.710     1430.032     3198.621     1347.635        1.109        0.299       94.588       39.497        0.174      336.176        7.302      868.046
01/15/2015  12:31:00       52.378       43.900       49.521       42.094       40.205       28.693     1771.923     1616.409      823.314        0.567        0.211       68.343       12.277        0.032      336.426        7.719      868.031
01/15/2015  12:32:00       -8.455       13.172       54.432       22.950       43.580       39.536      526.700     1899.219     1563.109        0.360        0.199       15.652       37.457        5.727      336.879        8.478      868.018
01/15/2015  12:33:00       84.159       83.195       57.368       71.314       34.335       46.121     5085.638     1178.886     2127.169        1.284        0.420      118.339       33.456        0.080      336.149        7.256      868.015
01/15/2015  12:34:00      107.383       84.766       29.037       35.546       31.901       29.668     1263.519     1017.648      880.163        1.136        0.158      136.808        9.101        0.004      335.841        6.742      867.986
01/15/2015  12:35:00       26.311       44.942       57.630       48.063       57.211       42.934     2310.059     3273.148     1843.332        0.673        0.371       52.077       41.133        0.624      336.548        7.924      867.950
01/15/2015  12:36:00       86.742       63.035       37.908       51.941       46.284       45.333     2697.858     2142.211     2055.119        0.991        0.345      107.226       37.779        0.124      336.373        7.631      867.928
01/15/2015  12:37:00       57.609       30.900       19.806       40.860       40.940       33.345     1669.578     1676.070     1111.865        0.456        0.223       65.373       12.511        0.037      336.366        7.619      867.891
01/15/2015  12:38:00       -2.596       70.299       93.044       29.954       45.016       43.607      897.251     2026.455     1901.551        0.921        0.241       70.347       36.326        0.267      336.717        8.205      867.849
01/15/2015  12:39:00       61.000       42.351       43.709       51.615       58.029       48.525     2664.065     3367.371     2354.671        0.790        0.419       74.260       28.696        0.149      336.397        7.671      867.837
01/15/2015  12:40:00       93.382     -135.870       28.751       61.752       86.787       48.250     3813.349     7532.042     2328.084        2.084        0.684      164.866       56.742        0.118      336.548        7.922      867.811
01/15/2015  12:41:00       33.810       50.831       64.622       55.803       36.488       31.850     3114.009     1331.380     1014.396        0.668        0.273       61.049       25.756        0.178      336.671        8.129      867.815
01/15/2015  12:42:00       43.886       55.396      -20.221       48.924       32.207       26.733     2393.600     1037.282      714.646        0.477        0.207       70.673       18.616        0.069      336.275        7.468      867.785
01/15/2015  12:43:00       56.238       47.127       18.918       35.865       53.766       36.115     1286.288     2890.799     1304.261        0.561        0.274       73.374       28.929        0.155      336.340        7.577      867.771
01/15/2015  12:44:00       83.489       51.012       44.469       51.605       80.147       54.762     2663.111     6423.473     2998.925        1.182        0.604       97.840       55.499        0.322      336.264        7.450      867.758
01/15/2015  12:45:00        5.388      -14.944       32.825       36.934       97.347       61.382     1364.152     9476.385     3767.711        0.797        0.730       15.886       67.672       18.146      336.543        7.915      867.749
01/15/2015  12:46:00       42.197      -11.388       19.225       63.917       53.122       32.743     4085.430     2821.941     1072.100        0.513        0.399       43.706       40.466        0.857      336.703        8.182      867.754
01/15/2015  12:47:00       34.430       83.842      108.887       66.641      104.408       68.655     4441.023    10900.928     4713.548        2.006        1.003       90.636       76.056        0.704      336.725        8.217      867.743
01/15/2015  12:48:00       85.180      -67.875       18.353       60.703      100.407       50.242     3684.907    10081.593     2524.276        1.424        0.815      108.916       42.471        0.152      336.551        7.929      867.739
01/15/2015  12:49:00       30.089       -6.590       32.243       48.667       60.619       36.868     2368.435     3674.691     1359.251        0.469        0.370       30.802       19.071        0.383      336.770        8.294      867.731
01/15/2015  12:50:00       25.511      -63.700        1.899       42.838       72.803       29.726     1835.094     5300.291      883.649        0.636        0.401       68.619       24.033        0.123      336.666        8.120      867.746
01/15/2015  12:51:00       21.500      -24.786       23.589       37.840       41.894       27.007     1431.855     1755.090      729.373        0.277        0.196       32.812       22.111        0.454      336.827        8.391      867.758
01/15/2015  12:52:00       13.447      -66.742       -6.269       36.286       51.866       29.658     1316.654     2690.031      879.615        0.478        0.244       68.084       22.728        0.111      336.732        8.232      867.763
01/15/2015  12:53:00        7.464       -1.070       42.520       28.197       48.191       30.225      795.094     2322.373      913.561        0.295        0.202        7.541       34.755       21.244      336.997        8.675      867.777
01/15/2015  12:54:00       13.755        9.730       30.108       20.572       29.757       19.478      423.202      885.482      379.393        0.144        0.084       16.848        7.579        0.202      336.989        8.661      867.787
01/15/2015  12:55:00       -9.593      -15.304       23.218       21.989       33.375       20.886      483.499     1113.874      436.238        0.145        0.102       18.062       17.630        0.953      337.082        8.815      867.801
01/15/2015  12:56:00       33.806       35.046       43.153       43.585       30.246       20.280     1899.621      914.809      411.288        0.373        0.161       48.693        9.776        0.040      336.813        8.367      867.793
01/15/2015  12:57:00        1.454       27.972       38.790       30.282       27.241       22.786      917.006      742.082      519.217        0.223        0.109       28.010       11.598        0.171      337.051        8.764      867.754
01/15/2015  12:58:00       18.535       61.435       78.888       46.275       35.303       37.349     2141.396     1246.280     1394.942        0.756        0.239       64.170       30.697        0.229      336.808        8.357      867.730
01/15/2015  12:59:00       67.114       30.954       11.399       44.601       34.695       36.114     1989.246     1203.753     1304.230        0.504        0.225       73.908       25.392        0.118      336.546        7.920      867.732
01/15/2015  13:00:00       29.484       58.923       75.681       32.083       31.695       22.616     1029.346     1004.594      511.490        0.631        0.127       65.888       19.490        0.088      336.803        8.350      867.742
01/15/2015  13:01:00       48.165       -0.400       47.114       43.354       42.134       35.642     1879.534     1775.251     1270.368        0.473        0.246       48.167       34.005        0.498      336.792        8.331      867.745
01/15/2015  13:02:00       59.945       48.946        4.610       36.244       22.179       28.133     1313.611      491.896      791.484        0.430        0.130       77.389       18.654        0.058      336.394        7.666      867.739
01/15/2015  13:03:00       55.719       47.708       42.371       45.858       35.988       34.706     2102.919     1295.148     1204.473        0.589        0.230       73.353       22.314        0.093      336.669        8.127      867.720
01/15/2015  13:04:00       57.616       77.290       64.506       64.682       51.695       50.678     4183.706     2672.342     2568.267        1.144        0.471       96.402       49.246        0.261      336.776        8.305      867.707
01/15/2015  13:05:00       15.314       46.145       55.780       45.511       57.398       39.784     2071.237     3294.512     1582.754        0.621        0.347       48.620       32.980        0.460      337.028        8.725      867.702
01/15/2015  13:06:00       65.852       73.321        1.253       73.209       45.163       29.802     5359.624     2039.737      888.161        0.900        0.414       98.552       13.973        0.020      336.614        8.034      867.710
01/15/2015  13:07:00       14.691       48.455       73.608       44.603       55.502       49.520     1989.468     3080.436     2452.216        0.775        0.376       50.634       46.206        0.833      336.838        8.409      867.717
01/15/2015  13:08:00       81.369       62.986       43.474       55.939       34.994       51.419     3129.225     1224.607     2643.887        0.974        0.350      102.899       37.359        0.132      336.600        8.012      867.719
01/15/2015  13:09:00       19.282       78.762       81.948       30.065       37.779       45.775      903.921     1427.272     2095.375        0.886        0.221       81.088       40.554        0.250      336.617        8.040      867.699
01/15/2015  13:10:00       51.223      110.027       98.708       42.486       35.152       25.082     1805.088     1235.636      629.102        1.407        0.183      121.366       17.744        0.021      336.593        7.999      867.692
01/15/2015  13:11:00       30.196       15.812       47.371       45.887       56.835       41.836     2105.638     3230.239     1750.227        0.524        0.354       34.086       42.460        1.552      336.742        8.248      867.692
01/15/2015  13:12:00       26.306       39.013       10.307       37.846       42.059       21.203     1432.314     1768.939      449.570        0.298        0.183       47.053       22.439        0.227      336.820        8.378      867.693
01/15/2015  13:13:00       13.660        1.676       17.530       30.240       34.272       22.823      914.430     1174.580      520.890        0.155        0.130       13.762       14.685        1.139      337.013        8.702      867.688
01/15/2015  13:14:00       14.655       36.551       54.578       28.475       24.908       17.042      810.822      620.433      290.413        0.313        0.086       39.379       11.583        0.087      336.986        8.655      867.677
01/15/2015  13:15:00        2.354       93.721        0.121       24.182       50.357       27.814      584.769     2535.838      773.622        0.634        0.195       93.750       26.889        0.082      336.772        8.298      867.668
01/15/2015  13:16:00       -0.493       26.256      -12.290       29.262       53.921       22.578      856.292     2907.502      509.759        0.256        0.214       26.260       10.251        0.152      336.749        8.260      867.658
01/15/2015  13:17:00       13.249      -66.721        5.703       35.007       63.782       35.966     1225.464     4068.135     1293.561        0.562        0.329       68.024       35.629        0.274      337.084        8.819      867.644
01/15/2015  13:18:00       73.493      -32.163       39.948       43.516       60.455       37.459     1893.654     3654.753     1403.199        0.749        0.348       80.223       22.568        0.079      336.831        8.397      867.628
01/15/2015  13:19:00        3.825      -17.396      -15.282       18.961       32.794       13.378      359.505     1075.455      178.976        0.108        0.081       17.811        8.468        0.226      336.706        8.190      867.605
01/15/2015  13:20:00       22.766       12.441       50.975       42.364       58.497       53.520     1794.700     3421.863     2864.353        0.567        0.404       25.944       48.979        3.564      336.850        8.428      867.589
01/15/2015  13:21:00       74.742       74.824       77.691       47.211       49.844       48.606     2228.845     2484.410     2362.526        1.215        0.354      105.760       40.380        0.146      336.681        8.146      867.590
01/15/2015  13:22:00       49.795      -16.535       13.694       24.214       46.641       26.360      586.341     2175.384      694.847        0.320        0.173       52.468       24.046        0.210      336.840        8.412      867.605
01/15/2015  13:23:00       68.489      -23.755       27.177       41.905       54.161       39.553     1756.028     2933.388     1564.427        0.612        0.313       72.491       36.508        0.254      336.763        8.283      867.613
01/15/2015  13:24:00       25.197      -99.826       -6.326       43.659       44.112       30.388     1906.144     1945.848      923.448        0.771        0.239      102.957       19.249        0.035      336.969        8.627      867.606
01/15/2015  13:25:00       60.345       12.780       31.514       44.500       75.146       48.412     1980.288     5646.905     2343.726        0.738        0.499       61.683       49.314        0.639      336.975        8.638      867.600
01/15/2015  13:26:00       87.680       73.096       45.688       50.952       45.822       47.349     2596.100     2099.659     2241.968        1.103        0.347      114.153       40.335        0.125      336.789        8.326      867.606
01/15/2015  13:27:00       81.786       47.079       24.326       48.676       39.339       30.319     2369.394     1547.570      919.217        0.717        0.242       94.368       20.601        0.048      336.642        8.081      867.608
01/15/2015  13:28:00       49.182        1.878       28.231       33.328       41.554       26.231     1110.755     1726.706      688.071        0.337        0.176       49.218       29.355        0.356      336.821        8.379      867.614
01/15/2015  13:29:00       44.206       -6.440       31.276       31.363       42.957       29.745      983.664     1845.343      884.757        0.334        0.186       44.672       30.410        0.463      336.838        8.410      867.618
01/15/2015  13:30:00       48.541     -116.513       -9.371       24.608       42.829       23.909      605.578     1834.291      571.638        0.951        0.151      126.220       15.864        0.016      336.850        8.429      867.597
01/15/2015  13:31:00       70.211      -65.204       12.528       46.510       71.074       35.354     2163.160     5051.538     1249.889        0.890        0.423       95.818       46.683        0.237      336.902        8.518      867.569
01/15/2015  13:32:00       70.644      -46.195       15.705       48.894       35.970       32.231     2390.617     1293.853     1038.860        0.605        0.236       84.407       31.647        0.141      336.959        8.610      867.531
01/15/2015  13:33:00       17.297       -2.653       20.208       23.517       35.556       26.430      553.033     1264.209      698.522        0.161        0.126       17.499       27.613        2.490      336.968        8.625      867.503
01/15/2015  13:34:00       32.850       35.517       28.605       27.248       28.711       24.037      742.464      824.335      577.770        0.265        0.107       48.380       21.353        0.195      336.940        8.578      867.500
01/15/2015  13:35:00       32.953      -88.011       -1.690       32.329       37.009       20.611     1045.141     1369.697      424.816        0.584        0.142       93.978       18.764        0.040      337.081        8.812      867.503
01/15/2015  13:36:00       67.675      -94.704      -14.851       22.061       29.044       18.396      486.671      843.566      338.422        0.772        0.083      116.400        9.021        0.006      336.943        8.583      867.510
01/15/2015  13:37:00       55.008      -66.514       -8.546       37.057       50.607       35.286     1373.234     2561.103     1245.112        0.635        0.259       86.313       22.801        0.070      337.033        8.734      867.506
01/15/2015  13:38:00       55.197     -122.882       -3.235       33.839       34.727       21.891     1145.060     1205.997      479.224        1.049        0.142      134.710       23.668        0.031      336.867        8.457      867.493
01/15/2015  13:39:00       16.739       41.795       72.031       37.515       57.285       36.048     1407.354     3281.575     1299.494        0.660        0.299       45.023       42.135        0.876      337.118        8.874      867.466
01/15/2015  13:40:00      110.892       55.605       37.156       62.751       37.631       34.340     3937.632     1416.116     1179.250        1.165        0.327      124.053       22.136        0.032      336.985        8.653      867.441
01/15/2015  13:41:00       20.559       43.160       62.700       32.512       35.362       23.724     1057.028     1250.490      562.843        0.454        0.144       47.807       22.129        0.214      337.188        8.994      867.434
01/15/2015  13:42:00       53.910       25.820       28.904       37.543       32.731       32.039     1409.476     1071.335     1026.497        0.396        0.175       59.774       14.515        0.059      337.177        8.974      867.439
01/15/2015  13:43:00       -7.208       11.074       15.813       17.291       29.441       17.594      298.995      866.773      309.533        0.095        0.074       13.213        8.044        0.371      337.321        9.215      867.441
01/15/2015  13:44:00       85.886       61.885       46.610       39.417       45.047       35.054     1553.691     2029.191     1228.790        0.909        0.241      105.859       16.179        0.023      337.082        8.817      867.448
01/15/2015  13:45:00       69.432       57.001       41.670       29.922       19.995       25.013      895.339      399.818      625.669        0.586        0.096       89.833        8.209        0.008      337.079        8.810      867.446
01/15/2015  13:46:00       21.443       27.777       34.745       26.851       33.111       24.061      720.976     1096.341      578.933        0.242        0.120       35.091       20.096        0.328      337.193        9.002      867.444
01/15/2015  13:47:00        1.378      -67.263        6.201       30.001       50.281       25.526      900.051     2528.190      651.588        0.432        0.204       67.277       13.092        0.038      337.323        9.219      867.441
01/15/2015  13:48:00      -33.966      -65.824       -8.766       29.846       32.722       21.073      890.787     1070.724      444.080        0.398        0.120       74.071       17.094        0.053      336.936        8.572      867.426
01/15/2015  13:49:00       32.270       13.197       15.432       50.908       36.748       26.016     2591.615     1350.418      676.844        0.304        0.231       34.864       13.357        0.147      337.259        9.112      867.418
01/15/2015  13:50:00       49.322       29.209       27.718       46.140       49.208       37.350     2128.882     2421.387     1394.998        0.500        0.297       57.323       31.327        0.299      337.198        9.010      867.424
01/15/2015  13:51:00       37.969       47.194       63.004       53.694       78.529       51.476     2883.017     6166.785     2649.766        0.967        0.585       60.571       57.180        0.891      337.251        9.098      867.432
01/15/2015  13:52:00       40.860       87.891       89.888       42.691       38.910       21.628     1822.500     1513.975      467.762        1.064        0.190       96.924       15.270        0.025      337.238        9.079      867.431
01/15/2015  13:53:00       22.883      -12.135       40.579       34.938       55.347       33.281     1220.673     3063.265     1107.653        0.385        0.270       25.901       33.275        1.650      337.339        9.247      867.421
01/15/2015  13:54:00       22.947       54.428       75.073       39.675       54.774       34.804     1574.132     3000.183     1211.319        0.745        0.289       59.067       31.266        0.280      337.300        9.181      867.432
01/15/2015  13:55:00       20.460       10.258       43.814       36.256       48.453       32.256     1314.508     2347.678     1040.472        0.357        0.235       22.887       29.181        1.626      337.377        9.309      867.436
01/15/2015  13:56:00       33.697        2.765       55.152       39.716       58.252       34.100     1577.367     3393.298     1162.795        0.516        0.307       33.811       38.390        1.289      337.319        9.213      867.430
01/15/2015  13:57:00       79.421       13.405       43.524       45.153       56.033       34.686     2038.802     3139.690     1203.122        0.738        0.319       80.544       31.156        0.150      337.202        9.016      867.426
01/15/2015  13:58:00       72.939       65.110       53.733       33.079       38.459       30.348     1094.246     1479.109      921.028        0.797        0.175       97.773       18.994        0.038      337.129        8.894      867.415
01/15/2015  13:59:00       22.614       47.780       57.477       32.542       44.961       24.898     1058.996     2021.469      619.925        0.490        0.185       52.861       19.266        0.133      337.304        9.188      867.409
01/15/2015  14:00:00       27.393        9.206       51.587       43.578      100.634       44.898     1899.049    10127.226     2015.800        0.877        0.702       28.898       60.598        4.397      337.268        9.129      867.401
01/15/2015  14:01:00       22.205       -8.421       55.880       33.696       67.604       35.084     1135.449     4570.272     1230.865        0.531        0.347       23.748       43.833        3.407      337.389        9.331      867.400
01/15/2015  14:02:00       66.334       -3.504       43.058       54.682       83.864       54.467     2990.076     7033.146     2966.678        0.963        0.649       66.426       59.910        0.813      337.236        9.075      867.400
01/15/2015  14:03:00       51.062      -46.706       38.076       35.174       84.173       41.311     1237.237     7085.013     1706.561        0.813        0.501       69.201       51.364        0.551      337.299        9.179      867.395
01/15/2015  14:04:00       52.368       34.041       54.709       49.200       58.546       40.597     2420.599     3427.676     1648.107        0.719        0.375       62.460       38.638        0.383      337.198        9.011      867.381
01/15/2015  14:05:00       86.022      -35.011       39.438       73.133      100.735       56.188     5348.476    10147.613     3157.063        1.441        0.933       92.874       61.404        0.437      337.203        9.017      867.368
01/15/2015  14:06:00      137.528     -172.837      -31.385       37.223       48.088       24.442     1385.566     2312.458      597.400        2.703        0.215      220.877       14.751        0.004      337.047        8.754      867.365
01/15/2015  14:07:00       75.787      -72.919       15.798       64.333       92.883       63.698     4138.747     8627.264     4057.406        1.406        0.841      105.170       76.217        0.525      337.249        9.095      867.376
01/15/2015  14:08:00      108.216      -28.623       32.130       53.871      131.131       62.991     2902.104    17195.442     3967.846        1.881        1.203      111.937       80.154        0.513      337.184        8.986      867.382
01/15/2015  14:09:00       48.897        3.554        4.108       53.782       29.836       20.592     2892.494      890.196      424.035        0.331        0.210       49.026       11.066        0.051      337.072        8.800      867.383
01/15/2015  14:10:00       -2.758       10.079       51.994       22.466       37.644       22.965      504.707     1417.082      527.405        0.263        0.122       10.450       15.657        2.245      337.376        9.308      867.372
01/15/2015  14:11:00       23.497       55.413       69.684       35.914       62.912       47.359     1289.795     3957.867     2242.873        0.798        0.375       60.189       39.269        0.426      337.285        9.155      867.355
01/15/2015  14:12:00       16.359      -39.989       34.842       31.680       74.213       30.154     1003.643     5507.570      909.263        0.525        0.371       43.206       39.665        0.843      337.321        9.215      867.363
01/15/2015  14:13:00       24.149       53.437       60.092       46.407       39.204       24.912     2153.637     1536.921      620.597        0.568        0.216       58.640       17.945        0.094      337.341        9.250      867.371
01/15/2015  14:14:00       63.651       54.320       57.254       56.207       49.482       42.212     3159.187     2448.504     1781.842        0.883        0.369       83.678       31.454        0.141      337.310        9.198      867.370
01/15/2015  14:15:00       47.537        9.511       47.279       65.291       48.728       35.640     4262.891     2374.453     1270.216        0.625        0.395       48.479       38.314        0.625      337.329        9.229      867.381
01/15/2015  14:16:00       38.643       29.602       54.850       52.621       61.395       39.607     2768.999     3769.345     1568.704        0.674        0.405       48.678       36.010        0.547      337.367        9.292      867.398
01/15/2015  14:17:00       58.867      -10.658       30.196       58.652       38.666       25.098     3440.114     1495.081      629.900        0.503        0.278       59.824       26.412        0.195      337.214        9.036      867.413
01/15/2015  14:18:00       16.483      -13.437       31.097       24.388       58.443       26.216      594.777     3415.625      687.255        0.306        0.235       21.265       27.873        1.718      337.406        9.358      867.416
01/15/2015  14:19:00       70.744       36.667       29.823       49.696       41.523       29.971     2469.724     1724.172      898.288        0.616        0.255       79.682       23.572        0.088      337.257        9.109      867.416
01/15/2015  14:20:00       43.852       64.589       59.349       47.546       36.357       32.092     2260.631     1321.856     1029.877        0.711        0.231       78.069       28.536        0.134      337.318        9.211      867.423
01/15/2015  14:21:00       65.375       74.327       51.266       40.560       28.379       31.518     1645.141      805.380      993.353        0.793        0.172       98.987       22.269        0.051      337.158        8.943      867.442
01/15/2015  14:22:00       66.052       63.585       34.668       26.731       19.827       29.207      714.567      393.116      853.024        0.578        0.098       91.683       11.007        0.014      337.103        8.850      867.453
01/15/2015  14:23:00       63.701       53.793       19.138       31.299       30.133       23.756      979.622      907.973      564.336        0.488        0.123       83.375       13.190        0.025      337.157        8.941      867.460
01/15/2015  14:24:00       63.096       43.501        0.654       24.335       22.944       18.531      592.177      526.431      343.384        0.367        0.073       76.638       14.471        0.036      337.146        8.924      867.479
01/15/2015  14:25:00       29.014       25.873       31.832       29.653       40.635       24.835      879.292     1651.185      616.800        0.284        0.157       38.875       18.246        0.220      337.287        9.159      867.485
01/15/2015  14:26:00      102.660       32.088       24.366       47.614       40.193       35.390     2267.101     1615.488     1252.450        0.865        0.257      107.558       28.795        0.072      337.238        9.076      867.503
01/15/2015  14:27:00       46.270       33.672       19.539       34.157       28.600       17.838     1166.698      817.989      318.202        0.298        0.115       57.225       15.618        0.074      337.189        8.995      867.508
01/15/2015  14:28:00       39.804     -115.819       -0.188       42.254       48.031       36.415     1785.405     2306.983     1326.019        1.021        0.271      122.468       31.055        0.064      337.342        9.251      867.529
01/15/2015  14:29:00       80.762      -83.325      -24.083       40.563       48.188       24.969     1645.381     2322.071      623.434        0.932        0.230      116.042       24.019        0.043      337.236        9.075      867.530
01/15/2015  14:30:00       15.642        4.445       35.022       39.599       40.342       29.223     1568.063     1627.495      853.987        0.277        0.202       16.262       22.313        1.883      337.339        9.245      867.506
01/15/2015  14:31:00       -0.620       15.074       56.854       16.963       25.567       18.725      287.744      653.684      350.644        0.238        0.065       15.087       14.493        0.923      337.432        9.402      867.482
01/15/2015  14:32:00       19.290      -40.062       18.788       28.078       53.864       28.670      788.399     2901.356      821.967        0.342        0.226       44.464       24.873        0.313      337.488        9.496      867.468
01/15/2015  14:33:00       29.520      -70.911       14.877       37.395       40.170       36.408     1398.375     1613.663     1325.525        0.523        0.217       76.810       28.070        0.134      337.481        9.484      867.443
01/15/2015  14:34:00      -18.622       -3.076       40.597       26.562       37.214       30.421      705.539     1384.901      925.426        0.251        0.151       18.875       24.942        1.746      337.624        9.726      867.429
01/15/2015  14:35:00       22.952       51.057       61.185       29.546       20.621       19.314      872.954      425.233      373.021        0.427        0.084       55.979       19.442        0.121      337.354        9.273      867.441
01/15/2015  14:36:00       -0.400        7.864       23.783       21.451       22.748       12.343      460.156      517.474      152.350        0.088        0.056        7.874        6.712        0.727      337.435        9.406      867.449
01/15/2015  14:37:00       24.515      -12.079        6.096       37.250       33.377       31.215     1387.572     1114.047      974.374        0.213        0.174       27.329       27.659        1.024      337.476        9.476      867.461
01/15/2015  14:38:00       13.599       14.243       43.338       25.454       34.447       18.686      647.930     1186.568      349.170        0.222        0.109       19.693       11.530        0.343      337.524        9.556      867.451
01/15/2015  14:39:00       50.872       18.711       14.000       54.187       44.596       36.974     2936.191     1988.790     1367.103        0.471        0.315       54.204       18.913        0.122      337.488        9.495      867.437
01/15/2015  14:40:00        2.519       36.086       74.467       25.419       49.906       28.796      646.101     2490.647      829.215        0.541        0.198       36.174       29.152        0.649      337.553        9.606      867.424
01/15/2015  14:41:00       52.600       62.310       79.336       37.111       32.198       23.728     1377.234     1036.737      563.015        0.796        0.149       81.543       19.841        0.059      337.358        9.279      867.421
01/15/2015  14:42:00       52.269       36.923       41.511       35.601       36.032       23.582     1267.400     1298.276      556.119        0.447        0.156       63.995       14.680        0.053      337.343        9.254      867.428
01/15/2015  14:43:00       40.097       10.545       15.110       31.730       21.441       26.656     1006.804      459.695      710.559        0.206        0.109       41.460       12.796        0.095      337.359        9.279      867.429
01/15/2015  14:44:00       12.140        6.600        9.075       26.193       20.406       25.046      686.084      416.398      627.283        0.100        0.086       13.818       14.729        1.136      337.349        9.261      867.410
01/15/2015  14:45:00       51.196      -59.204      -16.780       32.634       56.168       23.637     1064.996     3154.807      558.718        0.559        0.239       78.270       26.356        0.113      337.419        9.379      867.390
01/15/2015  14:46:00       64.612      -94.269       -1.759       41.029       64.116       28.055     1683.380     4110.826      787.062        0.982        0.329      114.287       24.149        0.045      337.441        9.417      867.385
01/15/2015  14:47:00      106.129        0.650       16.351       50.493       47.775       32.376     2549.575     2282.403     1048.230        0.870        0.294      106.131       24.645        0.054      337.375        9.307      867.375
01/15/2015  14:48:00       70.326       -4.615       24.281       51.832       51.110       32.025     2686.568     2612.241     1025.598        0.594        0.316       70.477       26.250        0.139      337.391        9.333      867.363
01/15/2015  14:49:00       76.564     -110.423       -8.133       36.690       45.593       33.335     1346.151     2078.720     1111.222        1.133        0.227      134.370       24.925        0.034      337.397        9.343      867.364
01/15/2015  14:50:00       54.176       26.199       17.333       25.383       54.000       33.325      644.300     2916.031     1110.550        0.430        0.234       60.178       34.252        0.324      337.361        9.284      867.341
01/15/2015  14:51:00       20.658       76.477       91.709       40.678       40.939       30.612     1654.725     1675.986      937.097        0.948        0.213       79.218       28.331        0.128      337.481        9.484      867.331
01/15/2015  14:52:00      119.524       51.457       47.793       72.135       54.466       48.094     5203.517     2966.547     2313.050        1.485        0.524      130.130       33.575        0.067      337.346        9.258      867.352
01/15/2015  14:53:00      100.541       89.525       68.040       87.263       62.302       33.045     7614.856     3881.520     1091.940        1.767        0.629      134.623       21.891        0.026      337.415        9.373      867.337
01/15/2015  14:54:00      -23.802       15.388       54.750       30.569       39.532       28.524      934.470     1562.782      813.607        0.356        0.166       28.343       27.396        0.934      337.635        9.745      867.334
01/15/2015  14:55:00       49.475       58.332       80.725       44.254       67.923       43.488     1958.418     4613.532     1891.241        1.041        0.423       76.488       45.069        0.347      337.470        9.466      867.322
01/15/2015  14:56:00       63.701      -74.557       -1.582       45.332       52.494       31.632     2054.974     2755.640     1000.557        0.771        0.291       98.065       26.226        0.072      337.414        9.372      867.305
01/15/2015  14:57:00       85.053     -131.805      -20.445       49.700       59.868       29.884     2470.114     3584.159      893.054        1.598        0.347      156.865       19.709        0.016      337.399        9.346      867.286
01/15/2015  14:58:00      100.527     -113.931      -19.369       28.049       50.286       33.194      786.735     2528.697     1101.859        1.394        0.221      151.940       27.796        0.033      337.306        9.191      867.293
01/15/2015  14:59:00       17.269       16.620       49.872       50.019       47.456       35.624     2501.879     2252.028     1269.063        0.454        0.301       23.968       40.643        2.875      337.407        9.360      867.317
01/15/2015  15:00:00       29.925      -69.052       -2.565       32.607       40.338       28.429     1063.212     1627.183      808.192        0.458        0.175       75.258       25.347        0.113      337.545        9.591      867.354
01/15/2015  15:01:00       -2.956       23.752       51.511       32.432       28.390       22.625     1051.853      805.980      511.889        0.280        0.118       23.935       18.765        0.615      337.513        9.536      867.378
01/15/2015  15:02:00      -24.127       36.395       45.059       22.686       36.560       30.949      514.661     1336.622      957.846        0.337        0.140       43.666       26.723        0.375      337.511        9.533      867.402
01/15/2015  15:03:00       80.743       55.995       36.671       46.161       30.054       34.634     2130.818      903.221     1199.525        0.762        0.212       98.259       28.409        0.084      337.462        9.453      867.397
01/15/2015  15:04:00       90.923       53.335       35.197       62.288       51.454       31.386     3879.819     2647.503      985.065        0.993        0.376      105.411       24.638        0.055      337.472        9.469      867.397
01/15/2015  15:05:00        9.358      -13.606       17.082       30.550       41.909       32.815      933.291     1756.339     1076.814        0.216        0.188       16.514       27.941        2.863      337.571        9.636      867.420
01/15/2015  15:06:00       38.233       36.609       14.286       33.279       43.907       20.327     1107.459     1927.783      413.173        0.323        0.172       52.934        9.562        0.033      337.499        9.514      867.425
01/15/2015  15:07:00        4.456       12.302        9.744       26.592       37.553       20.725      707.125     1410.228      429.520        0.141        0.127       13.084       13.251        1.026      337.474        9.470      867.429
01/15/2015  15:08:00       10.631      -74.734        3.641       31.959       28.224       27.148     1021.401      796.580      737.039        0.413        0.128       75.486       22.789        0.091      337.432        9.400      867.452
01/15/2015  15:09:00        7.517      -55.236        7.261       16.793       22.330       11.422      281.990      498.623      130.463        0.204        0.046       55.745        9.555        0.029      337.407        9.359      867.472
01/15/2015  15:10:00        3.981       -0.091       21.110       22.732       25.001       16.652      516.752      625.050      277.279        0.094        0.071        3.982       12.407        9.711      337.543        9.587      867.477
01/15/2015  15:11:00      -12.895       28.822       45.587       25.314       40.724       26.900      640.793     1658.427      723.608        0.305        0.151       31.575       14.542        0.212      337.537        9.577      867.483
01/15/2015  15:12:00       57.420      -71.111        4.043       68.125       64.433       35.866     4641.059     4151.554     1286.373        0.922        0.504       91.399       47.524        0.270      337.450        9.431      867.488
01/15/2015  15:13:00      103.857      -42.372        2.568       53.937       58.149       40.500     2909.230     3381.336     1640.255        1.026        0.397      112.168       45.875        0.167      337.348        9.260      867.494
01/15/2015  15:14:00       57.983      -12.715       20.224       27.631       33.365       24.669      763.486     1113.229      608.575        0.321        0.124       59.360       21.140        0.127      337.353        9.270      867.472
01/15/2015  15:15:00       21.927      -35.035        7.222       40.546       48.161       26.318     1644.005     2319.470      692.658        0.321        0.233       41.331       25.578        0.383      337.547        9.595      867.438
01/15/2015  15:16:00       -7.988       -1.264       25.991       37.632       48.767       22.102     1416.143     2378.202      488.488        0.251        0.214        8.087       10.498        1.685      337.531        9.568      867.418
01/15/2015  15:17:00        6.094       20.565       48.457       24.452       28.026       25.857      597.903      785.473      668.566        0.243        0.103       21.449       19.908        0.861      337.556        9.609      867.406
01/15/2015  15:18:00       22.257       22.808       30.398       40.113       38.649       34.254     1609.061     1493.750     1173.318        0.311        0.214       31.868       32.748        1.056      337.459        9.448      867.406
01/15/2015  15:19:00       -9.980       -8.744       21.667       19.864       30.310       20.350      394.581      918.718      414.126        0.119        0.086       13.269       22.292        2.822      337.564        9.623      867.414
01/15/2015  15:20:00       -2.606        4.293       28.670       27.064       38.254       31.672      732.448     1463.385     1003.103        0.202        0.160        5.022       30.173       36.092      337.590        9.666      867.416
01/15/2015  15:21:00       -7.224       12.309       38.902       13.695       34.092       16.398      187.553     1162.296      268.897        0.167        0.081       14.272       18.738        1.724      337.600        9.683      867.400
01/15/2015  15:22:00       24.231       20.501       23.802       26.992       29.067       24.135      728.547      844.918      582.519        0.186        0.108       31.739       20.963        0.436      337.568        9.632      867.395
01/15/2015  15:23:00       19.290       20.303       32.092       24.730       15.894       16.673      611.559      252.635      277.986        0.148        0.057       28.006       10.500        0.141      337.523        9.554      867.388
01/15/2015  15:24:00       74.095       53.346       37.555       42.307       22.554       21.894     1789.870      508.685      479.339        0.626        0.139       91.301       16.970        0.035      337.480        9.482      867.385
01/15/2015  15:25:00       25.000       74.205       74.972       35.290       29.394       19.082     1245.359      863.979      364.122        0.711        0.124       78.304       21.797        0.077      337.510        9.532      867.392
01/15/2015  15:26:00        4.092       65.764       69.248       15.951       25.960       14.207      254.420      673.947      201.852        0.513        0.057       65.891       14.213        0.047      337.458        9.444      867.401
01/15/2015  15:27:00       20.297       57.625       64.662       32.714       33.173       20.911     1070.217     1100.446      437.256        0.526        0.130       61.095       18.196        0.089      337.458        9.446      867.416
01/15/2015  15:28:00       57.996       73.089       46.223       31.473       23.786       27.878      990.573      565.775      777.190        0.659        0.117       93.303       22.475        0.058      337.440        9.416      867.428
01/15/2015  15:29:00       92.699       53.187       10.721       30.153       27.488       27.307      909.181      755.577      745.688        0.697        0.121      106.873       17.986        0.028      337.424        9.387      867.435
01/15/2015  15:30:00       47.287       36.014       12.483       29.435       17.378       14.940      866.437      301.997      223.195        0.254        0.070       59.440       16.189        0.074      337.439        9.414      867.450
01/15/2015  15:31:00        5.863      -14.368        7.818       24.053       35.891       26.282      578.568     1288.193      690.770        0.143        0.128       15.518       17.566        1.281      337.533        9.571      867.444
01/15/2015  15:32:00       -0.832       16.262       30.591       22.693       34.096       31.733      514.972     1162.535     1006.972        0.194        0.134       16.283       21.257        1.704      337.545        9.590      867.424
01/15/2015  15:33:00       -4.571       16.581       44.025       23.866       24.775       23.521      569.605      613.822      553.245        0.199        0.087       17.199       19.785        1.323      337.536        9.576      867.416
01/15/2015  15:34:00      -20.682       -5.029        4.952       26.379       24.325       19.387      695.831      591.691      375.846        0.107        0.083       21.285       17.624        0.686      337.490        9.498      867.413
01/15/2015  15:35:00      -57.516      -43.922       -8.150       34.814       37.000       20.988     1212.017     1369.009      440.517        0.416        0.151       72.368       15.076        0.043      337.462        9.451      867.433
01/15/2015  15:36:00       39.600      -81.972       -6.006       46.173       70.546       36.306     2131.961     4976.755     1318.160        0.837        0.421       91.036       39.101        0.184      337.565        9.625      867.453
01/15/2015  15:37:00       -9.815       45.428       64.189       24.014       36.587       23.209      576.653     1338.630      538.644        0.437        0.123       46.477       20.259        0.190      337.540        9.582      867.461
01/15/2015  15:38:00      -12.790       39.744       49.625       16.585       29.044       22.528      275.055      843.582      507.510        0.292        0.081       41.752       15.734        0.142      337.487        9.493      867.470
01/15/2015  15:39:00      -10.640       -0.697       27.268       16.746       18.455       18.007      280.418      340.584      324.254        0.090        0.047       10.663       12.807        1.443      337.486        9.493      867.497
01/15/2015  15:40:00       -3.492      -13.136       16.545       14.868       12.578       13.520      221.048      158.206      182.795        0.051        0.028       13.593        7.636        0.316      337.534        9.571      867.511
01/15/2015  15:41:00       -2.510      -21.919        2.115       16.834       15.684        8.828      283.376      245.988       77.935        0.055        0.030       22.062        5.427        0.061      337.532        9.569      867.518
01/15/2015  15:42:00        6.932      -15.074        4.054       20.808       24.628       23.950      432.968      606.525      573.612        0.095        0.081       16.591       17.723        1.141      337.530        9.565      867.516
01/15/2015  15:43:00       -2.084      -29.188       -8.572       12.400       19.199       13.766      153.767      368.619      189.493        0.082        0.036       29.262       11.084        0.143      337.476        9.474      867.515
01/15/2015  15:44:00       -5.975      -11.482        4.308       11.548       10.947        9.476      133.345      119.834       89.801        0.026        0.017       12.944        6.307        0.237      337.527        9.563      867.521
01/15/2015  15:45:00       -5.527       -0.301        6.408       24.671       24.017       16.744      608.678      576.798      280.368        0.077        0.073        5.536       15.181        7.522      337.497        9.510      867.516
01/15/2015  15:46:00      -41.533        2.017        5.003       24.836       18.831       13.784      616.839      354.624      190.001        0.146        0.058       41.582       14.507        0.122      337.393        9.336      867.504
01/15/2015  15:47:00      -12.397        0.230       -3.192       14.196       12.220       11.407      201.523      149.336      130.118        0.032        0.024       12.400        8.272        0.445      337.445        9.423      867.498
01/15/2015  15:48:00       -5.674       -5.695        2.677       16.125       18.340       13.349      260.007      336.372      178.199        0.042        0.039        8.039       10.644        1.753      337.487        9.494      867.496
01/15/2015  15:49:00      -22.041       -5.698        3.867       34.142       30.764       16.821     1165.666      946.395      282.956        0.146        0.120       22.766       18.569        0.665      337.455        9.440      867.491
01/15/2015  15:50:00      -36.623       -4.615       -1.032       26.724       18.870        9.956      714.177      356.092       99.127        0.127        0.058       36.912        7.919        0.046      337.411        9.365      867.485
01/15/2015  15:51:00       -8.983        1.506        9.167       14.618       10.711        6.647      213.684      114.727       44.188        0.027        0.019        9.108        3.887        0.182      337.491        9.500      867.489
01/15/2015  15:52:00       11.990       26.702       18.910       18.566       13.923       20.167      344.711      193.846      406.724        0.108        0.047       29.271       15.702        0.288      337.447        9.428      867.488
01/15/2015  15:53:00      -14.281       24.896       58.664       15.159       24.515       15.428      229.806      600.976      238.018        0.267        0.053       28.701       15.599        0.295      337.555        9.609      867.470
01/15/2015  15:54:00        5.749        4.280       36.681       18.863       31.197       15.969      355.804      973.246      255.011        0.149        0.079        7.167       17.322        5.842      337.527        9.561      867.460
01/15/2015  15:55:00       47.072       58.958       48.068       47.348       30.110       25.464     2241.834      906.591      648.416        0.590        0.190       75.445       17.990        0.057      337.480        9.482      867.449
01/15/2015  15:56:00       55.959       69.624       55.121       25.969       20.748       18.681      674.376      430.496      348.986        0.624        0.073       89.325       12.444        0.019      337.491        9.501      867.446
01/15/2015  15:57:00       80.371       61.585       23.426       38.058       24.149       25.760     1448.410      583.179      663.561        0.675        0.135      101.253       18.582        0.034      337.385        9.324      867.445
01/15/2015  15:58:00       44.439       45.597       34.188       21.654       24.650       25.328      468.901      607.617      641.499        0.347        0.086       63.670       14.266        0.050      337.399        9.348      867.460
01/15/2015  15:59:00       25.642       55.669       38.753       19.725       17.325       17.426      389.089      300.172      303.649        0.313        0.050       61.291       12.725        0.043      337.424        9.387      867.481
01/15/2015  16:00:00       32.618       47.576       36.205       25.094       22.286       17.430      629.692      496.661      303.816        0.303        0.072       57.683       12.433        0.046      337.432        9.402      867.492
01/15/2015  16:01:00       15.713       49.811       47.253       22.872       17.431       12.726      523.109      303.828      161.949        0.297        0.049       52.231        8.573        0.027      337.437        9.410      867.497
01/15/2015  16:02:00       38.418       54.994       47.463       27.164       25.306       17.658      737.862      640.401      311.810        0.422        0.085       67.084        9.157        0.019      337.429        9.397      867.500
01/15/2015  16:03:00       35.565       68.199       55.628       32.083       17.898       19.699     1029.319      320.345      388.068        0.537        0.087       76.916       15.357        0.040      337.433        9.403      867.497
01/15/2015  16:04:00        1.048       13.313       24.527       20.045       23.614       20.969      401.801      557.623      439.689        0.109        0.070       13.354       16.743        1.572      337.426        9.392      867.496
01/15/2015  16:05:00        1.077      -27.905       15.874       34.847       37.796       23.271     1214.310     1428.543      541.518        0.211        0.159       27.926       22.808        0.667      337.476        9.476      867.503
01/15/2015  16:06:00       43.038      -22.324        6.540       33.712       31.549       25.717     1136.508      995.337      661.369        0.259        0.140       48.484       23.611        0.237      337.413        9.369      867.491
01/15/2015  16:07:00       87.037      -45.350      -11.847       33.269       50.029       26.707     1106.816     2502.865      713.265        0.705        0.216       98.143       29.321        0.089      337.386        9.325      867.488
01/15/2015  16:08:00       -3.243      -12.797       19.612       20.823       25.292       23.420      433.587      639.661      548.518        0.109        0.081       13.201       17.698        1.797      337.420        9.382      867.491
01/15/2015  16:09:00      -12.083      -12.066      -15.201       22.432       20.960       13.444      503.204      439.325      180.753        0.082        0.056       17.076       11.979        0.492      337.443        9.419      867.495
01/15/2015  16:10:00       -7.314       13.891        1.780       16.368       13.621       14.183      267.905      185.541      201.164        0.045        0.033       15.699        7.599        0.234      337.446        9.425      867.511
01/15/2015  16:11:00      -25.928       -1.019       -3.644       16.227       19.234       11.021      263.303      369.964      121.456        0.072        0.038       25.948        8.224        0.100      337.412        9.366      867.537
01/15/2015  16:12:00        8.789       -4.191        2.573       10.915       13.721        7.430      119.130      188.271       55.208        0.023        0.018        9.737        6.945        0.509      337.412        9.367      867.561
01/15/2015  16:13:00       -2.479        2.793        7.068       18.384       14.802       10.216      337.961      219.092      104.363        0.036        0.033        3.734        8.804        5.558      337.461        9.451      867.584
01/15/2015  16:14:00       -8.244      -11.121        4.014       16.032       23.326       14.809      257.017      544.120      219.296        0.061        0.051       13.843        3.192        0.053      337.396        9.341      867.600
01/15/2015  16:15:00      -24.648      -20.995       15.371       19.509       43.420       23.351      380.614     1885.272      545.251        0.205        0.141       32.377       20.369        0.396      337.448        9.428      867.604
01/15/2015  16:16:00      -19.854      -38.623        4.103       22.983       32.404       23.368      528.220     1050.015      546.070        0.201        0.106       43.427        5.830        0.018      337.419        9.379      867.608
01/15/2015  16:17:00      -21.978      -67.274      -22.934       34.711       29.046       12.082     1204.885      843.670      145.981        0.386        0.110       70.773        4.590        0.004      337.426        9.393      867.606
01/15/2015  16:18:00        2.197      -24.132       -4.831       22.435       28.309       19.407      503.332      801.423      376.625        0.115        0.084       24.232       19.855        0.671      337.465        9.455      867.592
01/15/2015  16:19:00      -13.508        0.671       20.827       15.608       41.826       12.993      243.620     1749.436      168.827        0.139        0.108       13.525        6.255        0.214      337.407        9.359      867.565
01/15/2015  16:20:00        1.432       17.677       38.841       14.789       30.314       21.433      218.717      918.920      459.391        0.171        0.080       17.734       16.619        0.878      337.443        9.418      867.556
01/15/2015  16:21:00        7.724        7.214       36.701       20.468       39.200       28.115      418.946     1536.637      790.425        0.210        0.137       10.569       24.893        5.548      337.452        9.435      867.568
01/15/2015  16:22:00       76.042      -86.997      -17.003       38.193       28.097       22.084     1458.724      789.447      487.699        0.819        0.137      115.545       16.048        0.019      337.449        9.430      867.575
01/15/2015  16:23:00       23.351      -44.549       10.612       48.693       44.537       26.766     2371.007     1983.538      716.443        0.386        0.254       50.298       24.274        0.233      337.431        9.402      867.581
01/15/2015  16:24:00       50.329      -42.885       17.398       41.271       38.536       31.281     1703.261     1484.989      978.525        0.442        0.208       66.122       32.059        0.235      337.422        9.384      867.581
01/15/2015  16:25:00      -11.198        9.897       15.405       14.578       28.699       22.879      212.512      823.634      523.446        0.101        0.078       14.945       21.755        2.119      337.349        9.261      867.620
01/15/2015  16:26:00        5.031        9.258       16.470       11.922       10.900       13.473      142.141      118.815      181.534        0.041        0.022       10.537        9.680        0.844      337.396        9.340      867.625
01/15/2015  16:27:00      -11.991      -14.645       -2.838       25.183       20.996       14.583      634.194      440.832      212.677        0.083        0.064       18.928       10.673        0.318      337.422        9.384      867.644
01/15/2015  16:28:00      -24.630       -5.729        7.018       18.084       22.678       18.420      327.048      514.313      339.285        0.093        0.059       25.287        8.592        0.115      337.360        9.281      867.654
01/15/2015  16:29:00      -45.117      -27.021       -5.682       34.311       33.090       32.578     1177.226     1094.975     1061.311        0.307        0.167       52.589       27.504        0.274      337.357        9.277      867.687
01/15/2015  16:30:00      -25.572      -30.100        0.373       35.285       31.740       16.132     1245.046     1007.408      260.255        0.204        0.126       39.496       10.259        0.067      337.366        9.292      867.737
01/15/2015  16:31:00      -18.846        5.643      -15.592       22.840       30.422       16.651      521.669      925.479      277.244        0.118        0.086       19.672        9.158        0.217      337.382        9.318      867.741
01/15/2015  16:32:00      -15.769      -13.953       12.106       18.891       32.709       21.226      356.858     1069.906      450.564        0.123        0.094       21.056       19.775        0.882      337.396        9.342      867.731
01/15/2015  16:33:00       -0.786        2.037       40.693       26.048       26.354       28.014      678.517      694.537      784.794        0.191        0.108        2.183       15.446       50.050      337.406        9.358      867.713
01/15/2015  16:34:00        0.270       32.396       59.586       29.749       44.519       33.209      885.007     1981.960     1102.871        0.428        0.198       32.398       29.948        0.855      337.404        9.355      867.681
01/15/2015  16:35:00        5.608       10.242       35.033       31.064       39.395       35.975      964.952     1551.983     1294.174        0.259        0.191       11.677       19.319        2.737      337.355        9.272      867.638
01/15/2015  16:36:00       13.191      -26.438       29.661       22.873       55.498       37.253      523.183     3080.045     1387.794        0.337        0.250       29.547       35.483        1.442      337.363        9.287      867.668
01/15/2015  16:37:00       23.652      -59.907       11.461       32.609       53.691       38.963     1063.315     2882.717     1518.141        0.487        0.273       64.407       40.014        0.386      337.466        9.458      867.687
01/15/2015  16:38:00       19.097      -54.604       17.434       37.845       44.680       37.133     1432.235     1996.341     1378.847        0.423        0.240       57.848       31.541        0.297      337.499        9.514      867.697
01/15/2015  16:39:00       43.649      -40.926        5.929       50.605       48.915       36.325     2560.902     2392.682     1319.509        0.494        0.314       59.834       37.311        0.389      337.399        9.347      867.705
01/15/2015  16:40:00       48.173      -29.189       19.012       52.690       48.760       29.299     2776.274     2377.514      858.421        0.477        0.301       56.327       36.207        0.413      337.365        9.289      867.705
01/15/2015  16:41:00        1.107      -20.136       26.884       13.666       34.095       19.698      186.751     1162.463      388.007        0.143        0.087       20.166       19.013        0.889      337.374        9.304      867.708
01/15/2015  16:42:00       -4.924       23.725       43.731       21.601       24.884       15.726      466.619      619.227      247.316        0.192        0.067       24.231       12.969        0.286      337.323        9.219      867.724
01/15/2015  16:43:00      -17.971        5.725        6.562       25.270       23.591       30.157      638.569      556.557      909.432        0.125        0.105       18.861       20.831        1.220      337.322        9.217      867.741
01/15/2015  16:44:00      -10.626        6.381      -12.141       27.415       16.791       18.862      751.590      281.947      355.761        0.084        0.069       12.394       11.367        0.841      337.304        9.187      867.758
01/15/2015  16:45:00        6.231        5.109       13.802       27.526       19.060       20.304      757.694      363.302      412.269        0.089        0.077        8.057       13.478        2.798      337.314        9.203      867.752
01/15/2015  16:46:00      -13.437       -9.547        4.302       13.966       19.531       14.194      195.048      381.477      201.477        0.053        0.039       16.483       14.097        0.731      337.331        9.232      867.772
01/15/2015  16:47:00      -14.014       -9.781       -1.443       19.414       14.626       14.651      376.887      213.928      214.663        0.055        0.040       17.090        7.443        0.190      337.302        9.185      867.799
01/15/2015  16:48:00        5.304        4.425       12.740        9.904        8.813       11.098       98.088       77.664      123.157        0.025        0.015        6.908        7.734        1.253      337.297        9.177      867.806
01/15/2015  16:49:00       22.377       13.915        7.534       16.076       18.299        9.118      258.423      334.844       83.144        0.071        0.034       26.351        6.770        0.066      337.315        9.206      867.797
01/15/2015  16:50:00        5.458        9.182       11.712       10.362       16.524        9.523      107.366      273.056       90.694        0.036        0.024       10.682        6.803        0.406      337.337        9.241      867.782
01/15/2015  16:51:00        5.625       21.241       12.884       16.515       15.002       16.949      272.743      225.056      287.262        0.072        0.039       21.973       11.448        0.271      337.249        9.097      867.758
01/15/2015  16:52:00       -8.236        6.827       39.099       21.441       34.421       24.455      459.730     1184.824      598.045        0.194        0.112       10.698       21.961        4.214      337.280        9.149      867.763
01/15/2015  16:53:00      -18.696      -10.580       29.066       19.289       36.421       21.672      372.066     1326.487      469.676        0.174        0.108       21.482       25.653        1.426      337.266        9.125      867.762
01/15/2015  16:54:00       45.372      -32.975       14.213       43.939       50.316       32.744     1930.621     2531.722     1072.142        0.444        0.277       56.089       40.596        0.524      337.292        9.169      867.744
01/15/2015  16:55:00       26.601        5.514       37.820       33.873       46.280       38.478     1147.348     2141.792     1480.589        0.347        0.238       27.167       33.764        1.545      337.293        9.170      867.713
01/15/2015  16:56:00       39.246      -22.860        8.982       40.770       44.864       32.272     1662.178     2012.779     1041.457        0.343        0.236       45.419       31.341        0.476      337.276        9.142      867.687
01/15/2015  16:57:00        9.501        9.751       37.931       22.337       30.482       18.230      498.924      929.129      332.330        0.169        0.088       13.614       17.676        1.686      337.277        9.142      867.685
01/15/2015  16:58:00        8.916       24.521       42.099       29.482       27.706       18.068      869.207      767.636      326.460        0.221        0.098       26.092       14.244        0.298      337.294        9.172      867.692
01/15/2015  16:59:00        9.138      -57.607        7.237       34.340       53.065       21.905     1179.206     2815.907      479.823        0.396        0.224       58.327       20.391        0.122      337.395        9.339      867.707
01/15/2015  17:00:00       50.140      -98.827      -10.826       37.262       31.814       17.823     1388.482     1012.116      317.643        0.756        0.136      110.819       13.071        0.014      337.371        9.300      867.710
01/15/2015  17:01:00       52.590      -54.823      -15.889       40.783       24.449       16.744     1663.236      597.768      280.371        0.428        0.127       75.969       12.707        0.028      337.301        9.183      867.718
01/15/2015  17:02:00      -12.385      -21.517      -17.132       23.577       32.541       13.205      555.853     1058.915      174.380        0.135        0.089       24.827       14.267        0.330      337.268        9.128      867.717
01/15/2015  17:03:00       -7.028       41.815       50.677       19.556       22.187       31.523      382.445      492.246      993.704        0.312        0.093       42.402       16.098        0.144      337.255        9.106      867.662
01/15/2015  17:04:00       17.812       64.241       62.548       25.015       28.821       18.765      625.745      830.625      352.141        0.508        0.090       66.664       16.800        0.064      337.294        9.171      867.601
01/15/2015  17:05:00       71.907       38.322       29.138       51.561       36.624       22.179     2658.513     1341.346      491.893        0.599        0.225       81.481       18.578        0.052      337.239        9.079      867.549
01/15/2015  17:06:00       83.723       47.038       39.618       51.713       31.837       27.220     2674.205     1013.594      740.924        0.761        0.221       96.032       29.559        0.095      337.189        8.996      867.522
01/15/2015  17:07:00        9.931       53.847       81.252       31.157       49.579       27.322      970.777     2458.112      746.473        0.689        0.209       54.755       28.693        0.275      337.166        8.958      867.521
01/15/2015  17:08:00       11.642       45.931       83.549       55.584       71.279       46.255     3089.573     5080.686     2139.540        0.977        0.515       47.384       56.409        1.417      337.203        9.018      867.487
01/15/2015  17:09:00       63.608      -25.456       19.017       51.888       47.451       38.047     2692.317     2251.622     1447.580        0.572        0.320       68.513       37.709        0.303      337.164        8.955      867.437
01/15/2015  17:10:00       23.785       25.309       48.533       34.074       45.065       38.000     1161.011     2030.857     1443.968        0.410        0.232       34.732       36.467        1.102      337.178        8.979      867.405
01/15/2015  17:11:00       85.840      -91.376       -5.887       30.402       34.881       19.392      924.293     1216.668      376.056        0.913        0.126      125.372       13.308        0.011      337.215        9.039      867.421
01/15/2015  17:12:00      117.518      -95.207       -9.166       38.500       39.798       20.035     1482.240     1583.903      401.419        1.321        0.173      151.245       11.481        0.006      337.180        8.979      867.454
01/15/2015  17:13:00       70.098      -74.297      -23.014       58.421       79.578       42.858     3413.018     6332.674     1836.790        1.127        0.579      102.146       46.917        0.211      337.188        8.993      867.457
01/15/2015  17:14:00        2.788      -23.216       44.348       42.728       50.151       44.897     1825.668     2515.082     2015.739        0.443        0.318       23.382       21.882        0.876      337.163        8.952      867.455
01/15/2015  17:15:00       79.548      -65.037        3.536       59.326       39.886       31.602     3519.609     1590.886      998.693        0.834        0.305      102.751       25.969        0.064      337.185        8.990      867.464
01/15/2015  17:16:00       -2.864       40.393       74.653       23.007       41.449       28.624      529.306     1717.986      819.315        0.514        0.153       40.495       30.127        0.553      337.147        8.925      867.455
01/15/2015  17:17:00       27.261       -6.147       24.462       31.438       46.859       28.400      988.322     2195.809      806.584        0.268        0.200       27.946       30.081        1.159      337.133        8.901      867.440
01/15/2015  17:18:00       11.104      -62.248       -0.583       29.601       23.406       22.346      876.246      547.842      499.335        0.296        0.096       63.231       16.743        0.070      337.298        9.178      867.458
01/15/2015  17:19:00      -18.546      -36.157        2.639       52.023       51.435       20.787     2706.439     2645.519      432.119        0.372        0.289       40.636       24.470        0.363      337.169        8.960      867.487
01/15/2015  17:20:00      -47.497       -2.547        7.459       42.376       36.380       27.955     1795.701     1323.541      781.494        0.311        0.195       47.565       26.796        0.317      337.091        8.829      867.490
01/15/2015  17:21:00        5.658       13.572       18.771       19.757        9.488       11.708      390.357       90.025      137.082        0.059        0.031       14.704        7.865        0.286      337.110        8.863      867.473
01/15/2015  17:22:00       21.599        2.134       -4.441       12.308       16.755       14.134      151.493      280.729      199.762        0.056        0.032       21.704        7.746        0.127      337.112        8.865      867.465
01/15/2015  17:23:00       -1.803      -30.513       -5.691       12.881       19.791       12.169      165.930      391.665      148.095        0.084        0.035       30.566        9.863        0.104      337.095        8.837      867.474
01/15/2015  17:24:00      -12.794      -14.123       -0.732       24.035       18.503       16.002      577.678      342.355      256.053        0.077        0.059       19.056       16.118        0.715      337.084        8.819      867.487
01/15/2015  17:25:00       16.303       16.084       19.906       32.259       21.293       21.896     1040.650      453.393      479.433        0.145        0.099       22.902       22.040        0.926      337.109        8.860      867.452
01/15/2015  17:26:00      -17.305       21.511       50.343       15.644       20.179       16.823      244.732      407.182      283.012        0.212        0.047       27.607       15.479        0.314      337.118        8.875      867.421
01/15/2015  17:27:00       -6.429        4.807        9.381       15.866       19.053       22.328      251.741      363.006      498.526        0.063        0.056        8.027       17.855        4.947      337.100        8.846      867.424
01/15/2015  17:28:00      -17.538       15.519       26.802       11.740       24.355       12.893      137.828      593.179      166.241        0.108        0.045       23.418       14.151        0.365      337.080        8.812      867.440
01/15/2015  17:29:00       67.460      -43.919       18.221       35.262       33.398       25.261     1243.377     1115.410      638.121        0.490        0.150       80.497       22.735        0.080      337.120        8.879      867.452
01/15/2015  17:30:00       39.031      -35.337       16.488       40.103       35.717       31.112     1608.231     1275.722      967.953        0.345        0.193       52.651       26.108        0.246      337.071        8.796      867.457
01/15/2015  17:31:00       30.260       18.778       40.875       38.886       64.250       45.086     1512.114     4128.077     2032.778        0.530        0.384       35.613       51.487        2.090      337.071        8.796      867.451
01/15/2015  17:32:00        1.413       34.790       62.016       22.291       37.100       17.095      496.889     1376.390      292.227        0.361        0.108       34.819       19.942        0.328      337.085        8.819      867.441
01/15/2015  17:33:00       36.402       34.542       32.391       38.061       25.724       23.086     1448.644      661.720      532.971        0.310        0.132       50.182       22.618        0.203      337.057        8.772      867.428
01/15/2015  17:34:00       61.947       19.031       39.721       27.891       31.700       22.715      777.924     1004.865      515.973        0.404        0.115       64.804       18.603        0.082      337.034        8.734      867.430
01/15/2015  17:35:00       23.195       11.681       29.414       32.099       25.071       22.144     1030.316      628.542      490.375        0.184        0.107       25.970       21.385        0.678      337.013        8.700      867.438
01/15/2015  17:36:00        8.303       19.915       37.346       13.522       18.062        8.229      182.840      326.219       67.717        0.122        0.029       21.576        2.139        0.010      337.042        8.748      867.434
01/15/2015  17:37:00       16.219        5.912       28.537       20.479       19.235       23.277      419.397      369.972      541.817        0.122        0.067       17.263       14.950        0.750      337.049        8.759      867.405
01/15/2015  17:38:00       11.049       30.909       54.916       20.601       35.297       20.554      424.416     1245.874      422.470        0.309        0.105       32.825       20.803        0.402      337.019        8.710      867.358
01/15/2015  17:39:00       -8.797       41.857       70.344       14.695       29.691       17.883      215.952      881.580      319.810        0.410        0.071       42.771       17.250        0.163      337.005        8.686      867.343
01/15/2015  17:40:00        3.941       43.246       63.723       33.714       24.236       19.617     1136.630      587.378      384.823        0.403        0.105       43.426       16.654        0.147      337.033        8.732      867.335
01/15/2015  17:41:00       52.862       52.568       36.852       24.852       22.782       14.753      617.639      519.042      217.644        0.413        0.068       74.551       11.882        0.025      336.968        8.624      867.317
01/15/2015  17:42:00       16.680        9.907       18.069       21.546       21.644       12.632      464.246      468.482      159.566        0.090        0.055       19.401        6.540        0.114      336.922        8.547      867.347
01/15/2015  17:43:00      -39.954       -3.060       -0.525       23.117       18.583       14.756      534.374      345.334      217.746        0.135        0.055       40.071        8.903        0.049      336.618        8.042      867.401
01/15/2015  17:44:00      -62.849       18.552       -1.065       42.705       28.762       18.891     1823.701      827.255      356.871        0.365        0.150       65.530       22.013        0.113      336.476        7.804      867.427
01/15/2015  17:45:00      -64.528       31.120        0.284       31.793       29.926       17.207     1010.792      895.539      296.072        0.367        0.110       71.640       14.649        0.042      336.547        7.922      867.383
01/15/2015  17:46:00      -30.088       18.334       -8.418       17.690       21.486       15.467      312.943      461.665      239.214        0.116        0.051       35.234       11.767        0.112      336.569        7.961      867.328
01/15/2015  17:47:00      -36.308       13.022       -3.741       22.729       15.629        8.194      516.595      244.270       67.147        0.116        0.041       38.572        9.238        0.057      336.544        7.918      867.305
01/15/2015  17:48:00      -41.963       21.068       -9.611       13.732        8.664        5.562      188.577       75.070       30.934        0.130        0.015       46.954        5.116        0.012      336.726        8.221      867.283
01/15/2015  17:49:00      -56.622        3.692       -6.620       14.103        6.292        3.992      198.891       39.591       15.937        0.176        0.013       56.742        1.231        0.000      336.662        8.114      867.271
01/15/2015  17:50:00      -79.209        4.614      -10.122       10.040       10.587        8.851      100.804      112.076       78.340        0.334        0.015       79.343        4.791        0.004      336.523        7.883      867.300
01/15/2015  17:51:00      -89.822        7.819      -14.116       17.485       11.262        7.860      305.709      126.839       61.786        0.441        0.025       90.161        5.884        0.004      336.502        7.848      867.319
01/15/2015  17:52:00      -82.291       32.320      -16.277       27.319       37.475       16.910      746.350     1404.387      285.951        0.526        0.122       88.410       12.076        0.019      336.455        7.769      867.325
01/15/2015  17:53:00     -107.355        2.151       -5.408       59.100       38.966       27.785     3492.772     1518.360      771.987        0.867        0.289      107.377       31.131        0.084      336.411        7.694      867.345
01/15/2015  17:54:00     -118.102       33.233      -22.340       33.243       32.428       19.756     1105.105     1051.603      390.319        0.905        0.127      122.688       14.025        0.013      336.333        7.562      867.353
01/15/2015  17:55:00     -100.642       70.314      -27.354       39.966       27.075       18.699     1597.295      733.078      349.666        0.925        0.134      122.772       17.085        0.019      336.480        7.810      867.331
01/15/2015  17:56:00     -107.729      112.407      -31.493       25.353       24.666       15.403      642.785      608.426      237.249        1.336        0.074      155.694        9.910        0.004      336.639        8.076      867.325
01/15/2015  17:57:00     -116.106       86.577      -22.398       24.877       22.366       15.661      618.889      500.252      245.281        1.142        0.068      144.831        9.949        0.005      336.673        8.134      867.350
01/15/2015  17:58:00     -108.757       24.977      -12.977       24.721       28.491       15.060      611.113      811.755      226.795        0.713        0.082      111.588       11.970        0.012      336.599        8.011      867.406
01/15/2015  17:59:00     -116.822      -17.350      -11.908       40.606       28.019       14.826     1648.887      785.045      219.800        0.837        0.133      118.104       10.965        0.009      336.450        7.760      867.475
01/15/2015  18:00:00     -131.657      -15.614      -24.393       27.378       24.878       17.756      749.559      618.910      315.270        0.993        0.084      132.580       15.451        0.014      336.330        7.559      867.525
01/15/2015  18:01:00     -119.436      -17.019      -14.319       26.897       27.196       18.309      723.445      739.621      335.229        0.828        0.090      120.643       12.624        0.011      336.313        7.530      867.542
01/15/2015  18:02:00      -87.005       -6.354       -9.724       30.918       40.470       18.537      955.901     1637.819      343.607        0.532        0.147       87.236        6.366        0.005      336.306        7.520      867.536
01/15/2015  18:03:00      -85.021       19.781       -7.574       31.333       27.925       14.907      981.758      779.803      222.206        0.483        0.099       87.292        4.100        0.002      336.332        7.562      867.534
01/15/2015  18:04:00      -84.204       10.457      -10.231       34.497       31.318       18.401     1190.040      980.812      338.585        0.491        0.125       84.851       18.752        0.049      336.330        7.561      867.544
01/15/2015  18:05:00      -92.491       -9.526      -12.321       45.485       40.386       21.537     2068.871     1630.995      463.840        0.648        0.208       92.980       20.877        0.050      336.349        7.591      867.551
01/15/2015  18:06:00      -62.820      -15.829       -4.310       40.626       34.168       20.567     1650.448     1167.456      423.001        0.373        0.162       64.783       12.619        0.038      336.258        7.438      867.558
01/15/2015  18:07:00      -74.918       35.580      -10.598       23.168       26.257       16.887      536.745      689.442      285.166        0.425        0.076       82.938       11.202        0.018      336.367        7.621      867.531
01/15/2015  18:08:00      -59.902       81.242       -7.323       38.486       30.924       23.485     1481.165      956.303      551.541        0.662        0.149      100.938       22.403        0.049      336.605        8.020      867.489
01/15/2015  18:09:00      -54.856      122.357      -19.444       38.169       30.371       19.972     1456.891      922.408      398.878        1.057        0.139      134.091       12.910        0.009      336.748        8.259      867.459
01/15/2015  18:10:00      -93.915       79.158      -19.936       27.147       25.073       21.340      736.937      628.658      455.411        0.865        0.091      122.825       18.025        0.022      336.687        8.158      867.466
01/15/2015  18:11:00      -83.564       14.032      -18.773       14.210       30.608       17.946      201.912      936.864      322.052        0.450        0.073       84.734        2.260        0.001      336.421        7.712      867.488
01/15/2015  18:12:00      -63.143       -5.900      -11.173       14.137       19.410       11.378      199.861      376.767      129.459        0.243        0.035       63.418        6.950        0.012      336.302        7.513      867.489
01/15/2015  18:13:00      -55.814       10.072      -13.983       11.198       20.305       10.478      125.404      412.293      109.781        0.203        0.032       56.716        4.475        0.006      336.426        7.719      867.474
01/15/2015  18:14:00      -32.344      -16.424       -9.863       15.937       13.096       11.245      254.003      171.518      126.450        0.098        0.028       36.275        6.155        0.029      336.371        7.629      867.452
01/15/2015  18:15:00      -11.131        8.261        2.002       23.207       17.110       12.390      538.558      292.766      153.512        0.059        0.049       13.861       11.782        0.722      336.667        8.123      867.430
01/15/2015  18:16:00      -20.527       45.071        2.668       22.180       42.243       14.338      491.938     1784.468      205.568        0.247        0.124       49.526       11.351        0.053      336.749        8.259      867.374
01/15/2015  18:17:00      -46.455       50.402       -9.977       30.573       30.032       16.905      934.706      901.908      285.781        0.346        0.106       68.545       11.864        0.030      336.675        8.136      867.333
01/15/2015  18:18:00      -87.401       40.404      -16.989       13.406       25.570       11.210      179.728      653.834      125.664        0.526        0.048       96.288        5.664        0.003      336.688        8.159      867.352
01/15/2015  18:19:00      -65.128       15.948      -12.586       15.079       25.512       13.999      227.371      650.878      195.981        0.286        0.054       67.052       10.106        0.023      336.430        7.726      867.394
01/15/2015  18:20:00      -84.292      -17.427       -9.308       22.108       16.879       10.094      488.756      284.903      101.898        0.419        0.044       86.075        5.651        0.004      336.418        7.707      867.433
01/15/2015  18:21:00      -52.720       -3.363       -6.087       20.581       13.660        9.507      423.575      186.604       90.380        0.176        0.035       52.827        4.303        0.007      336.429        7.724      867.452
01/15/2015  18:22:00      -54.870       14.458      -10.160       13.688       13.786       10.384      187.361      190.062      107.826        0.190        0.024       56.743        5.729        0.010      336.551        7.930      867.452
01/15/2015  18:23:00      -53.637        7.146       -7.713       14.142       17.073       11.228      199.989      291.472      126.064        0.180        0.031       54.111        8.863        0.027      336.553        7.932      867.436
01/15/2015  18:24:00      -43.713       26.893      -15.690       21.240       26.853       12.185      451.134      721.087      148.471        0.210        0.066       51.323        4.823        0.009      336.724        8.219      867.395
01/15/2015  18:25:00      -13.013       20.598        4.083       17.597       13.385       10.025      309.663      179.153      100.509        0.060        0.029       24.364        6.421        0.069      336.703        8.185      867.343
01/15/2015  18:26:00       18.372       21.849       -0.750       14.424       16.007       12.869      208.060      256.211      165.606        0.072        0.031       28.547       11.407        0.160      336.771        8.297      867.305
01/15/2015  18:27:00        0.026        0.544        3.457        5.737        2.216        3.550       32.916        4.909       12.603        0.003        0.003        0.545        3.141       33.201      336.730        8.231      867.303
01/15/2015  18:28:00       -0.798       -3.125        2.909        4.655        5.282        4.094       21.669       27.902       16.759        0.004        0.003        3.225        3.488        1.170      336.739        8.245      867.317
01/15/2015  18:29:00        1.174      -29.020       -2.605        8.733        8.575        8.295       76.267       73.524       68.813        0.053        0.011       29.044        6.371        0.048      336.785        8.320      867.339
01/15/2015  18:30:00        4.556      -32.667       -2.136       13.202       18.091       19.171      174.288      327.283      367.526        0.098        0.043       32.983       10.548        0.102      336.757        8.275      867.364
01/15/2015  18:31:00       11.351      -15.236        6.422       21.848       28.121       16.030      477.329      790.801      256.969        0.096        0.076       18.999       12.635        0.442      336.725        8.221      867.369
01/15/2015  18:32:00        9.283        3.718       22.824       20.642       21.400       17.636      426.080      457.969      311.039        0.091        0.060        9.999       13.551        1.836      336.707        8.190      867.357
01/15/2015  18:33:00       -5.353       30.266       35.150        6.121       13.621       11.277       37.464      185.545      127.176        0.127        0.018       30.736        6.746        0.048      336.714        8.203      867.365
01/15/2015  18:34:00       14.054       17.499       15.477       13.824        7.278       15.235      191.093       52.967      232.117        0.061        0.024       22.444        5.475        0.060      336.770        8.298      867.396
01/15/2015  18:35:00      -11.556        9.780        0.556        7.091        7.409        2.871       50.289       54.886        8.244        0.017        0.006       15.139        3.234        0.046      336.786        8.324      867.434
01/15/2015  18:36:00      -44.449       42.782       -7.981       30.320       20.802        8.127      919.312      432.712       66.043        0.264        0.071       61.693       10.661        0.030      336.620        8.046      867.460
01/15/2015  18:37:00      -68.701        8.816      -10.475       15.980       19.438       11.244      255.375      377.827      126.419        0.283        0.038       69.264       10.334        0.022      336.326        7.552      867.478
01/15/2015  18:38:00      -86.032       10.993      -15.805       23.257       20.650       13.698      540.881      426.402      187.647        0.446        0.058       86.732       13.068        0.023      336.243        7.413      867.473
01/15/2015  18:39:00      -95.099       55.144      -15.597       31.960       31.776       17.922     1021.438     1009.703      321.190        0.734        0.118      109.930       11.437        0.011      336.125        7.217      867.430
01/15/2015  18:40:00      -80.227       83.869      -20.640       23.743       31.023       13.930      563.734      962.421      194.041        0.781        0.086      116.062       12.247        0.011      336.427        7.722      867.378
01/15/2015  18:41:00       -5.814      100.225       -6.913       19.170       26.890       15.458      367.489      723.082      238.962        0.573        0.066      100.393       13.510        0.018      336.605        8.019      867.364
01/15/2015  18:42:00       26.596       64.748       -3.817       22.274       25.021       15.777      496.119      626.074      248.904        0.314        0.069       69.998       11.649        0.028      336.450        7.760      867.390
01/15/2015  18:43:00       67.703       38.464        0.336        9.168       13.517        9.279       84.053      182.709       86.107        0.321        0.018       77.866        4.175        0.003      336.460        7.776      867.414
01/15/2015  18:44:00       23.091       16.171        1.732       15.675       14.945        8.978      245.710      223.362       80.598        0.067        0.027       28.190        6.161        0.048      336.507        7.857      867.422
01/15/2015  18:45:00        3.970       23.218       -4.536       12.321        8.801        5.173      151.803       77.455       26.757        0.042        0.013       23.555        4.537        0.037      336.644        8.085      867.432
01/15/2015  18:46:00      -28.123       21.227       -6.602       20.072       15.296        4.851      402.880      233.969       23.528        0.097        0.033       35.234        2.675        0.006      336.492        7.829      867.446
01/15/2015  18:47:00      -64.769      -20.128       -8.325       12.281       14.094        5.939      150.833      198.628       35.267        0.253        0.019       67.824        1.871        0.001      336.217        7.371      867.459
01/15/2015  18:48:00      -71.809      -25.356       -3.358       26.487       15.765       13.028      701.553      248.548      169.723        0.347        0.056       76.154       13.224        0.030      336.191        7.327      867.459
01/15/2015  18:49:00      -86.661        1.886      -11.178       17.658       16.415       10.928      311.788      269.438      119.414        0.417        0.035       86.681        7.557        0.008      336.255        7.433      867.432
01/15/2015  18:50:00      -76.751        6.780      -20.334       23.239       15.778       10.387      540.058      248.943      107.895        0.362        0.045       77.050        9.265        0.014      336.323        7.549      867.407
01/15/2015  18:51:00      -23.367       -6.546       -5.034        8.517       12.636        9.794       72.533      159.665       95.914        0.047        0.016       24.267        8.729        0.129      336.361        7.610      867.376
01/15/2015  18:52:00       -0.597        1.545       -3.384       18.504       11.469        5.500      342.382      131.535       30.245        0.026        0.025        1.656        7.663       21.413      336.584        7.985      867.365
01/15/2015  18:53:00       15.226        0.657        1.508       17.725       10.094       10.691      314.174      101.893      114.291        0.038        0.027       15.240        7.148        0.220      336.596        8.005      867.371
01/15/2015  18:54:00        1.730        3.697       15.572        8.201       18.499       11.708       67.256      342.214      137.085        0.040        0.027        4.082       11.676        8.181      336.506        7.853      867.372
01/15/2015  18:55:00      -19.001      -21.296        3.546       11.723       13.993        9.174      137.421      195.803       84.166        0.062        0.021       28.541        6.573        0.053      336.523        7.883      867.366
01/15/2015  18:56:00      -14.728        4.930       15.897       14.908        4.985        5.752      222.243       24.851       33.089        0.039        0.014       15.531        7.110        0.210      336.466        7.787      867.358
01/15/2015  18:57:00       21.203       44.571       -4.267        8.385       11.521       11.988       70.308      132.726      143.708        0.140        0.017       49.357        9.899        0.040      336.549        7.924      867.375
01/15/2015  18:58:00       -3.644        9.660       -3.567       11.063       15.361        3.392      122.383      235.956       11.509        0.024        0.018       10.325        1.830        0.031      336.619        8.047      867.426
01/15/2015  18:59:00      -38.038      -32.146      -10.594       12.491       11.030        7.101      156.015      121.656       50.427        0.146        0.016       49.802        4.228        0.007      336.378        7.639      867.501
01/15/2015  19:00:00      -60.307      -23.817       -6.254        9.818       12.312       10.471       96.384      151.589      109.638        0.230        0.018       64.840        1.918        0.001      336.294        7.497      867.553
01/15/2015  19:01:00      -20.345        0.015       -3.442       20.761        6.254        7.868      431.014       39.115       61.913        0.048        0.027       20.345        9.789        0.232      336.309        7.525      867.567
01/15/2015  19:02:00       19.490       18.759        8.396       10.650       13.107        8.998      113.427      171.799       80.967        0.058        0.018       27.051        4.249        0.025      336.421        7.710      867.572
01/15/2015  19:03:00       -9.512      -11.060       10.538       18.359       25.404       13.869      337.058      645.356      192.353        0.075        0.059       14.588       16.850        1.334      336.446        7.753      867.612
01/15/2015  19:04:00      -16.807      -12.984        7.216       12.584       11.696        8.800      158.348      136.805       77.448        0.044        0.019       21.238        3.090        0.021      336.422        7.713      867.670
01/15/2015  19:05:00       18.722        4.214        8.386       14.184       10.831        9.630      201.198      117.308       92.742        0.042        0.021       19.190        7.985        0.173      336.613        8.033      867.687
01/15/2015  19:06:00       33.422       31.618       26.701       24.527       14.203       15.304      601.590      201.714      234.212        0.193        0.052       46.007       13.993        0.093      336.712        8.199      867.702
01/15/2015  19:07:00       -5.310       21.318       41.669       13.152       23.665       12.462      172.971      560.040      155.308        0.155        0.044       21.970       15.107        0.473      336.616        8.038      867.718
01/15/2015  19:08:00       -8.629       22.196       43.485       10.047       20.210       15.801      100.934      408.435      249.673        0.161        0.038       23.814       14.422        0.367      336.471        7.796      867.718
01/15/2015  19:09:00       34.301        6.384        6.780       28.817       23.697       21.272      830.393      561.533      452.509        0.155        0.092       34.890       22.875        0.430      336.533        7.901      867.708
01/15/2015  19:10:00       51.725       -0.365        9.389       30.621       21.883       12.290      937.672      478.847      151.045        0.217        0.078       51.726        8.092        0.024      336.458        7.772      867.731
01/15/2015  19:11:00       27.829       10.052        2.041       19.542       17.146       10.358      381.902      293.968      107.288        0.083        0.039       29.589        8.199        0.077      336.448        7.757      867.759
01/15/2015  19:12:00       16.175       12.182       10.760       17.744       12.561       14.311      314.862      157.780      204.807        0.060        0.034       20.249       10.690        0.279      336.439        7.740      867.778
01/15/2015  19:13:00        1.575       29.086       -1.688        7.241        7.232        5.779       52.437       52.303       33.401        0.049        0.007       29.129        4.235        0.021      336.443        7.749      867.766
01/15/2015  19:14:00       -6.459       41.064       -3.224       12.392       10.885        7.395      153.557      118.481       54.680        0.103        0.016       41.569        6.442        0.024      336.523        7.881      867.731
01/15/2015  19:15:00       -4.228       33.965       -5.623        7.473       12.910        5.109       55.851      166.676       26.100        0.073        0.012       34.227        6.186        0.033      336.473        7.798      867.706
01/15/2015  19:16:00      -25.824        7.892       -4.718        8.688       16.783        6.951       75.481      281.656       48.323        0.058        0.020       27.004        3.735        0.019      336.396        7.669      867.708
01/15/2015  19:17:00      -30.859      -19.068       -5.910       11.464        6.428        5.277      131.413       41.316       27.842        0.078        0.010       36.275        5.047        0.019      336.323        7.547      867.704
01/15/2015  19:18:00       -7.995      -16.215       -6.608        6.008        5.857        4.493       36.096       34.302       20.185        0.023        0.005       18.079        2.975        0.027      336.324        7.550      867.688
01/15/2015  19:19:00       10.619       -0.026       -6.088       21.940        4.804        7.874      481.352       23.080       61.994        0.036        0.028       10.619        9.507        0.802      336.505        7.851      867.663
01/15/2015  19:20:00       27.618       16.106        3.357       17.552       11.494       10.283      308.079      132.101      105.748        0.079        0.027       31.972        5.723        0.032      336.486        7.820      867.658
01/15/2015  19:21:00        9.604       10.746       20.443       20.593       17.237       16.025      424.087      297.112      256.814        0.080        0.049       14.412       18.706        1.685      336.501        7.846      867.682
01/15/2015  19:22:00        6.741       -2.782        5.363       21.209       14.267       11.330      449.830      203.553      128.376        0.043        0.039        7.292        8.245        1.278      336.636        8.073      867.725
01/15/2015  19:23:00      -27.668      -25.675       15.695       14.786       16.722       11.007      218.621      279.617      121.151        0.115        0.031       37.746       10.405        0.076      336.518        7.874      867.769
01/15/2015  19:24:00      -26.180        0.636        1.962       27.933       12.259       10.115      780.244      150.295      102.314        0.086        0.052       26.188        4.706        0.032      336.393        7.664      867.802
01/15/2015  19:25:00      -25.040      -16.222       -5.850       20.675        8.249       13.647      427.460       68.039      186.245        0.080        0.034       29.836       13.779        0.213      336.287        7.487      867.817
01/15/2015  19:26:00       -2.076       -0.801        6.288       23.998        9.906        9.691      575.894       98.127       93.924        0.041        0.038        2.225        5.253        5.573      336.429        7.725      867.809
01/15/2015  19:27:00       30.079       35.952        1.490       17.297       16.719       11.732      299.202      279.523      137.644        0.146        0.036       46.876        9.739        0.043      336.651        8.097      867.793
01/15/2015  19:28:00       56.500       30.822        7.793       20.690       17.808       14.652      428.057      317.124      214.677        0.258        0.048       64.361       12.452        0.037      336.556        7.937      867.774
01/15/2015  19:29:00       68.598       29.409       15.493       26.941       19.804       19.752      725.840      392.192      390.122        0.366        0.075       74.637       16.201        0.047      336.528        7.891      867.774
01/15/2015  19:30:00       32.453       59.286       45.879       23.903       24.057       24.081      571.363      578.734      579.917        0.420        0.087       67.587       19.005        0.079      336.467        7.788      867.795
01/15/2015  19:31:00       75.079       44.008       29.318       23.583       20.289       22.319      556.160      411.643      498.121        0.495        0.073       87.026       16.740        0.037      336.444        7.749      867.818
01/15/2015  19:32:00       82.119       47.286       27.708       18.511       16.094       19.255      342.676      259.014      370.772        0.536        0.049       94.760       11.187        0.014      336.405        7.686      867.820
01/15/2015  19:33:00       55.397       37.330       30.263       24.553       25.325       20.132      602.843      641.375      405.286        0.351        0.082       66.801        9.420        0.020      336.496        7.838      867.823
01/15/2015  19:34:00       51.773       28.763       20.500       18.699       15.518       17.039      349.663      240.800      290.314        0.240        0.044       59.227       11.985        0.041      336.461        7.778      867.834
01/15/2015  19:35:00       50.471       21.979       13.268       17.001        8.834       10.934      289.023       78.045      119.546        0.185        0.024       55.049        9.671        0.031      336.454        7.766      867.846
01/15/2015  19:36:00       62.070       33.171        8.637        9.883       10.435        8.844       97.675      108.889       78.213        0.266        0.014       70.378        1.984        0.001      336.467        7.788      867.850
01/15/2015  19:37:00       30.361       13.427       18.566       17.455       14.306       16.222      304.693      204.674      263.153        0.111        0.039       33.198        9.496        0.082      336.466        7.785      867.851
01/15/2015  19:38:00        1.113       42.285       50.537       17.858       17.447        8.710      318.899      304.413       75.865        0.252        0.035       42.299        8.413        0.040      336.473        7.797      867.847
01/15/2015  19:39:00        8.089       60.364       61.689       20.165       20.172       12.979      406.630      406.910      168.464        0.425        0.049       60.904       12.764        0.044      336.418        7.707      867.836
01/15/2015  19:40:00       29.453       56.448       59.300       21.071       24.749       16.245      443.978      612.493      263.910        0.445        0.066       63.670       13.159        0.043      336.356        7.603      867.818
01/15/2015  19:41:00       43.665       24.729       23.075       28.448       26.901       17.778      809.315      723.653      316.070        0.245        0.092       50.182        9.676        0.037      336.306        7.520      867.822
01/15/2015  19:42:00       23.769        6.650       15.353       21.443       22.599       12.559      459.807      510.723      157.723        0.099        0.056       24.682       12.657        0.263      336.311        7.527      867.847
01/15/2015  19:43:00       23.598       18.507       16.219       18.326       11.282       12.563      335.850      127.281      157.817        0.089        0.031       29.990        5.075        0.029      336.354        7.601      867.870
01/15/2015  19:44:00       16.714       19.693        5.828       10.226        6.536        5.949      104.579       42.714       35.396        0.044        0.009       25.830        5.764        0.050      336.353        7.599      867.897
01/15/2015  19:45:00      -23.175        8.660       -2.981       25.038        5.518        5.291      626.911       30.449       27.998        0.065        0.034       24.740        9.239        0.139      336.363        7.614      867.931
01/15/2015  19:46:00     -108.837       24.782      -16.428       43.552       37.066       23.844     1896.754     1373.860      568.525        0.828        0.192      111.623       18.992        0.029      336.541        7.913      867.951
01/15/2015  19:47:00        0.314       58.358       -3.179       25.230       40.429       19.071      636.547     1634.538      363.684        0.302        0.132       58.359       18.950        0.105      336.722        8.217      867.951
01/15/2015  19:48:00        2.109       43.052        0.924       23.643       20.739       13.734      558.969      430.104      188.617        0.152        0.059       43.104       12.748        0.087      336.645        8.086      867.937
01/15/2015  19:49:00      -38.233       23.382       -4.206       20.633       18.998       15.873      425.739      360.914      251.961        0.153        0.052       44.816       11.506        0.066      336.576        7.971      867.921
01/15/2015  19:50:00      -53.913      -26.826       -2.785       20.385       27.413       11.415      415.565      751.451      130.305        0.247        0.065       60.218        6.282        0.011      336.209        7.358      867.925
01/15/2015  19:51:00       -6.295      -20.133        9.853       18.851       17.260       12.617      355.364      297.918      159.186        0.068        0.041       21.094        8.385        0.158      336.289        7.490      867.941
01/15/2015  19:52:00        9.596       -6.126       22.928       16.764       17.765       13.647      281.045      315.587      186.245        0.072        0.039       11.385       10.447        0.842      336.413        7.699      867.935
01/15/2015  19:53:00       10.764       13.675       13.551        8.424        8.742       11.047       70.960       76.430      122.028        0.038        0.013       17.403        5.118        0.087      336.373        7.631      867.903
01/15/2015  19:54:00       23.176       17.129        7.716        9.961        9.161        8.064       99.220       83.926       65.022        0.057        0.012       28.818        4.676        0.026      336.451        7.762      867.877
01/15/2015  19:55:00       14.863        5.238       -1.195        6.225        4.203        4.814       38.749       17.661       23.172        0.016        0.004       15.759        4.146        0.069      336.565        7.952      867.860
01/15/2015  19:56:00        1.513        3.613       -3.533        5.391        6.797        5.486       29.061       46.197       30.098        0.007        0.005        3.917        3.887        0.984      336.697        8.174      867.850
01/15/2015  19:57:00        3.527        5.408        9.511        6.635        6.104        4.474       44.017       37.257       20.021        0.012        0.005        6.456        3.015        0.218      336.671        8.132      867.828
01/15/2015  19:58:00        5.406        3.876       10.341        9.639        8.329        6.442       92.906       69.368       41.504        0.018        0.010        6.652        5.429        0.666      336.658        8.109      867.799
01/15/2015  19:59:00       -2.548       -9.506       16.576        8.546        9.368        6.899       73.032       87.751       47.600        0.029        0.010        9.841        5.529        0.316      336.631        8.062      867.758
01/15/2015  20:00:00        1.855      -19.038        2.629       13.715       16.657       10.456      188.105      277.468      109.337        0.047        0.029       19.128        5.823        0.093      336.583        7.982      867.715
01/15/2015  20:01:00        9.452      -35.127       -1.903       26.416       19.982       12.883      697.782      399.280      165.983        0.129        0.063       36.376       11.804        0.105      336.586        7.987      867.670
01/15/2015  20:02:00      -11.585       -6.573       14.338        9.558        7.977        5.765       91.355       63.640       33.232        0.029        0.009       13.320        4.801        0.130      336.609        8.026      867.630
01/15/2015  20:03:00       -2.623       -7.357        8.552        8.869        8.556        7.432       78.667       73.208       55.240        0.017        0.010        7.811        3.439        0.194      336.556        7.936      867.605
01/15/2015  20:04:00       -3.191      -39.209       -5.091       23.066       26.777       16.512      532.053      716.985      272.657        0.155        0.076       39.339       11.784        0.090      336.556        7.939      867.613
01/15/2015  20:05:00      -26.874      -44.214        4.325       30.315       25.183       19.821      918.970      634.202      392.856        0.232        0.097       51.740       15.188        0.086      336.517        7.871      867.662
01/15/2015  20:06:00      -79.745      -90.472       -5.945       45.477       43.665       26.817     2068.182     1906.612      719.139        0.964        0.235      120.601       24.754        0.042      336.555        7.937      867.693
01/15/2015  20:07:00      -72.448      -82.780       -2.531       52.368       41.705       22.276     2742.452     1739.290      496.232        0.854        0.249      110.006       22.990        0.044      336.521        7.880      867.667
01/15/2015  20:08:00      -45.792      -23.896        8.534       33.490       31.905       23.659     1121.563     1017.926      559.768        0.272        0.135       51.652       15.713        0.093      336.522        7.880      867.623
01/15/2015  20:09:00      -81.520      -65.015        5.902       73.488       55.500       30.430     5400.429     3080.212      925.997        1.016        0.470      104.271       35.766        0.118      336.456        7.769      867.608
01/15/2015  20:10:00     -107.852      -99.459       -1.584       49.694       51.606       29.894     2469.477     2663.147      893.629        1.378        0.301      146.711       25.371        0.030      336.368        7.621      867.593
01/15/2015  20:11:00      -44.728      -94.512       -4.673       39.146       48.872       26.275     1532.421     2388.456      690.363        0.778        0.231      104.562       25.229        0.058      336.358        7.605      867.542
01/15/2015  20:12:00       -8.618      -19.677       22.528       42.764       34.915       24.511     1828.730     1219.073      600.793        0.231        0.182       21.481       16.290        0.575      336.341        7.578      867.477
01/15/2015  20:13:00      -20.667       -7.275       17.611       22.188       24.360       14.188      492.306      593.394      201.303        0.104        0.064       21.910       13.106        0.358      336.309        7.523      867.408
01/15/2015  20:14:00       -6.969        5.961        5.825       25.273       29.148       28.041      638.710      849.621      786.316        0.120        0.114        9.171       23.886        6.783      336.295        7.502      867.324
01/15/2015  20:15:00        6.678       40.588       57.563       20.658       21.956       12.883      426.741      482.046      165.968        0.304        0.054       41.134       11.069        0.072      336.306        7.518      867.218
01/15/2015  20:16:00       29.028        7.071        5.063       25.394       26.753       17.299      644.848      715.708      299.260        0.129        0.083       29.877        9.975        0.111      336.297        7.504      867.153
01/15/2015  20:17:00        2.162       -7.010        1.547       11.545        7.670        8.274      133.285       58.823       68.458        0.016        0.013        7.336        4.468        0.371      336.277        7.470      867.178
01/15/2015  20:18:00      -62.487      -28.425       -6.739       29.205       19.607       10.206      852.931      384.438      104.171        0.305        0.067       68.648        9.082        0.018      336.288        7.488      867.236
01/15/2015  20:19:00      -92.513      -63.137        0.026       43.487       26.583       26.936     1891.083      706.658      725.557        0.793        0.166      112.004       23.859        0.045      336.240        7.407      867.266
01/15/2015  20:20:00      -98.301      -86.948       -1.175       51.391       38.875       26.367     2640.987     1511.300      695.234        1.104        0.242      131.236       13.197        0.010      336.240        7.410      867.259
01/15/2015  20:21:00     -108.115      -70.934       -3.829       36.400       38.082       24.326     1324.929     1450.273      591.753        1.005        0.168      129.308       19.446        0.023      336.259        7.442      867.240
01/15/2015  20:22:00      -88.025      -58.820       -5.083       63.831       29.229       23.905     4074.357      854.317      571.452        0.837        0.275      105.869       30.684        0.084      336.222        7.378      867.260
01/15/2015  20:23:00     -127.036      -69.349      -10.617       60.474       45.779       24.467     3657.157     2095.733      598.640        1.370        0.318      144.732       28.330        0.038      336.136        7.236      867.322
01/15/2015  20:24:00      -68.857      -17.075       -3.162       43.643       45.623       24.615     1904.742     2081.470      605.878        0.482        0.230       70.943       25.515        0.129      336.099        7.172      867.340
01/15/2015  20:25:00      -77.090      -67.311      -11.772       52.381       65.624       35.720     2743.758     4306.462     1275.915        0.947        0.416      102.341       39.456        0.149      336.061        7.110      867.299
01/15/2015  20:26:00      -17.462      -53.954        5.546       28.160       32.545       24.427      793.007     1059.172      596.693        0.285        0.122       56.710       22.525        0.158      336.073        7.129      867.260
01/15/2015  20:27:00      -56.797      -11.301       -5.238       18.000       22.275       11.475      323.986      496.188      131.673        0.217        0.048       57.910        8.749        0.023      336.079        7.139      867.260
01/15/2015  20:28:00      -83.431      -36.924       -0.654       27.515       41.837       17.733      757.069     1750.325      314.459        0.557        0.141       91.237       17.061        0.035      336.047        7.086      867.271
01/15/2015  20:29:00      -65.210      -55.381       -1.476       40.577       32.636       18.143     1646.461     1065.114      329.161        0.518        0.152       85.553       19.098        0.050      336.039        7.072      867.244
01/15/2015  20:30:00      -36.895        3.194       -1.196       15.793       21.247       14.244      249.411      451.452      202.877        0.114        0.045       37.033        9.936        0.072      336.069        7.123      867.176
01/15/2015  20:31:00      -28.752       33.243        0.493       18.503       25.013       16.532      342.367      625.643      273.323        0.159        0.062       43.952       15.364        0.122      335.990        6.991      867.128
01/15/2015  20:32:00      -50.473       11.231       -2.211       21.769       20.533       11.086      473.870      421.604      122.891        0.185        0.051       51.707        3.215        0.004      335.939        6.907      867.125
01/15/2015  20:33:00      -58.371      -24.940        1.259       28.877       23.658       14.856      833.887      559.720      220.714        0.282        0.081       63.476       15.107        0.057      335.885        6.816      867.136
01/15/2015  20:34:00      -47.769       -8.204        6.474       32.214       21.903       14.401     1037.720      479.723      207.400        0.206        0.086       48.469       15.509        0.102      335.953        6.931      867.101
01/15/2015  20:35:00      -47.705        5.591       -3.754       23.187       10.577       12.303      537.653      111.878      151.374        0.156        0.040       48.031       13.885        0.084      335.985        6.984      867.030
01/15/2015  20:36:00      -75.689       12.373      -11.121        9.663        8.377        8.706       93.381       70.172       75.802        0.312        0.012       76.694        4.858        0.004      335.989        6.990      867.001
01/15/2015  20:37:00     -111.416       10.576      -13.265       19.731       17.447       11.666      389.310      304.412      136.088        0.677        0.041      111.917        7.491        0.004      335.921        6.877      867.030
01/15/2015  20:38:00     -112.362      -10.538      -12.091       22.306       21.464       11.714      497.554      460.706      137.225        0.699        0.055      112.855        9.523        0.007      335.891        6.828      867.050
01/15/2015  20:39:00      -81.747        3.452      -11.410       23.981       23.168       10.721      575.069      536.763      114.934        0.403        0.061       81.820       10.061        0.015      335.837        6.735      867.054
01/15/2015  20:40:00      -63.049       44.045      -14.667       19.222       13.265       11.389      369.501      175.951      129.702        0.340        0.034       76.910       10.845        0.020      335.896        6.834      867.036
01/15/2015  20:41:00      -48.909       39.383      -12.332       10.797        9.983        7.138      116.570       99.659       50.958        0.218        0.013       62.794        7.299        0.014      336.003        7.013      867.005
01/15/2015  20:42:00      -35.239       27.928       -5.676        5.664        6.419        3.873       32.078       41.208       15.001        0.107        0.004       44.964        1.921        0.002      336.009        7.023      866.981
01/15/2015  20:43:00      -31.111        9.624       -2.213       11.300        8.481        7.381      127.682       71.927       54.486        0.066        0.013       32.566        4.825        0.022      335.935        6.902      866.986
01/15/2015  20:44:00      -64.963       15.468       -2.617       23.447        8.203        6.918      549.785       67.284       47.861        0.257        0.033       66.780        8.122        0.015      335.975        6.966      867.035
01/15/2015  20:45:00      -79.246       -1.016       -8.315       21.567       19.953       12.882      465.138      398.111      165.941        0.369        0.051       79.252       11.238        0.020      335.772        6.631      867.104
01/15/2015  20:46:00      -77.073       -2.914       -1.414       34.955       31.217       22.151     1221.850      974.510      490.669        0.432        0.134       77.128       17.310        0.050      335.652        6.429      867.151
01/15/2015  20:47:00     -127.153       24.780      -11.817       35.843       25.952       19.213     1284.733      673.490      369.133        0.962        0.116      129.545       13.806        0.011      335.639        6.408      867.186
01/15/2015  20:48:00     -136.302       47.026      -11.282       35.696       23.865       20.462     1274.186      569.519      418.710        1.159        0.113      144.186       16.753        0.014      335.724        6.548      867.212
01/15/2015  20:49:00     -122.458       36.114      -19.566       35.776       37.029       19.232     1279.946     1371.163      369.870        0.985        0.151      127.672       13.525        0.011      335.782        6.646      867.232
01/15/2015  20:50:00      -70.378      -11.646        1.033       39.148       35.138       25.007     1532.543     1234.683      625.366        0.424        0.170       71.335       23.862        0.112      335.697        6.504      867.258
01/15/2015  20:51:00     -134.942       10.824      -16.644       39.020       34.201       21.402     1522.596     1169.702      458.026        1.088        0.158      135.375       20.152        0.022      335.643        6.414      867.292
01/15/2015  20:52:00     -193.553       30.249      -23.125       40.198       28.263       18.366     1615.843      798.821      337.298        2.083        0.138      195.902       12.748        0.004      335.576        6.300      867.325
01/15/2015  20:53:00     -169.023       15.888      -21.256       56.303       40.408       20.684     3170.001     1632.797      427.835        1.725        0.262      169.768       19.030        0.013      335.505        6.182      867.379
01/15/2015  20:54:00     -119.867      -18.132      -16.039       36.813       38.219       26.040     1355.189     1460.674      678.083        0.922        0.175      121.231       22.306        0.034      335.501        6.177      867.406
01/15/2015  20:55:00     -119.523      -14.467      -14.034       35.381       34.449       23.257     1251.809     1186.743      540.871        0.884        0.149      120.395       16.196        0.018      335.531        6.225      867.396
01/15/2015  20:56:00      -63.520      -31.103       -5.397       31.417       22.233       18.810      987.030      494.315      353.803        0.343        0.092       70.726       15.979        0.051      335.526        6.219      867.357
01/15/2015  20:57:00      -58.900       -1.111       -7.957       29.730       25.573       13.750      883.862      653.977      189.074        0.263        0.086       58.911       12.942        0.048      335.534        6.233      867.318
01/15/2015  20:58:00     -106.029      -13.477      -13.124       14.799       33.537       13.218      219.010     1124.758      174.721        0.656        0.076      106.882       14.988        0.020      335.566        6.285      867.272
01/15/2015  20:59:00      -76.192      -12.126       -0.302       23.794       22.956       16.080      566.135      526.988      258.560        0.365        0.068       77.151       12.621        0.027      335.538        6.239      867.232
01/15/2015  21:00:00      -67.107      -16.135       -1.589       25.075       10.874       12.159      628.753      118.249      147.840        0.283        0.045       69.020       10.988        0.025      335.573        6.296      867.206
01/15/2015  21:01:00      -92.676      -17.862       -8.264       16.043       16.937       13.694      257.389      286.868      187.537        0.485        0.037       94.381       10.721        0.013      335.845        6.750      867.168
01/15/2015  21:02:00     -105.119        0.905       -8.366       15.518       18.347        8.065      240.809      336.619       65.040        0.588        0.032      105.123        5.309        0.003      335.838        6.739      867.147
01/15/2015  21:03:00     -115.847        0.856       -9.261       19.312       25.077       13.501      372.959      628.858      182.271        0.735        0.059      115.850       12.514        0.012      335.600        6.343      867.153
01/15/2015  21:04:00     -109.109      -59.694       -4.001       19.800       22.538       10.738      392.021      507.948      115.302        0.825        0.051      124.371        8.869        0.005      335.406        6.018      867.173
01/15/2015  21:05:00      -84.565      -19.244        1.711       28.347       24.405       17.577      803.544      595.623      308.956        0.462        0.085       86.727       17.073        0.039      335.343        5.913      867.188
01/15/2015  21:06:00      -76.481      -12.239        4.358       34.485       18.890       17.708     1189.210      356.816      313.570        0.394        0.093       77.454       20.600        0.071      335.468        6.121      867.158
01/15/2015  21:07:00      -69.008      -19.819       -1.475       15.402       12.846       11.679      237.219      165.009      136.410        0.285        0.027       71.798        8.327        0.013      335.523        6.212      867.114
01/15/2015  21:08:00      -72.241        3.038       -4.087       23.438       12.583       11.387      549.317      158.342      129.667        0.304        0.042       72.305       12.014        0.028      335.515        6.201      867.082
01/15/2015  21:09:00      -54.321       10.624       -6.617       17.751       16.359       10.017      315.086      267.626      100.347        0.190        0.034       55.350        5.820        0.011      335.519        6.207      867.060
01/15/2015  21:10:00      -13.550        4.736        0.799       11.742       12.825        6.029      137.863      164.492       36.348        0.027        0.017       14.354        4.914        0.117      335.558        6.272      867.017
01/15/2015  21:11:00        1.336        3.710        0.692        3.004        6.671        5.737        9.023       44.501       32.917        0.005        0.004        3.943        3.967        1.012      335.597        6.337      866.945
01/15/2015  21:12:00       30.695       41.014       18.300       11.213       11.280        9.490      125.735      127.242       90.054        0.165        0.017       51.228        7.389        0.021      335.542        6.247      866.861
01/15/2015  21:13:00       58.173       39.488       23.140       22.025       16.988       18.131      485.122      288.576      328.739        0.329        0.055       70.309        8.977        0.016      335.522        6.211      866.804
01/15/2015  21:14:00       46.116       43.787        4.986       13.898        8.718       13.394      193.146       75.998      179.386        0.226        0.022       63.593        7.005        0.012      335.545        6.250      866.778
01/15/2015  21:15:00        9.650       50.561       -7.098        9.132       13.494        7.697       83.390      182.095       59.250        0.151        0.016       51.474        8.473        0.027      335.428        6.056      866.785
01/15/2015  21:16:00      -16.820       59.214      -10.864       21.108       15.273        5.423      445.547      233.250       29.414        0.231        0.035       61.556        1.164        0.000      335.549        6.258      866.796
01/15/2015  21:17:00      -75.933       43.199      -20.328       16.487       22.867       11.691      271.829      522.904      136.668        0.449        0.047       87.361        5.463        0.004      335.460        6.107      866.810
01/15/2015  21:18:00      -40.457       -9.188       -1.250       22.271       19.379       11.586      495.982      375.561      134.238        0.136        0.050       41.487       10.314        0.062      335.176        5.636      866.838
01/15/2015  21:19:00      -19.166        2.680       10.799       25.855       33.782       17.638      668.496     1141.192      311.099        0.131        0.106       19.353       14.267        0.543      335.113        5.529      866.851
01/15/2015  21:20:00      -14.990       43.223        0.902       18.362       29.819       18.109      337.150      889.200      327.944        0.182        0.078       45.749       18.849        0.170      335.306        5.851      866.811
01/15/2015  21:21:00       15.614       22.670        1.517       17.566       15.066       13.043      308.567      226.989      170.114        0.073        0.035       27.526        4.730        0.030      335.334        5.897      866.750
01/15/2015  21:22:00      -78.614       11.710      -12.927       31.137       42.092       12.947      969.486     1771.696      167.626        0.470        0.145       79.481        9.719        0.015      335.337        5.905      866.744
01/15/2015  21:23:00     -156.491      -53.535       -5.450       40.026       28.605       22.421     1602.084      818.251      502.700        1.515        0.146      165.395       18.690        0.013      334.968        5.291      866.817
01/15/2015  21:24:00      -99.930      -59.335        0.770       54.963       43.317       24.545     3020.951     1876.377      602.474        0.950        0.275      116.218       20.139        0.030      335.154        5.599      866.889
01/15/2015  21:25:00      -73.912      -10.973       -0.986       52.683       20.621       14.886     2775.488      425.227      221.605        0.450        0.171       74.722       21.730        0.085      335.301        5.844      866.926
01/15/2015  21:26:00      -64.567      -16.909       -6.517       13.914       16.814       12.601      193.598      282.695      158.780        0.257        0.032       66.744        8.049        0.015      335.295        5.832      866.956
01/15/2015  21:27:00      -85.592       30.380      -15.742        9.268       15.568        9.982       85.899      242.372       99.639        0.446        0.021       90.824        4.382        0.002      335.271        5.791      866.992
01/15/2015  21:28:00      -77.639       25.435      -13.786        7.986        7.777        6.344       63.773       60.487       40.249        0.351        0.008       81.699        3.645        0.002      335.363        5.945      867.012
01/15/2015  21:29:00      -71.928       23.300      -10.470        6.480        6.997        5.479       41.988       48.958       30.014        0.297        0.006       75.608        3.065        0.002      335.393        5.996      867.018
01/15/2015  21:30:00      -68.558       32.497      -13.109       13.297       11.976        7.062      176.812      143.426       49.874        0.315        0.019       75.870        4.631        0.004      335.439        6.072      866.985
01/15/2015  21:31:00     -120.892       60.778      -25.506       20.729       12.772        9.858      429.700      163.132       97.181        0.982        0.035      135.310        6.224        0.002      335.315        5.867      866.948
01/15/2015  21:32:00     -146.216       50.860      -16.681       45.291       36.272       20.606     2051.317     1315.639      424.608        1.402        0.190      154.809       16.145        0.011      335.157        5.605      866.952
01/15/2015  21:33:00     -145.458       59.785      -12.117       41.021       24.501       24.592     1682.703      600.298      604.776        1.388        0.144      157.265       19.071        0.015      335.144        5.582      866.992
01/15/2015  21:34:00      -90.438       50.945      -20.617       46.262       47.087       25.624     2140.175     2217.177      656.576        0.811        0.251      103.800       24.915        0.058      335.312        5.861      867.041
01/15/2015  21:35:00      -63.642       40.961       -9.587       36.339       32.681       18.578     1320.513     1068.053      345.132        0.428        0.137       75.684       16.394        0.047      335.523        6.213      867.097
01/15/2015  21:36:00      -38.270      -11.214       -0.701       26.869       17.177       17.607      721.951      295.057      309.990        0.146        0.066       39.879       12.192        0.093      335.454        6.098      867.136
01/15/2015  21:37:00      -81.195      -25.605       -7.392       26.501       26.063       12.092      702.297      679.286      146.214        0.442        0.076       85.136        8.309        0.010      335.310        5.858      867.107
01/15/2015  21:38:00      -85.723       -3.411      -11.360       22.116       13.902       10.403      489.097      193.264      108.219        0.414        0.040       85.791        6.074        0.005      335.107        5.522      867.050
01/15/2015  21:39:00      -86.081      -25.365      -11.293       17.781       15.498        8.490      316.165      240.191       72.077        0.440        0.031       89.740        4.893        0.003      335.065        5.451      867.002
01/15/2015  21:40:00      -38.037      -38.442       -2.707       25.806       19.082       11.271      665.967      364.115      127.038        0.204        0.058       54.080       13.924        0.066      335.088        5.490      866.986
01/15/2015  21:41:00        4.199      -41.040       -6.048       11.135        9.811        8.568      123.978       96.262       73.410        0.102        0.015       41.255        4.660        0.013      335.211        5.696      866.970
01/15/2015  21:42:00        6.725      -15.857        8.599       15.390       20.277       23.764      236.862      411.164      564.720        0.079        0.061       17.224       16.887        0.961      335.361        5.942      866.953
01/15/2015  21:43:00      -22.114        9.215        3.096        8.270       12.561       16.534       68.396      157.778      273.374        0.054        0.025       23.957       12.220        0.260      335.359        5.940      866.940
01/15/2015  21:44:00      -94.414       -0.504      -13.004       38.824       10.648       10.147     1507.317      113.371      102.956        0.540        0.086       94.415       15.417        0.027      335.277        5.803      866.945
01/15/2015  21:45:00     -125.990      -15.918      -18.428       18.913       19.942       13.595      357.686      397.697      184.835        0.870        0.047      126.991       11.333        0.008      335.059        5.442      866.976
01/15/2015  21:46:00      -59.664        2.795       -5.844       26.826       24.581       11.046      719.613      604.212      122.019        0.252        0.072       59.729        9.737        0.027      335.244        5.750      866.993
01/15/2015  21:47:00       39.573       47.885       -4.297       28.177       30.760       11.406      793.963      946.207      130.094        0.287        0.094       62.121       10.661        0.029      335.789        6.656      866.992
01/15/2015  21:48:00       23.286      -31.121       -5.056       24.055       25.625       14.887      578.656      656.628      221.626        0.150        0.073       38.868       11.421        0.086      335.527        6.220      867.041
01/15/2015  21:49:00      -65.739      -46.334       -3.045       48.289       21.524       20.978     2331.841      463.296      440.088        0.486        0.162       80.427       13.998        0.030      335.407        6.019      867.123
01/15/2015  21:50:00      -67.824      -40.009        5.311       34.959       30.663       22.492     1222.152      940.211      505.871        0.445        0.133       78.745       10.492        0.018      335.358        5.939      867.173
01/15/2015  21:51:00      -48.607       -6.351       -1.932       14.427       15.541        5.931      208.129      241.531       35.181        0.145        0.024       49.020        5.290        0.012      335.298        5.836      867.197
01/15/2015  21:52:00      -11.257       12.789        1.589       17.299       11.018       12.363      299.257      121.395      152.839        0.043        0.029       17.038       15.000        0.775      335.505        6.183      867.188
01/15/2015  21:53:00       14.588       30.337        8.101       11.338        7.167        9.580      128.554       51.361       91.786        0.074        0.014       33.662        6.720        0.040      335.820        6.708      867.176
01/15/2015  21:54:00      -42.785       24.625      -13.443       25.905       14.058        9.258      671.089      197.632       85.718        0.179        0.048       49.366       12.795        0.067      335.801        6.677      867.196
01/15/2015  21:55:00      -85.849       20.044      -10.795       34.965       31.389       24.083     1222.539      985.284      579.997        0.534        0.139       88.157       20.614        0.055      335.217        5.702      867.234
01/15/2015  21:56:00     -166.572       36.733      -20.649       41.888       39.351       23.934     1754.577     1548.530      572.841        1.670        0.194      170.574       13.509        0.006      335.075        5.469      867.281
01/15/2015  21:57:00      -52.995        2.392       -6.801       49.999       27.468       22.199     2499.880      754.496      492.814        0.330        0.187       53.049       19.366        0.133      334.998        5.341      867.316
01/15/2015  21:58:00       31.401        0.226        6.661       19.993       31.576       20.905      399.738      997.052      437.009        0.143        0.092       31.401       14.157        0.203      335.289        5.821      867.321
01/15/2015  21:59:00       46.117       85.141       71.658       32.118       38.013       22.250     1031.535     1445.021      495.049        0.874        0.149       96.829       12.226        0.016      335.367        5.952      867.296
01/15/2015  22:00:00       47.681       55.810       45.003       35.964       31.224       23.906     1293.426      974.919      571.479        0.513        0.142       73.404       22.012        0.090      335.428        6.057      867.290
01/15/2015  22:01:00       11.075       16.279       14.095       20.366       18.835       21.110      414.763      354.754      445.650        0.090        0.061       19.689        7.456        0.143      335.446        6.085      867.312
01/15/2015  22:02:00      -21.653       13.074       -2.294       23.096       17.823        9.977      533.404      317.673       99.539        0.080        0.048       25.294       10.427        0.170      335.330        5.891      867.349
01/15/2015  22:03:00      -70.134       39.046      -15.391       11.982       22.470       10.610      143.562      504.905      112.582        0.372        0.038       80.271       12.383        0.024      335.299        5.840      867.366
01/15/2015  22:04:00      -63.336       32.040      -10.681        9.267       15.277       10.324       85.874      233.398      106.586        0.279        0.021       70.979        7.167        0.010      335.298        5.837      867.333
01/15/2015  22:05:00      -69.955      -10.987       -8.908       16.292       21.799        7.518      265.416      475.204       56.516        0.295        0.040       70.813        9.846        0.019      335.250        5.758      867.335
01/15/2015  22:06:00     -150.138      -63.020      -13.260       21.640       21.614       11.250      468.305      467.182      126.564        1.388        0.053      162.828        8.810        0.003      335.166        5.619      867.382
01/15/2015  22:07:00     -116.810      -47.481       -4.984       37.297       26.350       15.027     1391.063      694.335      225.819        0.912        0.116      126.091       13.227        0.011      335.185        5.649      867.430
01/15/2015  22:08:00      -42.786      -24.460        7.989       43.206       24.291       18.126     1866.732      590.076      328.547        0.264        0.139       49.285        5.374        0.012      335.302        5.842      867.478
01/15/2015  22:09:00        0.796      -48.535        1.094       15.989       19.042       15.398      255.650      362.616      237.103        0.161        0.043       48.542        7.324        0.023      335.420        6.042      867.530
01/15/2015  22:10:00      -11.038      -49.645       -7.803       39.281       36.153       29.637     1542.988     1307.036      878.340        0.319        0.186       50.857       22.543        0.196      335.525        6.217      867.573
01/15/2015  22:11:00      -23.480       67.521      113.067       23.970       59.061       42.733      574.548     3488.166     1826.085        1.189        0.294       71.487       40.188        0.316      335.512        6.194      867.603
01/15/2015  22:12:00       -0.971       77.362      113.178       39.696       62.970       42.620     1575.781     3965.161     1816.482        1.307        0.368       77.368       42.351        0.300      335.516        6.203      867.591
01/15/2015  22:13:00       84.797      115.943      113.998       69.284       56.544       40.660     4800.232     3197.182     1653.224        2.164        0.483      143.643       38.675        0.072      335.488        6.154      867.522
01/15/2015  22:14:00      119.911       87.305       25.790       65.108       36.796       58.116     4239.072     1353.965     3377.477        1.582        0.449      148.327       29.268        0.039      335.348        5.920      867.478
01/15/2015  22:15:00       71.971       49.406        8.541       46.015       32.001       27.285     2117.340     1024.080      744.447        0.579        0.194       87.298       14.615        0.028      335.231        5.726      867.476
01/15/2015  22:16:00      -14.751       41.189      -13.530       23.434       31.979       19.904      549.150     1022.641      396.184        0.203        0.098       43.751       16.159        0.136      335.302        5.845      867.501
01/15/2015  22:17:00      -92.724       -1.130      -12.184       22.164       25.244        8.618      491.251      637.274       74.265        0.497        0.060       92.731        6.503        0.005      335.221        5.710      867.537
01/15/2015  22:18:00      -84.745        4.996      -19.355       16.220       12.892        8.585      263.074      166.191       73.696        0.404        0.025       84.892        4.846        0.003      335.302        5.845      867.530
01/15/2015  22:19:00      -61.027       37.280      -26.756       26.879       30.953       24.170      722.477      958.059      584.188        0.405        0.113       71.513       16.969        0.056      335.740        6.574      867.471
01/15/2015  22:20:00      -30.376      -30.790      -12.078       21.816       18.934       13.796      475.949      358.494      190.339        0.152        0.051       43.252       11.154        0.067      335.528        6.220      867.443
01/15/2015  22:21:00      -35.029       -0.265       -7.166       22.170       30.979       13.351      491.506      959.695      178.257        0.145        0.081       35.030        9.642        0.076      335.686        6.484      867.408
01/15/2015  22:22:00      -78.847       51.567      -20.416       43.623       25.715       14.378     1902.943      661.253      206.731        0.603        0.139       94.213       18.737        0.040      336.056        7.100      867.370
01/15/2015  22:23:00      -93.275      -13.158      -14.604       14.386       23.158       11.194      206.951      536.312      125.307        0.498        0.043       94.199        4.125        0.002      335.498        6.170      867.354
01/15/2015  22:24:00      -56.654       -7.363       -7.098       14.114       20.244       10.363      199.195      409.831      107.383        0.202        0.036       57.131        5.594        0.010      335.497        6.170      867.309
01/15/2015  22:25:00      -53.228       -7.839      -11.760       25.819       14.962        8.530      666.606      223.876       72.760        0.200        0.048       53.802        3.831        0.005      335.565        6.283      867.285
01/15/2015  22:26:00     -137.109      -26.809      -10.101       34.499       27.844       18.371     1190.185      775.281      337.507        1.096        0.115      139.705        5.431        0.002      335.553        6.263      867.378
01/15/2015  22:27:00      -95.153      -47.664        4.819       57.145       22.056       15.323     3265.605      486.466      234.790        0.767        0.199      106.423       18.597        0.031      335.604        6.348      867.467
01/15/2015  22:28:00      -14.846      -55.681       -1.167       33.149       37.420       20.423     1098.843     1400.277      417.085        0.312        0.146       57.626       13.379        0.054      335.999        7.005      867.439
01/15/2015  22:29:00        3.318       -8.716        6.316       21.897       27.883       22.360      479.486      777.448      499.952        0.094        0.088        9.327       19.284        4.275      335.921        6.877      867.359
01/15/2015  22:30:00       -7.973       16.494       26.066       20.196       18.332       12.502      407.881      336.074      156.311        0.096        0.045       18.320        7.561        0.170      335.702        6.512      867.342
01/15/2015  22:31:00       38.824       13.956       19.334       19.452       18.943       18.826      378.399      358.829      354.435        0.158        0.055       41.256       16.354        0.157      335.748        6.591      867.338
01/15/2015  22:32:00       38.711      -46.152       -4.792       26.752       43.133       28.753      715.656     1860.481      826.747        0.353        0.170       60.237       32.222        0.286      335.768        6.622      867.358
01/15/2015  22:33:00       25.347      -60.967       -1.482       42.260       55.089       30.587     1785.871     3034.812      935.536        0.506        0.288       66.027       41.110        0.388      335.711        6.526      867.364
01/15/2015  22:34:00      -55.404       39.005       -3.275       19.202       14.630       21.180      368.718      214.051      448.596        0.282        0.052       67.757        8.183        0.015      335.713        6.530      867.282
01/15/2015  22:35:00      -97.225       -2.337       -9.625       22.610       34.662       10.646      511.196     1201.463      113.332        0.569        0.091       97.253       10.874        0.013      335.762        6.613      867.197
01/15/2015  22:36:00     -140.433      -32.122      -12.764       26.711       33.707       18.650      713.466     1136.186      347.813        1.156        0.110      144.060       14.016        0.009      335.496        6.169      867.178
01/15/2015  22:37:00      -64.055      -63.126        9.112       75.402       38.133       23.805     5685.427     1454.095      566.659        0.794        0.385       89.933       29.042        0.104      335.431        6.060      867.168
01/15/2015  22:38:00      -52.434      -50.099        1.062       42.611       38.785       31.437     1815.671     1504.251      988.263        0.478        0.215       72.520       25.224        0.121      335.604        6.349      867.132
01/15/2015  22:39:00      -35.922      -52.512        8.077       36.149       29.653       22.622     1306.785      879.288      511.751        0.341        0.135       63.623       23.221        0.133      335.699        6.507      867.146
01/15/2015  22:40:00      -29.699      -63.089        7.125       27.165       28.656       17.584      737.949      821.159      309.210        0.339        0.093       69.730       19.556        0.079      335.718        6.540      867.138
01/15/2015  22:41:00      -49.638       -8.750        5.478       13.874       12.710       16.370      192.483      161.537      267.970        0.160        0.031       50.403        6.552        0.017      335.711        6.526      867.098
01/15/2015  22:42:00      -51.281       -8.621       -4.526       17.449       17.211       16.156      304.483      296.213      261.015        0.179        0.043       52.001        9.601        0.034      335.683        6.482      867.093
01/15/2015  22:43:00      -51.134       -1.818       -2.271       15.588        9.113       12.352      242.993       83.043      152.569        0.155        0.024       51.166        6.810        0.018      335.728        6.553      867.048
01/15/2015  22:44:00      -74.592       35.784      -13.338       25.948       14.444       11.056      673.278      208.618      122.226        0.401        0.050       82.731       11.634        0.020      335.671        6.460      867.005
01/15/2015  22:45:00      -74.945       57.101       -9.239       23.642       25.745       17.398      558.958      662.814      302.701        0.524        0.076       94.219       15.367        0.027      335.649        6.423      867.000
01/15/2015  22:46:00      -85.971       89.661      -20.224       29.714       25.561       19.159      882.943      653.372      367.054        0.887        0.095      124.218       15.414        0.015      335.722        6.547      866.983
01/15/2015  22:47:00      -64.925       88.665      -20.508       21.945       34.870       16.235      481.599     1215.911      263.577        0.723        0.098      109.894       13.299        0.015      335.711        6.528      866.989
01/15/2015  22:48:00        3.804       16.542       -0.559       22.501       19.589        9.713      506.305      383.710       94.350        0.064        0.049       16.973        8.443        0.247      335.615        6.368      866.992
01/15/2015  22:49:00       31.535        9.379        8.139       24.033       17.705       14.729      577.608      313.475      216.937        0.113        0.055       32.900       13.421        0.166      335.571        6.293      866.952
01/15/2015  22:50:00       92.654       36.362       36.441       47.215       32.412       38.900     2229.285     1050.530     1513.213        0.801        0.240       99.533        9.856        0.010      335.491        6.159      866.838
01/15/2015  22:51:00       44.927      112.736       99.544       50.622       65.784       48.292     2562.564     4327.549     2332.126        1.693        0.461      121.359       45.697        0.142      335.254        5.766      866.742
01/15/2015  22:52:00       78.888       62.404       56.071       75.369       43.173       46.053     5680.533     1863.920     2120.887        1.146        0.483      100.586       47.449        0.223      334.940        5.244      866.755
01/15/2015  22:53:00       75.597       77.407       63.568       42.528       50.245       35.677     1808.668     2524.606     1272.833        1.068        0.280      108.198       34.502        0.102      334.960        5.277      866.719
01/15/2015  22:54:00      117.388       70.676       36.171       39.877       33.599       31.792     1590.161     1128.894     1010.709        1.191        0.186      137.022       19.887        0.021      334.929        5.226      866.697
01/15/2015  22:55:00       96.274       34.994       24.362       40.364       35.381       35.370     1629.223     1251.816     1251.023        0.761        0.207      102.437       23.203        0.051      334.981        5.313      866.740
01/15/2015  22:56:00       51.292       38.793       24.835       27.530       17.628       18.952      757.887      310.733      359.182        0.309        0.071       64.310        6.978        0.012      334.945        5.253      866.803
01/15/2015  22:57:00       28.140       63.894        5.787       33.811       23.254       24.923     1143.154      540.732      621.166        0.361        0.115       69.816       17.155        0.060      334.949        5.260      866.856
01/15/2015  22:58:00      -36.970      101.927      -21.564       29.595       27.000       14.064      875.889      729.024      197.791        0.701        0.090      108.425        9.745        0.008      335.084        5.483      866.945
01/15/2015  22:59:00        2.970       71.113       -2.570       46.828       24.239       16.507     2192.893      587.525      272.473        0.406        0.153       71.175       16.759        0.055      335.124        5.550      867.025
01/15/2015  23:00:00       77.961       53.495       19.829       30.954       29.678       29.573      958.150      880.795      874.587        0.602        0.136       94.549       22.932        0.059      335.163        5.615      867.035
01/15/2015  23:01:00        1.740       44.645       64.533       22.745       34.883       19.104      517.340     1216.805      364.976        0.413        0.105       44.679       16.546        0.137      335.103        5.517      867.042
01/15/2015  23:02:00       54.501      -73.932       -1.772       45.425       61.441       30.417     2063.437     3775.056      925.223        0.760        0.338       91.849       38.698        0.178      335.187        5.654      867.045
01/15/2015  23:03:00       13.645        4.584       19.616       29.641       42.299       32.873      878.588     1789.197     1080.633        0.217        0.187       14.394       30.445        4.474      335.140        5.576      866.980
01/15/2015  23:04:00       -3.009       47.630       77.659       18.553       34.752       22.319      344.220     1207.709      498.139        0.518        0.103       47.725       23.212        0.237      335.129        5.559      866.899
01/15/2015  23:05:00        1.207      -23.085       19.789       25.847       36.510       28.961      668.088     1332.984      838.721        0.188        0.142       23.116       25.651        1.231      335.237        5.736      866.908
01/15/2015  23:06:00       -6.518      -21.355        2.351       24.646       24.373       17.315      607.414      594.029      299.807        0.100        0.075       22.328        7.810        0.122      335.220        5.709      866.966
01/15/2015  23:07:00       46.179       32.377       37.469       30.721       26.157       24.128      943.764      684.213      582.178        0.340        0.111       56.398       22.942        0.165      335.241        5.742      866.939
01/15/2015  23:08:00       75.383       75.664       72.309       66.531       54.895       43.781     4426.314     3013.503     1916.778        1.299        0.468      106.806       45.910        0.185      335.354        5.931      866.854
01/15/2015  23:09:00      104.654       54.164       33.102       40.975       36.689       39.880     1678.910     1346.057     1590.453        0.980        0.231      117.840       25.426        0.047      335.246        5.750      866.828
01/15/2015  23:10:00       84.816       41.619       22.641       24.360       26.549       23.244      593.424      704.829      540.305        0.564        0.092       94.476       12.563        0.018      335.162        5.612      866.859
01/15/2015  23:11:00        2.393       -4.217        2.823       30.586       16.418       11.525      935.487      269.541      132.837        0.068        0.067        4.848       11.877        6.001      335.139        5.575      866.903
01/15/2015  23:12:00     -142.880      -27.830      -15.700       54.597       24.052       18.900     2980.859      578.485      357.201        1.268        0.196      145.565       11.301        0.006      335.097        5.506      866.982
01/15/2015  23:13:00     -133.091      -69.786       -2.653       91.861       55.326       34.465     8438.440     3060.984     1187.833        1.764        0.634      150.277        6.778        0.002      335.118        5.539      867.062
01/15/2015  23:14:00     -132.795       -8.237       -1.831       63.518       52.687       32.778     4034.539     2775.971     1074.388        1.279        0.394      133.050       30.044        0.051      335.107        5.523      867.072
01/15/2015  23:15:00      -84.879       27.626       -2.799       41.379       34.820       17.525     1712.196     1212.418      307.111        0.560        0.162       89.262       16.988        0.036      335.030        5.394      866.992
01/15/2015  23:16:00      -79.817       30.123      -12.011       46.339       26.970       16.614     2147.260      727.397      276.021        0.529        0.158       85.312       21.546        0.064      335.112        5.532      866.936
01/15/2015  23:17:00     -146.960      -44.841      -17.474       49.387       34.782       17.894     2439.050     1209.754      320.201        1.394        0.198      153.649       13.169        0.007      335.055        5.434      866.967
01/15/2015  23:18:00      -39.189      -25.372        2.752       43.707       18.716       21.982     1910.266      350.300      483.200        0.246        0.137       46.685        7.631        0.027      335.017        5.371      866.910
01/15/2015  23:19:00      -15.308     -110.645      -25.868       25.678       34.471       23.108      659.375     1188.267      533.986        0.776        0.119      111.699       10.671        0.009      335.076        5.471      866.822
01/15/2015  23:20:00      -70.372      -79.925       -8.184       61.194       33.542       31.099     3744.736     1125.077      967.146        0.862        0.292      106.490       20.603        0.037      335.046        5.421      866.847
01/15/2015  23:21:00      -84.431      -13.275       12.154       58.539       42.097       34.211     3426.812     1772.117     1170.422        0.691        0.318       85.468       30.671        0.129      334.949        5.260      866.845
01/15/2015  23:22:00      -87.386       32.245       -3.014       43.513       26.445       23.923     1893.410      699.336      572.300        0.592        0.158       93.145       23.069        0.061      334.869        5.127      866.781
01/15/2015  23:23:00     -127.429        7.440      -15.907       33.363       39.059       17.730     1113.123     1525.574      314.360        0.975        0.148      127.646       14.765        0.013      334.847        5.090      866.793
01/15/2015  23:24:00     -143.351      -81.553       -5.775       55.319       47.118       31.270     3060.180     2220.152      977.797        1.674        0.313      164.926       26.062        0.025      334.796        5.005      866.922
01/15/2015  23:25:00     -155.043      -84.077       -6.101       56.681       59.723       36.408     3212.762     3566.825     1325.570        1.962        0.405      176.372       31.061        0.031      334.784        4.982      866.976
01/15/2015  23:26:00     -104.560      -25.932       -5.055       55.863       53.420       25.527     3120.679     2853.732      651.606        0.913        0.331      107.728       25.874        0.058      334.723        4.882      866.950
01/15/2015  23:27:00     -129.014      -39.364      -15.255       34.080       29.795       18.546     1161.421      887.768      343.970        1.041        0.120      134.885       16.981        0.016      334.623        4.717      866.935
01/15/2015  23:28:00      -43.161      -25.611       -1.445       51.486       15.850       17.604     2650.761      251.216      309.918        0.287        0.161       50.188       12.266        0.060      334.692        4.831      866.890
01/15/2015  23:29:00        7.947       -1.918        7.390       14.001       23.017       17.646      196.032      529.799      311.365        0.058        0.052        8.175       16.158        3.907      334.780        4.977      866.798
01/15/2015  23:30:00       -3.889       21.128       -3.199       19.291       16.852       10.102      372.158      284.006      102.053        0.061        0.038       21.482        6.204        0.083      334.730        4.895      866.748
01/15/2015  23:31:00      -46.998       11.271       -8.314       15.521       14.391        9.916      240.906      207.098       98.335        0.148        0.027       48.331        6.148        0.016      334.789        4.994      866.761
01/15/2015  23:32:00      -45.297       45.086       -1.524       22.982       22.521       17.456      528.186      507.213      304.701        0.271        0.067       63.911       12.514        0.038      334.736        4.906      866.726
01/15/2015  23:33:00      -38.431       96.106       -7.709       30.450       25.615       18.033      927.189      656.131      325.195        0.634        0.095      103.505       14.550        0.020      334.880        5.144      866.632
01/15/2015  23:34:00       12.364      109.750      -19.521       19.770       55.475       15.893      390.837     3077.456      252.598        0.815        0.186      110.444       23.251        0.044      334.732        4.898      866.583
01/15/2015  23:35:00        6.331       30.375       -2.432       18.215       22.607       16.529      331.785      511.081      273.205        0.104        0.056       31.028       12.841        0.171      334.615        4.706      866.615
01/15/2015  23:36:00       -0.006       47.404        8.839       20.163       27.630       16.107      406.563      763.426      259.441        0.188        0.071       47.404       13.568        0.082      334.626        4.724      866.636
01/15/2015  23:37:00      -43.287        8.900       -8.588       13.707       12.728        8.304      187.887      161.997       68.962        0.122        0.021       44.192        4.395        0.010      334.731        4.900      866.628
01/15/2015  23:38:00      -12.176      -19.214       -6.623        6.102        7.455        6.935       37.229       55.578       48.094        0.035        0.007       22.747        5.974        0.069      334.835        5.071      866.624
01/15/2015  23:39:00       -8.561      -18.475       -1.487       13.097       10.486        8.411      171.529      109.960       70.749        0.038        0.018       20.362        5.941        0.085      334.977        5.306      866.642
01/15/2015  23:40:00       20.422       10.022        8.685       11.416        6.687        7.806      130.334       44.715       60.940        0.041        0.012       22.748        5.661        0.062      334.763        4.950      866.659
01/15/2015  23:41:00        8.089       13.766        3.003        7.228        6.565        3.606       52.251       43.101       13.004        0.019        0.005       15.967        3.844        0.058      334.890        5.164      866.656
01/15/2015  23:42:00      -45.286        6.371       -4.695       26.085        8.572        5.908      680.435       73.477       34.908        0.145        0.039       45.732       10.675        0.054      334.911        5.197      866.631
01/15/2015  23:43:00     -104.038      -15.337      -14.268       21.280       17.076       15.519      452.822      291.584      240.840        0.612        0.049      105.162       15.101        0.021      334.690        4.828      866.617
01/15/2015  23:44:00     -142.819      -62.576       -8.743       51.849       35.244       18.615     2688.280     1242.127      346.518        1.433        0.214      155.926       15.230        0.010      334.584        4.652      866.602
01/15/2015  23:45:00     -108.402      -46.392       -5.119       31.313       21.665       17.487      980.473      469.364      305.789        0.784        0.088      117.912       13.495        0.013      334.674        4.801      866.564
01/15/2015  23:46:00      -53.681       17.015       -2.583       25.124       28.792       10.802      631.235      828.978      116.676        0.238        0.079       56.313        8.612        0.023      334.763        4.951      866.498
01/15/2015  23:47:00      -69.913       90.497      -16.799       13.341       15.201       10.362      177.992      231.076      107.364        0.694        0.026      114.357        3.588        0.001      335.162        5.612      866.454
01/15/2015  23:48:00     -104.252       66.619      -19.597       15.939       23.622       12.673      254.039      558.011      160.597        0.833        0.049      123.720        9.622        0.006      334.932        5.231      866.475
01/15/2015  23:49:00     -153.954       14.007      -10.827       38.300       32.229       19.617     1466.867     1038.737      384.838        1.345        0.145      154.590       18.767        0.015      334.760        4.945      866.484
01/15/2015  23:50:00     -142.785       47.739       -8.744       56.727       29.226       22.620     3217.927      854.137      511.651        1.366        0.229      150.554       16.475        0.012      334.719        4.875      866.481
01/15/2015  23:51:00      -80.880       47.740       -5.827       27.517       23.214       18.119      757.165      538.904      328.283        0.524        0.081       93.919       12.926        0.019      334.768        4.958      866.471
01/15/2015  23:52:00      -50.430       24.202       -9.251       15.689       26.796       14.386      246.156      718.029      206.968        0.219        0.059       55.936       16.391        0.086      334.767        4.958      866.482
01/15/2015  23:53:00      -34.885      -27.496       -9.883       24.537       17.214       11.836      602.072      296.308      140.087        0.155        0.052       44.419        7.360        0.027      334.809        5.027      866.496
01/15/2015  23:54:00       26.534      -33.023        4.017       18.279       18.862       18.840      334.108      355.775      354.946        0.143        0.052       42.362       12.408        0.086      334.840        5.078      866.485
01/15/2015  23:55:00        2.645       13.227       18.971       13.041       15.955       12.219      170.080      254.567      149.306        0.056        0.029       13.489       10.685        0.627      334.843        5.083      866.438
01/15/2015  23:56:00      -17.436      -10.277        3.677       21.570       30.507       18.268      465.245      930.702      333.724        0.108        0.086       20.240       21.046        1.081      334.876        5.136      866.415
01/15/2015  23:57:00     -119.999      -44.068      -13.329       30.688       20.742       12.370      941.763      430.210      153.018        0.902        0.076      127.835        8.652        0.005      334.761        4.947      866.425
01/15/2015  23:58:00      -83.418      -58.320       -2.620       43.406       29.885       17.799     1884.100      893.120      316.817        0.673        0.155      101.783       20.969        0.042      334.653        4.766      866.438
01/15/2015  23:59:00      -48.777      -17.027        5.355       24.182       22.565       12.527      584.790      509.167      156.929        0.197        0.063       51.663       13.661        0.070      334.713        4.867      866.399
